[[{"header":{"parameterUnit":"m.s-1","parameterCategory":1,"la1":31.0,"la2":29.5877,"lo1":-88.7671,"lo2":-86.6584,"dy":0.0162,"dx":0.0185,"nx":115,"ny":88,"refTime":"2024-07-31T12:00:00:Z","depth":0,"parameterNumber":2,"parameterNumberName":"U-component_of_WINDS"},"data":[0.0,0.0,0.0,0.0,0.0,0.0,0.0,0.0,0.0,0.0,0.0,0.0,0.0,0.0,0.0,0.0,0.0,0.0,0.0,0.0,0.0,0.0,0.0,0.0,0.0,0.0,0.0,0.0,0.0,0.0,0.0,0.0,0.0,0.0,0.0,0.0,0.0,0.0,0.0,0.0,0.0,0.0,0.0,0.0,0.0,0.0,0.0,0.0,0.0,0.0,0.0,0.0,0.0,0.0,0.0,0.0,0.0,0.0,0.0,0.0,0.0,0.0,0.0,0.0,0.0,0.0,0.0,0.0,0.0,0.0,0.0,0.0,0.0,0.0,0.0,0.0,0.0,0.0,0.0,0.0,0.0,0.0,0.0,0.0,0.0,0.0,0.0,0.0,0.0,0.0,0.0,0.0,0.0,0.0,0.0,0.0,0.0,0.0,0.0,0.0,0.0,0.0,0.0,0.0,0.0,0.0,0.0,0.0,0.0,0.0,0.0,0.0,0.0,0.0,0.0,0.0,0.0,0.0,0.0,0.0,0.0,0.0,0.0,0.0,0.0,0.0,0.0,0.0,0.0,0.0,0.0,0.0,0.0,0.0,0.0,0.0,0.0,0.0,0.0,0.0,0.0,0.0,0.0,0.0,0.0,0.0,0.0,0.0,0.0,0.0,0.0,0.0,0.0,0.0,0.0,0.0,0.0,0.0,0.0,0.0,0.0,0.0,0.0,0.0,0.0,0.0,0.0,0.0,0.0,0.0,0.0,0.0,0.0,0.0,0.0,0.0,0.0,0.0,0.0,0.0,0.0,0.0,0.0,0.0,0.0,0.0,0.0,0.0,0.0,0.0,0.0,0.0,0.0,0.0,0.0,0.0,0.0,0.0,0.0,0.0,0.0,0.0,0.0,0.0,0.0,0.0,0.0,0.0,0.0,0.0,0.0,0.0,0.0,0.0,0.0,0.0,0.0,0.0,0.0,0.0,0.0,0.0,0.0,0.0,0.0,0.0,0.0,0.0,0.0,0.0,0.0,0.0,0.0,0.0,0.0,0.0,0.0,0.0,0.0,0.0,0.0,0.0,0.0,0.0,0.0,0.0,0.0,0.0,0.0,0.0,0.0,0.0,0.0,0.0,0.0,0.0,0.0,0.0,0.0,0.0,0.0,0.0,0.0,0.0,0.0,0.0,0.0,0.0,0.0,0.0,0.0,0.0,0.0,0.0,0.0,0.0,0.0,0.0,0.0,0.0,0.0,0.0,0.0,0.0,0.0,0.0,0.0,0.0,0.0,0.0,0.0,0.0,0.0,0.0,0.0,0.0,0.0,0.0,0.0,0.0,0.0,0.0,0.0,0.0,0.0,0.0,0.0,0.0,0.0,0.0,0.0,0.0,0.0,0.0,0.0,0.0,0.0,0.0,0.0,0.0,0.0,0.0,0.0,0.0,0.0,0.0,0.0,0.0,0.0,0.0,0.0,0.0,0.0,0.0,0.0,0.0,0.0,0.0,0.0,0.0,0.0,0.0,0.0,0.0,0.0,0.0,0.0,0.0,0.0,0.0,0.0,0.0,0.0,0.0,0.0,0.0,0.0,0.0,0.0,0.0,0.0,0.0,0.0,0.0,0.0,0.0,0.0,0.0,0.0,0.0,0.0,0.0,0.0,0.0,0.0,0.0,0.0,0.0,0.0,0.0,0.0,0.0,0.0,0.0,0.0,0.0,0.0,0.0,0.0,0.0,0.0,0.0,0.0,0.0,0.0,0.0,0.0,0.0,0.0,0.0,0.0,0.0,0.0,0.0,0.0,0.0,0.0,0.0,0.0,0.0,0.0,0.0,0.0,0.0,0.0,0.0,0.0,0.0,0.0,0.0,0.0,0.0,0.0,0.0,0.0,0.0,0.0,0.0,0.0,0.0,0.0,0.0,0.0,0.0,0.0,0.0,0.0,0.0,0.0,0.0,0.0,0.0,0.0,0.0,0.0,0.0,0.0,0.0,0.0,0.0,0.0,0.0,0.0,0.0,0.0,0.0,0.0,0.0,0.0,0.0,0.0,0.0,0.0,0.0,0.0,0.0,0.0,0.0,0.0,0.0,0.0,0.0,0.0,0.0,0.0,0.0,0.0,0.0,0.0,0.0,0.0,0.0,0.0,0.0,0.0,0.0,0.0,0.0,0.0,0.0,0.0,0.0,0.0,0.0,0.0,0.0,0.0,0.0,0.0,0.0,0.0,0.0,0.0,0.0,0.0,0.0,0.0,0.0,0.0,0.0,0.0,0.0,0.0,0.0,0.0,0.0,0.0,0.0,0.0,0.0,0.0,0.0,0.0,0.0,0.0,0.0,0.0,0.0,0.0,0.0,0.0,0.0,0.0,0.0,0.0,0.0,0.0,0.0,0.0,0.0,0.0,0.0,0.0,0.0,0.0,0.0,0.0,0.0,0.0,0.0,0.0,0.0,0.0,0.0,0.0,0.0,0.0,0.0,0.0,0.0,0.0,0.0,0.0,0.0,0.0,0.0,0.0,0.0,0.0,0.0,0.0,0.0,0.0,0.0,0.0,0.0,0.0,0.0,0.0,0.0,0.0,0.0,0.0,0.0,0.0,0.0,0.0,0.0,0.0,0.0,0.0,0.0,0.0,0.0,0.0,0.0,0.0,0.0,0.0,0.0,0.0,0.0,0.0,0.0,0.0,0.0,0.0,0.0,0.0,0.0,0.0,0.0,0.0,0.0,0.0,0.0,0.0,0.0,0.0,0.0,0.0,0.0,0.0,0.0,0.0,0.0,0.0,0.0,0.0,0.0,0.0,0.0,0.0,0.0,0.0,0.0,0.0,0.0,0.0,0.0,0.0,0.0,0.0,0.0,0.0,0.0,0.0,0.0,0.0,0.0,0.0,0.0,0.0,0.0,0.0,0.0,0.0,0.0,0.0,0.0,0.0,0.0,0.0,0.0,0.0,0.0,0.0,0.0,0.0,0.0,0.0,0.0,0.0,0.0,0.0,0.0,0.0,0.0,0.0,0.0,0.0,0.0,0.0,0.0,0.0,0.0,0.0,0.0,0.0,0.0,0.0,0.0,0.0,0.0,0.0,0.0,0.0,0.0,0.0,0.0,0.0,0.0,0.0,0.0,0.0,0.0,0.0,0.0,0.0,0.0,0.0,0.0,0.0,0.0,0.0,0.0,0.0,0.0,0.0,0.0,0.0,0.0,0.0,0.0,0.0,0.0,0.0,0.0,0.0,0.0,0.0,0.0,0.0,0.0,0.0,0.0,0.0,0.0,0.0,0.0,0.0,0.0,0.0,0.0,0.0,0.0,0.0,0.0,0.0,0.0,0.0,0.0,0.0,0.0,0.0,0.0,0.0,0.0,0.0,0.0,0.0,0.0,0.0,0.0,0.0,0.0,0.0,0.0,0.0,0.0,0.0,0.0,0.0,0.0,0.0,0.0,0.0,0.0,0.0,0.0,0.0,0.0,0.0,0.0,0.0,0.0,0.0,0.0,0.0,0.0,0.0,0.0,0.0,0.0,0.0,0.0,0.0,0.0,0.0,0.0,0.0,0.0,0.0,0.0,0.0,0.0,0.0,0.0,0.0,0.0,0.0,0.0,0.0,0.0,0.0,0.0,0.0,0.0,0.0,0.0,0.0,0.0,0.0,0.0,0.0,0.0,0.0,0.0,0.0,0.0,0.0,0.0,0.0,0.0,0.0,0.0,0.0,0.0,0.0,0.0,0.0,0.0,0.0,0.0,0.0,0.0,0.0,0.0,0.0,0.0,0.0,0.0,0.0,0.0,0.0,0.0,0.0,0.0,0.0,0.0,0.0,0.0,0.0,0.0,0.0,0.0,0.0,0.0,0.0,0.0,0.0,0.0,0.0,0.0,0.0,0.0,0.0,0.0,0.0,0.0,0.0,0.0,0.0,0.0,0.0,0.0,0.0,0.0,0.0,0.0,0.0,0.0,0.0,0.0,0.0,0.0,0.0,0.0,0.0,0.0,0.0,0.0,0.0,0.0,0.0,0.0,0.0,0.0,0.0,0.0,0.0,0.0,0.0,0.0,0.0,0.0,0.0,0.0,0.0,0.0,0.0,0.0,0.0,0.0,0.0,0.0,0.0,0.0,0.0,0.0,0.0,0.0,0.0,0.0,0.0,0.0,0.0,0.0,0.0,0.0,0.0,0.0,0.0,0.0,0.0,0.0,0.0,0.0,0.0,0.0,0.0,0.0,0.0,0.0,0.0,0.0,0.0,0.0,0.0,0.0,0.0,0.0,0.0,0.0,0.0,0.0,-2.3477,0.0,0.0,0.0,0.0,0.0,0.0,0.0,0.0,0.0,0.0,0.0,0.0,0.0,0.0,0.0,0.0,0.0,0.0,0.0,0.0,0.0,0.0,0.0,0.0,0.0,0.0,0.0,0.0,0.0,0.0,0.0,0.0,0.0,0.0,0.0,0.0,0.0,0.0,0.0,0.0,0.0,0.0,0.0,0.0,0.0,0.0,0.0,0.0,0.0,0.0,0.0,0.0,0.0,0.0,0.0,0.0,0.0,0.0,0.0,0.0,0.0,0.0,0.0,0.0,0.0,0.0,0.0,0.0,0.0,0.0,0.0,0.0,0.0,0.0,0.0,0.0,0.0,0.0,0.0,0.0,0.0,0.0,0.0,0.0,0.0,0.0,0.0,0.0,0.0,0.0,0.0,0.0,0.0,0.0,0.0,0.0,0.0,0.0,0.0,0.0,0.0,0.0,0.0,0.0,0.0,0.0,0.0,0.0,0.0,0.0,-2.6184,-2.6283,-2.6053,-2.56,-2.4957,0.0,0.0,0.0,0.0,0.0,0.0,0.0,0.0,0.0,0.0,0.0,0.0,0.0,0.0,0.0,0.0,0.0,0.0,0.0,0.0,0.0,0.0,0.0,0.0,0.0,0.0,0.0,0.0,0.0,0.0,0.0,0.0,0.0,0.0,0.0,0.0,0.0,0.0,0.0,0.0,0.0,0.0,0.0,0.0,0.0,0.0,0.0,0.0,0.0,0.0,0.0,0.0,0.0,0.0,0.0,0.0,0.0,0.0,0.0,0.0,0.0,0.0,0.0,0.0,0.0,0.0,0.0,0.0,0.0,0.0,0.0,0.0,0.0,0.0,0.0,0.0,0.0,0.0,0.0,0.0,0.0,0.0,0.0,0.0,0.0,0.0,0.0,0.0,0.0,0.0,0.0,0.0,0.0,0.0,0.0,0.0,0.0,0.0,0.0,0.0,0.0,0.0,0.0,0.0,0.0,0.0,0.0,0.0,0.0,0.0,0.0,0.0,-2.6828,-2.6323,-2.585,0.0,0.0,0.0,0.0,0.0,0.0,0.0,0.0,0.0,0.0,0.0,0.0,0.0,0.0,0.0,0.0,0.0,0.0,0.0,0.0,0.0,0.0,0.0,0.0,0.0,0.0,0.0,0.0,0.0,0.0,0.0,0.0,0.0,0.0,0.0,0.0,0.0,0.0,0.0,0.0,0.0,0.0,0.0,0.0,0.0,0.0,0.0,0.0,0.0,0.0,0.0,0.0,0.0,0.0,0.0,0.0,0.0,0.0,0.0,0.0,0.0,0.0,0.0,0.0,0.0,0.0,0.0,0.0,0.0,0.0,0.0,0.0,0.0,0.0,0.0,0.0,0.0,0.0,0.0,0.0,0.0,0.0,0.0,0.0,0.0,0.0,0.0,0.0,0.0,0.0,0.0,0.0,0.0,0.0,0.0,0.0,0.0,0.0,0.0,0.0,0.0,0.0,0.0,0.0,0.0,0.0,0.0,0.0,0.0,0.0,-2.8167,-2.8167,-2.8147,0.0,-2.5229,0.0,0.0,0.0,0.0,0.0,0.0,0.0,0.0,0.0,0.0,0.0,0.0,0.0,0.0,0.0,0.0,0.0,0.0,0.0,0.0,0.0,0.0,0.0,0.0,0.0,0.0,0.0,0.0,0.0,0.0,0.0,0.0,0.0,0.0,0.0,0.0,0.0,0.0,0.0,0.0,0.0,0.0,0.0,0.0,0.0,0.0,0.0,0.0,0.0,0.0,0.0,0.0,0.0,0.0,0.0,0.0,0.0,0.0,0.0,0.0,0.0,0.0,0.0,0.0,0.0,0.0,0.0,0.0,0.0,0.0,0.0,0.0,0.0,0.0,0.0,0.0,0.0,0.0,0.0,0.0,0.0,0.0,0.0,0.0,0.0,0.0,0.0,0.0,0.0,0.0,0.0,0.0,0.0,0.0,0.0,0.0,0.0,0.0,0.0,0.0,0.0,0.0,0.0,0.0,0.0,0.0,0.0,0.0,0.0,0.0,-2.8303,-2.837,-2.8403,-2.7333,0.0,0.0,0.0,0.0,0.0,0.0,0.0,0.0,0.0,0.0,0.0,0.0,0.0,0.0,0.0,0.0,0.0,0.0,0.0,0.0,0.0,0.0,0.0,0.0,0.0,0.0,0.0,0.0,0.0,0.0,0.0,0.0,0.0,0.0,0.0,0.0,0.0,0.0,0.0,0.0,0.0,0.0,0.0,0.0,0.0,0.0,0.0,0.0,0.0,0.0,0.0,0.0,0.0,0.0,0.0,0.0,0.0,0.0,0.0,0.0,0.0,0.0,0.0,0.0,0.0,0.0,0.0,0.0,0.0,0.0,0.0,0.0,0.0,0.0,0.0,0.0,0.0,0.0,0.0,0.0,0.0,0.0,0.0,0.0,0.0,0.0,0.0,0.0,0.0,0.0,0.0,0.0,0.0,0.0,0.0,0.0,0.0,0.0,0.0,0.0,0.0,0.0,0.0,0.0,0.0,0.0,0.0,0.0,0.0,0.0,-2.8097,-2.8629,-2.8713,-2.8713,-2.7558,-2.5092,0.0,0.0,0.0,0.0,0.0,0.0,0.0,0.0,0.0,0.0,0.0,0.0,0.0,0.0,0.0,0.0,0.0,0.0,0.0,0.0,0.0,0.0,0.0,0.0,0.0,0.0,0.0,0.0,0.0,0.0,0.0,0.0,0.0,0.0,0.0,0.0,0.0,0.0,0.0,0.0,0.0,0.0,0.0,0.0,0.0,0.0,0.0,0.0,0.0,0.0,0.0,0.0,0.0,0.0,0.0,0.0,0.0,0.0,0.0,0.0,0.0,0.0,0.0,0.0,0.0,0.0,0.0,0.0,0.0,0.0,0.0,0.0,0.0,0.0,0.0,0.0,0.0,0.0,0.0,0.0,0.0,0.0,0.0,0.0,0.0,0.0,0.0,0.0,0.0,0.0,0.0,0.0,0.0,0.0,0.0,0.0,0.0,0.0,0.0,0.0,0.0,0.0,0.0,0.0,0.0,0.0,0.0,0.0,0.0,-2.8662,-2.9455,-2.9455,-2.9455,-2.8058,0.0,0.0,0.0,0.0,0.0,0.0,0.0,0.0,0.0,0.0,0.0,0.0,0.0,0.0,0.0,0.0,0.0,0.0,0.0,0.0,0.0,0.0,0.0,0.0,0.0,0.0,0.0,0.0,0.0,0.0,0.0,0.0,0.0,0.0,0.0,0.0,0.0,0.0,0.0,0.0,0.0,0.0,0.0,0.0,0.0,0.0,0.0,0.0,0.0,0.0,0.0,0.0,0.0,0.0,0.0,0.0,0.0,0.0,0.0,0.0,0.0,0.0,0.0,0.0,0.0,0.0,0.0,0.0,0.0,0.0,0.0,0.0,0.0,0.0,0.0,0.0,0.0,0.0,0.0,0.0,0.0,0.0,0.0,0.0,0.0,0.0,0.0,0.0,0.0,0.0,0.0,0.0,0.0,0.0,0.0,0.0,0.0,0.0,0.0,0.0,0.0,0.0,0.0,0.0,0.0,0.0,0.0,0.0,0.0,-2.7887,-2.9472,-3.0265,-3.0248,-2.9782,-2.8299,0.0,0.0,0.0,0.0,0.0,0.0,0.0,0.0,0.0,0.0,0.0,0.0,0.0,0.0,0.0,0.0,0.0,0.0,0.0,0.0,0.0,0.0,0.0,0.0,0.0,0.0,0.0,0.0,0.0,0.0,0.0,0.0,0.0,0.0,0.0,0.0,0.0,0.0,0.0,0.0,0.0,0.0,0.0,0.0,0.0,0.0,0.0,0.0,0.0,0.0,0.0,0.0,0.0,0.0,0.0,0.0,0.0,0.0,0.0,0.0,0.0,0.0,0.0,0.0,0.0,0.0,0.0,0.0,0.0,0.0,0.0,0.0,0.0,0.0,0.0,0.0,0.0,0.0,0.0,0.0,0.0,0.0,0.0,0.0,0.0,0.0,0.0,0.0,0.0,0.0,0.0,0.0,0.0,0.0,0.0,0.0,0.0,0.0,0.0,0.0,0.0,0.0,0.0,0.0,0.0,0.0,0.0,0.0,0.0,-2.8762,0.0,-3.0768,0.0,-3.0024,-2.8503,0.0,0.0,0.0,0.0,0.0,0.0,0.0,0.0,0.0,0.0,0.0,0.0,0.0,0.0,0.0,0.0,0.0,0.0,0.0,0.0,0.0,0.0,0.0,0.0,0.0,0.0,0.0,0.0,0.0,0.0,0.0,0.0,0.0,0.0,0.0,0.0,0.0,0.0,0.0,0.0,0.0,0.0,0.0,0.0,0.0,0.0,0.0,0.0,0.0,0.0,0.0,0.0,0.0,0.0,0.0,0.0,0.0,0.0,0.0,0.0,0.0,0.0,0.0,0.0,0.0,0.0,0.0,0.0,0.0,0.0,0.0,0.0,0.0,0.0,0.0,0.0,0.0,0.0,0.0,0.0,0.0,0.0,0.0,0.0,0.0,0.0,0.0,0.0,0.0,0.0,0.0,0.0,0.0,0.0,0.0,0.0,0.0,0.0,0.0,0.0,0.0,0.0,0.0,0.0,0.0,0.0,0.0,0.0,-2.6723,-2.9706,-3.0576,-3.1011,-3.0941,-3.0245,-2.8734,0.0,0.0,0.0,0.0,0.0,0.0,0.0,0.0,0.0,0.0,0.0,0.0,0.0,0.0,0.0,0.0,0.0,0.0,0.0,0.0,0.0,0.0,0.0,0.0,0.0,0.0,0.0,0.0,0.0,0.0,0.0,0.0,0.0,0.0,0.0,0.0,0.0,0.0,0.0,0.0,0.0,0.0,0.0,0.0,0.0,0.0,0.0,0.0,0.0,0.0,0.0,0.0,0.0,0.0,0.0,0.0,0.0,0.0,0.0,0.0,0.0,0.0,0.0,0.0,0.0,0.0,0.0,0.0,0.0,0.0,0.0,0.0,0.0,0.0,0.0,0.0,0.0,0.0,0.0,0.0,0.0,0.0,0.0,0.0,0.0,0.0,0.0,0.0,0.0,0.0,0.0,0.0,0.0,0.0,0.0,0.0,0.0,0.0,0.0,0.0,0.0,0.0,0.0,0.0,0.0,0.0,0.0,0.0,0.0,-3.1324,-3.209,-3.2473,-3.2438,-3.122,-2.9723,0.0,0.0,0.0,0.0,0.0,0.0,0.0,0.0,0.0,0.0,0.0,0.0,0.0,0.0,0.0,0.0,0.0,0.0,0.0,0.0,0.0,0.0,0.0,0.0,0.0,0.0,0.0,0.0,0.0,0.0,0.0,0.0,0.0,0.0,0.0,0.0,0.0,0.0,0.0,0.0,0.0,0.0,0.0,0.0,0.0,0.0,0.0,0.0,0.0,0.0,0.0,0.0,0.0,0.0,0.0,0.0,0.0,0.0,0.0,0.0,0.0,0.0,0.0,0.0,0.0,0.0,0.0,0.0,0.0,0.0,0.0,0.0,0.0,0.0,0.0,0.0,0.0,0.0,0.0,0.0,0.0,0.0,0.0,0.0,0.0,0.0,0.0,0.0,0.0,0.0,0.0,0.0,0.0,0.0,0.0,0.0,0.0,0.0,0.0,0.0,0.0,0.0,0.0,0.0,0.0,0.0,0.0,0.0,0.0,-3.4368,-3.4651,-3.4738,-3.4793,-3.323,-3.1408,-2.9248,0.0,0.0,0.0,0.0,0.0,0.0,0.0,0.0,0.0,0.0,0.0,0.0,0.0,0.0,0.0,0.0,0.0,0.0,0.0,0.0,0.0,0.0,0.0,0.0,0.0,0.0,0.0,0.0,0.0,0.0,0.0,0.0,0.0,0.0,0.0,0.0,0.0,0.0,0.0,0.0,0.0,0.0,0.0,0.0,0.0,0.0,0.0,0.0,0.0,0.0,0.0,0.0,0.0,0.0,0.0,0.0,0.0,0.0,0.0,0.0,0.0,0.0,0.0,0.0,0.0,0.0,0.0,0.0,0.0,0.0,0.0,0.0,0.0,0.0,0.0,0.0,0.0,0.0,0.0,0.0,0.0,0.0,0.0,0.0,0.0,0.0,0.0,0.0,0.0,0.0,0.0,0.0,0.0,0.0,0.0,0.0,0.0,0.0,0.0,0.0,0.0,0.0,0.0,0.0,0.0,0.0,0.0,0.0,-3.8479,-3.8082,-3.7782,-3.7676,-3.5953,-3.3545,0.0,0.0,0.0,0.0,0.0,0.0,0.0,0.0,0.0,0.0,0.0,0.0,0.0,0.0,0.0,0.0,0.0,0.0,0.0,0.0,0.0,0.0,0.0,0.0,0.0,0.0,0.0,0.0,0.0,0.0,0.0,0.0,0.0,0.0,0.0,0.0,0.0,0.0,0.0,0.0,0.0,0.0,0.0,0.0,0.0,0.0,0.0,0.0,0.0,0.0,0.0,0.0,0.0,0.0,0.0,0.0,0.0,0.0,0.0,0.0,0.0,0.0,0.0,0.0,0.0,0.0,0.0,0.0,0.0,0.0,0.0,0.0,0.0,0.0,0.0,0.0,0.0,0.0,0.0,0.0,0.0,0.0,0.0,0.0,0.0,0.0,0.0,0.0,0.0,0.0,0.0,0.0,0.0,0.0,0.0,0.0,0.0,0.0,0.0,0.0,0.0,0.0,0.0,0.0,0.0,0.0,0.0,0.0,0.0,-4.0121,-4.2047,-4.2396,-4.1096,-3.7696,-3.4925,0.0,0.0,0.0,0.0,0.0,0.0,0.0,0.0,0.0,0.0,0.0,0.0,0.0,0.0,0.0,0.0,0.0,0.0,0.0,0.0,0.0,0.0,0.0,0.0,0.0,0.0,0.0,0.0,0.0,0.0,0.0,0.0,0.0,0.0,0.0,0.0,0.0,0.0,0.0,0.0,0.0,0.0,0.0,0.0,0.0,0.0,0.0,0.0,0.0,0.0,0.0,0.0,0.0,0.0,0.0,0.0,0.0,0.0,0.0,0.0,0.0,0.0,0.0,0.0,0.0,0.0,0.0,0.0,0.0,0.0,0.0,0.0,0.0,0.0,0.0,0.0,0.0,0.0,0.0,0.0,0.0,0.0,0.0,0.0,0.0,0.0,0.0,0.0,0.0,0.0,0.0,0.0,0.0,0.0,0.0,0.0,0.0,0.0,0.0,0.0,0.0,0.0,0.0,0.0,0.0,0.0,0.0,0.0,-3.8214,-4.1274,-4.4468,-4.5809,-4.515,-4.0706,-3.718,0.0,0.0,0.0,0.0,0.0,0.0,0.0,0.0,0.0,0.0,0.0,0.0,0.0,0.0,0.0,0.0,0.0,0.0,0.0,0.0,0.0,0.0,0.0,0.0,0.0,0.0,0.0,0.0,0.0,0.0,0.0,0.0,0.0,0.0,0.0,0.0,0.0,0.0,0.0,0.0,0.0,0.0,0.0,0.0,0.0,0.0,0.0,0.0,0.0,0.0,0.0,0.0,0.0,0.0,0.0,0.0,0.0,0.0,0.0,0.0,0.0,0.0,0.0,0.0,0.0,0.0,0.0,0.0,0.0,0.0,0.0,0.0,0.0,0.0,0.0,0.0,0.0,0.0,0.0,0.0,0.0,0.0,0.0,0.0,0.0,0.0,0.0,0.0,0.0,0.0,0.0,0.0,0.0,0.0,0.0,0.0,0.0,0.0,0.0,0.0,0.0,0.0,0.0,0.0,0.0,0.0,0.0,0.0,-3.9523,-4.2008,-4.5755,-4.8001,-4.8413,-4.3786,-3.9679,0.0,0.0,0.0,0.0,0.0,0.0,0.0,0.0,0.0,0.0,0.0,0.0,0.0,0.0,0.0,0.0,0.0,0.0,0.0,0.0,0.0,0.0,0.0,0.0,0.0,0.0,0.0,0.0,0.0,0.0,0.0,0.0,0.0,0.0,0.0,0.0,0.0,0.0,0.0,0.0,0.0,0.0,0.0,0.0,0.0,0.0,0.0,0.0,0.0,0.0,0.0,0.0,0.0,0.0,0.0,0.0,0.0,0.0,0.0,0.0,0.0,0.0,0.0,0.0,0.0,0.0,0.0,0.0,0.0,0.0,0.0,0.0,0.0,0.0,0.0,0.0,0.0,0.0,0.0,0.0,0.0,0.0,0.0,0.0,0.0,0.0,0.0,0.0,0.0,0.0,0.0,0.0,0.0,0.0,0.0,0.0,0.0,0.0,0.0,0.0,0.0,0.0,0.0,0.0,0.0,0.0,0.0,0.0,-4.0332,-4.2962,-4.6096,-4.7392,-4.6684,-4.301,-4.0121,0.0,0.0,0.0,0.0,0.0,0.0,0.0,0.0,0.0,0.0,0.0,0.0,0.0,0.0,0.0,0.0,0.0,0.0,0.0,0.0,0.0,0.0,0.0,0.0,0.0,0.0,0.0,0.0,0.0,0.0,0.0,0.0,0.0,0.0,0.0,0.0,0.0,0.0,0.0,0.0,0.0,0.0,0.0,0.0,0.0,0.0,0.0,0.0,-2.5378,0.0,0.0,0.0,0.0,0.0,0.0,0.0,0.0,0.0,0.0,0.0,0.0,0.0,0.0,0.0,0.0,0.0,0.0,0.0,0.0,0.0,0.0,0.0,0.0,0.0,0.0,0.0,0.0,0.0,0.0,0.0,0.0,0.0,0.0,0.0,0.0,0.0,0.0,0.0,0.0,0.0,0.0,0.0,0.0,0.0,0.0,0.0,0.0,0.0,0.0,0.0,0.0,0.0,0.0,0.0,0.0,0.0,0.0,0.0,-4.0631,-4.319,-4.5658,-4.666,-4.5993,-4.3142,-4.0629,0.0,0.0,0.0,0.0,0.0,0.0,0.0,0.0,0.0,0.0,0.0,0.0,0.0,0.0,0.0,0.0,0.0,0.0,0.0,0.0,0.0,0.0,0.0,0.0,0.0,0.0,0.0,0.0,0.0,0.0,0.0,0.0,0.0,0.0,0.0,0.0,0.0,0.0,0.0,0.0,0.0,0.0,0.0,0.0,0.0,0.0,0.0,0.0,0.0,0.0,0.0,0.0,0.0,0.0,0.0,0.0,0.0,0.0,0.0,0.0,0.0,0.0,0.0,0.0,0.0,0.0,0.0,0.0,0.0,0.0,0.0,0.0,0.0,0.0,0.0,0.0,0.0,0.0,0.0,0.0,0.0,0.0,0.0,0.0,0.0,0.0,0.0,0.0,0.0,0.0,0.0,0.0,0.0,0.0,0.0,0.0,0.0,0.0,0.0,0.0,0.0,0.0,0.0,0.0,0.0,0.0,0.0,-3.7623,-4.0662,-4.3219,-4.5137,-4.5965,-4.5658,-4.3357,-4.0908,-3.8355,0.0,0.0,0.0,0.0,0.0,0.0,0.0,0.0,0.0,0.0,0.0,0.0,0.0,0.0,0.0,0.0,0.0,0.0,0.0,0.0,0.0,0.0,0.0,0.0,0.0,0.0,0.0,0.0,0.0,0.0,0.0,0.0,0.0,0.0,0.0,0.0,0.0,0.0,-2.3186,-2.4585,0.0,0.0,0.0,0.0,0.0,0.0,0.0,0.0,-3.0372,0.0,0.0,0.0,0.0,0.0,0.0,0.0,0.0,0.0,0.0,0.0,0.0,0.0,0.0,0.0,0.0,0.0,0.0,0.0,0.0,0.0,0.0,0.0,0.0,0.0,0.0,0.0,0.0,0.0,0.0,0.0,0.0,0.0,0.0,0.0,0.0,0.0,0.0,0.0,0.0,0.0,0.0,0.0,0.0,0.0,0.0,0.0,0.0,0.0,0.0,0.0,0.0,0.0,0.0,0.0,0.0,-3.5513,-3.8102,-4.0914,-4.4028,-4.5424,-4.5352,-4.3863,-4.2568,-4.0014,-3.6146,0.0,0.0,0.0,0.0,0.0,0.0,0.0,0.0,0.0,0.0,0.0,0.0,0.0,0.0,0.0,0.0,0.0,0.0,0.0,0.0,0.0,0.0,0.0,0.0,0.0,0.0,0.0,0.0,0.0,0.0,0.0,0.0,0.0,0.0,0.0,0.0,0.0,0.0,0.0,-2.7241,-2.7747,0.0,0.0,0.0,0.0,0.0,0.0,0.0,0.0,-3.3641,0.0,0.0,0.0,0.0,0.0,0.0,0.0,0.0,0.0,0.0,0.0,0.0,0.0,0.0,0.0,0.0,0.0,0.0,0.0,0.0,0.0,0.0,0.0,0.0,0.0,0.0,0.0,0.0,0.0,0.0,0.0,0.0,0.0,0.0,0.0,0.0,0.0,0.0,0.0,0.0,0.0,0.0,0.0,0.0,0.0,0.0,0.0,0.0,0.0,0.0,0.0,0.0,0.0,0.0,0.0,-3.5827,-3.8623,-4.0997,-4.3009,-4.407,-4.397,-4.2736,-4.1138,-3.8713,0.0,0.0,0.0,0.0,0.0,0.0,0.0,0.0,0.0,0.0,0.0,0.0,0.0,0.0,0.0,0.0,0.0,0.0,0.0,0.0,0.0,0.0,0.0,0.0,0.0,0.0,0.0,0.0,0.0,0.0,0.0,0.0,0.0,0.0,0.0,0.0,0.0,0.0,0.0,0.0,-2.9627,-3.0459,-3.267,0.0,0.0,0.0,0.0,0.0,0.0,-3.4951,-3.4693,0.0,0.0,0.0,0.0,0.0,0.0,0.0,0.0,0.0,0.0,0.0,0.0,0.0,0.0,0.0,0.0,0.0,0.0,0.0,0.0,0.0,0.0,0.0,0.0,0.0,0.0,0.0,0.0,0.0,0.0,0.0,0.0,0.0,0.0,0.0,0.0,0.0,0.0,0.0,0.0,0.0,0.0,0.0,0.0,0.0,0.0,0.0,0.0,0.0,0.0,0.0,0.0,0.0,0.0,0.0,-3.5844,-3.883,-4.0875,-4.1854,-4.2567,-4.2589,-4.1816,-3.953,-3.7131,0.0,0.0,0.0,0.0,0.0,0.0,0.0,0.0,0.0,0.0,0.0,0.0,0.0,0.0,0.0,0.0,0.0,0.0,0.0,0.0,0.0,0.0,0.0,0.0,0.0,0.0,0.0,0.0,0.0,0.0,0.0,0.0,0.0,0.0,0.0,0.0,0.0,0.0,0.0,0.0,0.0,-3.2966,-3.5163,-3.5603,0.0,0.0,0.0,0.0,-3.6835,-3.6649,0.0,0.0,0.0,0.0,0.0,0.0,0.0,0.0,0.0,0.0,0.0,0.0,0.0,0.0,0.0,0.0,0.0,0.0,0.0,0.0,0.0,0.0,0.0,0.0,0.0,0.0,0.0,0.0,0.0,0.0,0.0,0.0,0.0,0.0,0.0,0.0,0.0,0.0,0.0,0.0,0.0,0.0,0.0,0.0,0.0,0.0,0.0,0.0,0.0,0.0,0.0,0.0,0.0,0.0,0.0,0.0,-3.5596,-3.828,-4.0338,-4.1655,-4.1971,-4.1707,-4.09,-3.8003,-3.5326,0.0,0.0,0.0,0.0,0.0,0.0,0.0,0.0,0.0,0.0,0.0,0.0,0.0,0.0,0.0,0.0,0.0,0.0,0.0,0.0,0.0,0.0,0.0,0.0,0.0,0.0,0.0,0.0,0.0,0.0,0.0,0.0,0.0,0.0,0.0,0.0,0.0,0.0,0.0,0.0,0.0,-3.387,-3.694,-3.6714,-3.6411,0.0,0.0,-4.0475,-4.0606,-4.1848,0.0,0.0,0.0,0.0,0.0,0.0,0.0,0.0,0.0,0.0,0.0,0.0,0.0,0.0,0.0,0.0,0.0,0.0,0.0,0.0,0.0,0.0,0.0,0.0,0.0,0.0,0.0,0.0,0.0,0.0,0.0,0.0,0.0,0.0,0.0,0.0,0.0,0.0,0.0,0.0,0.0,0.0,0.0,0.0,0.0,0.0,0.0,0.0,0.0,0.0,0.0,0.0,0.0,0.0,0.0,-3.2938,-3.5087,-3.8308,-4.0109,-4.0342,-4.0905,-4.0809,-4.0091,-3.7053,-3.4535,0.0,0.0,0.0,0.0,0.0,0.0,0.0,0.0,0.0,0.0,0.0,0.0,0.0,0.0,0.0,0.0,0.0,0.0,0.0,0.0,0.0,0.0,0.0,0.0,0.0,0.0,0.0,0.0,0.0,0.0,0.0,0.0,0.0,0.0,0.0,0.0,0.0,0.0,0.0,0.0,0.0,0.0,-3.8056,-3.9058,0.0,0.0,0.0,-4.1395,-4.0442,0.0,0.0,0.0,0.0,0.0,0.0,0.0,0.0,0.0,0.0,0.0,0.0,0.0,0.0,0.0,0.0,0.0,0.0,0.0,0.0,0.0,0.0,0.0,0.0,0.0,0.0,0.0,0.0,0.0,0.0,0.0,0.0,0.0,0.0,0.0,0.0,0.0,0.0,0.0,0.0,0.0,0.0,0.0,0.0,0.0,0.0,0.0,0.0,0.0,0.0,0.0,0.0,0.0,0.0,0.0,0.0,0.0,-3.4643,-3.8239,-3.9835,-3.9358,-3.9927,-4.0014,-3.9398,-3.6456,0.0,0.0,0.0,0.0,0.0,0.0,0.0,0.0,0.0,0.0,0.0,0.0,0.0,0.0,0.0,0.0,0.0,0.0,0.0,0.0,0.0,0.0,0.0,0.0,0.0,0.0,0.0,-2.1495,0.0,0.0,0.0,0.0,0.0,0.0,0.0,0.0,0.0,0.0,0.0,0.0,0.0,0.0,-3.8049,-3.8662,-4.0851,-4.1928,0.0,0.0,-4.188,-4.0421,-4.1189,-4.103,0.0,0.0,0.0,0.0,0.0,0.0,0.0,0.0,0.0,0.0,0.0,0.0,0.0,0.0,0.0,0.0,0.0,0.0,0.0,0.0,0.0,0.0,0.0,0.0,0.0,0.0,0.0,0.0,0.0,0.0,0.0,0.0,0.0,0.0,0.0,0.0,0.0,0.0,0.0,0.0,0.0,0.0,0.0,0.0,0.0,0.0,0.0,0.0,0.0,0.0,0.0,0.0,0.0,0.0,0.0,-3.466,-3.7744,-3.9322,-3.9288,-3.9375,-3.9375,-3.9276,-3.634,-3.4016,0.0,0.0,0.0,0.0,0.0,0.0,0.0,0.0,0.0,0.0,0.0,0.0,0.0,0.0,0.0,0.0,0.0,0.0,0.0,0.0,0.0,0.0,0.0,0.0,0.0,0.0,0.0,0.0,0.0,0.0,0.0,0.0,0.0,0.0,0.0,0.0,0.0,0.0,0.0,0.0,0.0,-3.836,-3.8911,-4.1115,-4.233,0.0,0.0,-4.2585,-4.2235,-4.3984,-4.4169,-4.0458,0.0,0.0,0.0,0.0,0.0,0.0,0.0,0.0,0.0,0.0,0.0,0.0,0.0,0.0,0.0,0.0,0.0,0.0,0.0,0.0,0.0,0.0,0.0,0.0,0.0,0.0,0.0,0.0,0.0,0.0,0.0,0.0,0.0,0.0,0.0,0.0,0.0,0.0,0.0,0.0,0.0,0.0,0.0,0.0,0.0,0.0,0.0,0.0,0.0,0.0,0.0,0.0,0.0,-3.3055,-3.4627,-3.7694,-3.9288,-3.9288,-3.9288,-3.9288,-3.9288,-3.634,-3.4182,0.0,0.0,0.0,0.0,0.0,0.0,0.0,0.0,0.0,0.0,0.0,0.0,0.0,0.0,0.0,0.0,0.0,0.0,0.0,0.0,0.0,0.0,0.0,0.0,0.0,0.0,0.0,0.0,-2.6335,-2.658,-2.6005,0.0,0.0,0.0,0.0,0.0,0.0,0.0,0.0,0.0,0.0,-3.8606,-4.0026,-4.15,0.0,0.0,-4.2374,-4.2876,-4.218,-4.3062,-4.2762,-3.9715,-3.785,0.0,0.0,0.0,0.0,0.0,0.0,0.0,0.0,0.0,0.0,0.0,0.0,0.0,0.0,0.0,0.0,0.0,0.0,0.0,0.0,0.0,0.0,0.0,0.0,0.0,0.0,0.0,0.0,0.0,0.0,0.0,0.0,0.0,0.0,0.0,0.0,0.0,0.0,0.0,0.0,0.0,0.0,0.0,0.0,0.0,0.0,0.0,0.0,0.0,0.0,0.0,0.0,-3.2599,-3.4562,-3.7248,-3.8825,-3.9255,-3.9288,-3.9288,-3.9206,-3.634,-3.4477,0.0,0.0,0.0,0.0,0.0,0.0,0.0,0.0,0.0,0.0,0.0,0.0,0.0,0.0,0.0,0.0,0.0,0.0,0.0,0.0,0.0,0.0,0.0,0.0,0.0,0.0,0.0,0.0,-2.7251,-2.7424,-2.6779,0.0,0.0,0.0,0.0,0.0,0.0,0.0,0.0,0.0,0.0,-3.9128,-4.0111,-4.1176,-4.1597,-4.0727,-4.157,-4.2087,-4.1362,-4.1662,-4.1379,-3.9373,0.0,0.0,0.0,0.0,0.0,0.0,0.0,0.0,0.0,0.0,0.0,0.0,0.0,0.0,0.0,0.0,0.0,0.0,0.0,0.0,0.0,0.0,0.0,0.0,0.0,0.0,0.0,0.0,0.0,0.0,-2.1172,0.0,0.0,0.0,0.0,0.0,0.0,0.0,0.0,0.0,0.0,0.0,0.0,0.0,0.0,0.0,0.0,0.0,0.0,0.0,0.0,0.0,0.0,-3.156,-3.4366,-3.6206,-3.7847,-3.9222,-3.9325,-3.9239,-3.9156,-3.6406,-3.4818,-3.4624,0.0,0.0,0.0,0.0,0.0,0.0,0.0,0.0,0.0,0.0,0.0,0.0,0.0,0.0,0.0,0.0,0.0,0.0,0.0,0.0,0.0,0.0,0.0,0.0,0.0,0.0,-2.5826,-2.6335,-2.6756,0.0,0.0,0.0,0.0,0.0,0.0,0.0,0.0,0.0,0.0,-3.7654,-4.0046,-3.8702,-4.0061,-4.0639,-3.9275,-3.9542,-3.9879,-3.9847,-4.0381,-4.058,0.0,0.0,0.0,0.0,0.0,0.0,0.0,0.0,0.0,0.0,0.0,0.0,0.0,0.0,0.0,0.0,0.0,0.0,0.0,0.0,0.0,0.0,0.0,0.0,0.0,0.0,0.0,-2.3896,-2.3609,0.0,0.0,0.0,0.0,0.0,0.0,0.0,0.0,0.0,0.0,0.0,-2.8743,-2.8971,0.0,0.0,0.0,0.0,0.0,0.0,0.0,0.0,0.0,0.0,0.0,0.0,-3.1453,-3.4153,-3.5263,-3.6908,-3.9172,-3.8328,-3.7831,-3.7814,-3.5926,-3.3942,-3.1918,0.0,0.0,0.0,0.0,0.0,0.0,0.0,0.0,0.0,0.0,0.0,0.0,0.0,0.0,0.0,0.0,0.0,0.0,0.0,0.0,0.0,0.0,0.0,0.0,0.0,-2.8339,0.0,0.0,0.0,0.0,0.0,0.0,0.0,0.0,0.0,0.0,0.0,-3.4301,-3.6514,-3.7428,-3.8012,-3.8332,-3.9063,-3.9631,0.0,0.0,0.0,0.0,0.0,0.0,0.0,0.0,0.0,0.0,0.0,0.0,0.0,0.0,-3.6701,-3.4977,-3.5342,-3.5835,-3.5594,0.0,0.0,0.0,0.0,0.0,0.0,0.0,0.0,0.0,0.0,0.0,0.0,0.0,0.0,-2.6359,0.0,-2.4793,0.0,0.0,0.0,0.0,0.0,0.0,0.0,0.0,-2.9848,-3.0774,-3.1207,-3.1222,-3.1207,0.0,-3.0809,-2.9042,0.0,0.0,0.0,0.0,0.0,0.0,0.0,0.0,-3.0829,-3.3382,-3.4121,-3.5566,-3.7796,-3.7204,-3.6721,-3.6385,-3.5167,-3.333,-3.0905,-2.9601,-2.8526,0.0,0.0,0.0,0.0,0.0,0.0,0.0,0.0,0.0,0.0,0.0,0.0,0.0,0.0,0.0,0.0,0.0,0.0,0.0,0.0,0.0,0.0,0.0,-2.8832,0.0,0.0,0.0,0.0,0.0,0.0,0.0,0.0,0.0,-3.3013,-3.4634,-3.6385,-3.8138,-3.8078,-3.7823,-3.7734,0.0,0.0,0.0,0.0,0.0,0.0,0.0,-4.0305,-3.9382,-3.9838,-4.0232,-4.011,-4.0494,-4.0735,-4.0719,0.0,0.0,-3.7847,-3.803,-3.8551,-3.8476,-3.84,-3.84,-3.84,-3.869,-3.9041,0.0,0.0,0.0,0.0,0.0,0.0,0.0,0.0,-2.9937,-2.9847,0.0,-2.7372,0.0,0.0,0.0,0.0,0.0,0.0,0.0,0.0,-3.3937,-3.4835,-3.3773,-3.3728,-3.3743,-3.3668,-3.2566,-3.1641,-3.09,-2.9675,0.0,0.0,0.0,0.0,0.0,0.0,-2.9826,-3.208,-3.283,-3.3846,-3.5395,-3.5998,-3.5887,-3.5056,-3.42,-3.3032,-3.1643,-3.0839,-3.0104,-2.9345,-2.7109,0.0,0.0,0.0,0.0,0.0,0.0,0.0,0.0,0.0,0.0,0.0,0.0,0.0,0.0,0.0,0.0,0.0,0.0,0.0,0.0,-2.7381,0.0,0.0,0.0,0.0,0.0,0.0,0.0,0.0,0.0,0.0,-3.4871,-3.7519,-3.9253,-3.8512,0.0,0.0,0.0,0.0,-3.7382,-3.6527,-3.7057,-3.7635,-3.7686,-3.9235,-4.0673,-4.104,0.0,0.0,-4.3849,-4.2935,-4.2269,-4.2253,-4.3174,-4.3154,-4.0593,-4.021,-4.0242,-4.0039,-4.0181,-4.01,-3.996,-4.0119,-4.023,-3.64,0.0,0.0,0.0,0.0,-3.2545,-3.2333,-3.199,-3.1713,-3.162,-3.1549,-3.0031,0.0,0.0,0.0,0.0,0.0,0.0,-3.1399,-3.2989,-3.3772,-3.4367,-3.5,-3.5,-3.5,-3.4985,-3.461,-3.4132,-3.3472,-3.3096,-3.1005,-2.7394,0.0,0.0,0.0,0.0,-2.9971,-3.2344,-3.2066,-3.3029,-3.5379,-3.4564,-3.3937,-3.3581,-3.2836,-3.2204,-3.1609,-3.1378,-3.0889,-3.0104,-2.8425,0.0,0.0,0.0,0.0,0.0,0.0,0.0,0.0,0.0,0.0,0.0,0.0,0.0,0.0,0.0,0.0,0.0,0.0,0.0,-2.8467,-2.908,-2.9705,0.0,0.0,0.0,0.0,0.0,0.0,0.0,0.0,0.0,-3.8627,-3.8202,-3.8061,0.0,0.0,-3.7582,-3.6828,-3.7441,-3.8191,-3.8686,0.0,0.0,0.0,-4.0685,-4.1594,-4.4019,-4.4138,-4.4108,-4.4601,-4.4738,-4.4763,-4.4732,-4.4994,-4.4962,-4.4313,-4.4006,-4.3889,-4.4006,-4.3866,-4.3725,-4.3655,-4.3497,-4.3254,-3.8707,-3.6688,-3.6235,-3.5465,-3.4635,-3.4635,-3.4438,-3.4129,-3.3767,-3.3667,-3.3704,-3.2228,-3.1751,-3.1905,-3.0818,0.0,0.0,0.0,-3.2691,-3.4495,-3.437,-3.4726,-3.5474,-3.5489,-3.5489,-3.5489,-3.5489,-3.5145,-3.4472,-3.4203,-3.2481,-2.9448,0.0,0.0,-2.9085,-2.9305,-3.0235,-3.1827,-3.1586,-3.2216,-3.382,-3.2944,-3.2531,-3.2701,-3.2176,-3.1866,-3.1797,-3.1961,-3.1731,-3.1086,-2.9796,-2.8371,0.0,0.0,0.0,0.0,0.0,0.0,0.0,0.0,0.0,0.0,0.0,-2.4617,-2.4121,0.0,0.0,0.0,-2.7052,-2.8568,-3.0131,-3.062,0.0,0.0,0.0,0.0,0.0,0.0,0.0,-3.5584,-3.7308,-3.8841,-3.9684,-3.8898,-3.8735,-4.0248,-3.9506,-3.8575,-3.7807,0.0,-3.8929,-3.9417,-3.9873,-4.0462,-4.1516,-4.2073,-4.3167,-4.5416,-4.5196,-4.4795,-4.5207,-4.5611,-4.5807,-4.5807,-4.5807,-4.5713,-4.5444,-4.5236,-4.5185,-4.5583,-4.5337,-4.5018,-4.4945,-4.4549,-4.4148,-3.9731,-3.902,-3.802,-3.6929,-3.5863,-3.5808,-3.6101,-3.643,-3.5814,-3.5769,-3.6058,-3.409,-3.3516,-3.3849,-3.2466,0.0,0.0,-3.3587,-3.4292,-3.5504,-3.5504,-3.5489,-3.5489,-3.5489,-3.5489,-3.5489,-3.5489,-3.5145,-3.4472,-3.3873,-3.2931,-3.1661,-3.1571,-3.1297,-3.0734,-3.0563,-3.0608,-3.0779,-3.1282,-3.1524,-3.1524,-3.146,-3.1689,-3.2204,-3.2067,-3.195,-3.1997,-3.2398,-3.246,-3.2,-3.0959,-2.9713,-2.8243,0.0,0.0,0.0,0.0,0.0,0.0,0.0,0.0,0.0,0.0,0.0,0.0,0.0,0.0,0.0,-2.835,0.0,-3.1933,-3.2204,0.0,0.0,0.0,-3.6161,-3.7922,-3.8054,-3.8157,-3.8522,0.0,0.0,-3.9223,0.0,-4.0692,-4.2282,-4.2093,-4.1211,-3.9432,-3.9489,-3.9696,-3.9328,-4.0364,-4.1283,-4.1882,-4.3319,-4.4739,-4.5491,-4.5776,-4.5713,-4.5665,-4.5776,-4.5792,-4.5807,-4.576,-4.5523,-4.4843,-4.4559,-4.4542,-4.5154,-4.4937,-4.4567,-4.4322,-4.3914,-4.342,-3.947,-3.8541,-3.8718,-3.8068,-3.7028,-3.7028,-3.682,-3.6476,-3.6167,-3.612,-3.6165,-3.552,-3.5273,-3.522,-3.4745,-3.4775,-3.5157,-3.5075,-3.5239,-3.5638,-3.5554,-3.5489,-3.5489,-3.5489,-3.5489,-3.5489,-3.5489,-3.5145,-3.4502,-3.4307,-3.3829,-3.3036,-3.2527,-3.1689,-3.0608,-3.0507,-3.0776,-3.13,-3.145,-3.1467,-3.1539,-3.1985,-3.2016,-3.152,-3.2013,-3.1951,-3.1328,-3.1879,-3.196,-3.1265,-3.0513,-2.9779,-2.9198,-2.7057,0.0,0.0,0.0,0.0,0.0,0.0,0.0,0.0,0.0,-2.6642,-2.7024,0.0,-2.9623,0.0,-3.0863,-3.2736,-3.4668,-3.512,0.0,0.0,-3.7613,-3.8122,-3.8484,-3.9802,-4.0469,-3.9964,-4.0816,-4.1489,-4.1575,-4.2112,-4.2589,-4.2793,-4.1489,-4.0383,-3.9945,-4.0363,-4.0742,-4.0704,-4.1651,-4.2824,-4.3592,-4.4694,-4.5316,-4.4993,-4.5428,-4.5634,-4.508,-4.5444,-4.5807,-4.5776,-4.5333,-4.4938,-4.4733,-4.4252,-4.3968,-4.411,-4.3913,-4.3701,-4.3631,-4.349,-4.3153,-3.9401,-3.8334,-3.8684,-3.8124,-3.6997,-3.7298,-3.7074,-3.6476,-3.6414,-3.6274,-3.6085,-3.5846,-3.5733,-3.5604,-3.5554,-3.5569,-3.5604,-3.5554,-3.5554,-3.5604,-3.5554,-3.5489,-3.5489,-3.5489,-3.534,-3.507,-3.5355,-3.4846,-3.3679,-3.3903,-3.3559,-3.2632,-3.2258,-3.1704,-3.1001,-3.0956,-3.115,-3.1467,-3.1765,-3.1958,-3.1915,-3.2332,-3.2135,-3.145,-3.1741,-3.1443,-3.0449,-3.1271,-3.1287,-3.0418,-3.0237,-2.9927,-2.9344,-2.7784,-2.6593,0.0,0.0,0.0,0.0,0.0,0.0,0.0,0.0,0.0,0.0,0.0,-3.1947,0.0,-3.3572,0.0,-3.6908,-3.7158,-3.7878,-3.942,-3.9802,-4.0272,-4.101,-4.1896,-4.2391,-4.2329,-4.2566,-4.2791,-4.2682,-4.2852,-4.293,-4.2769,-4.1748,-4.1055,-4.1164,-4.1389,-4.1541,-4.1555,-4.2361,-4.3225,-4.4036,-4.4526,-4.4771,-4.4394,-4.4606,-4.4812,-4.4733,-4.5033,-4.5412,-4.5697,-4.5476,-4.497,-4.4401,-4.399,-4.3564,-4.2932,-4.269,-4.2732,-4.3031,-4.2827,-4.2396,-3.9348,-3.8181,-3.8278,-3.7605,-3.6554,-3.7074,-3.7013,-3.6492,-3.6492,-3.6352,-3.6037,-3.5683,-3.5554,-3.5554,-3.5569,-3.5489,-3.5504,-3.5489,-3.5489,-3.5489,-3.5489,-3.5489,-3.5489,-3.5415,-3.5055,-3.4517,-3.4996,-3.4292,-3.2572,-3.3095,-3.2751,-3.1511,-3.1467,-3.1467,-3.1467,-3.1467,-3.1467,-3.1482,-3.2183,-3.2482,-3.2407,-3.2467,-3.2198,-3.1554,-3.1369,-3.0799,-2.9783,-3.0536,-3.0587,-2.9778,-3.0092,-3.0047,-2.9511,-2.8715,-2.795,0.0,-2.707,0.0,0.0,0.0,0.0,0.0,0.0,0.0,0.0,-3.3002,-3.4436,-3.6372,-3.6478,-3.7153,-3.8867,-3.8904,-3.9636,-4.152,-4.1685,-4.2312,-4.3928,-4.3673,-4.3614,-4.4398,-4.3763,-4.3235,-4.3016,-4.282,-4.2688,-4.2394,-4.2091,-4.1864,-4.2018,-4.1951,-4.1874,-4.1961,-4.2391,-4.2952,-4.3631,-4.3794,-4.3769,-4.3658,-4.3769,-4.3895,-4.4306,-4.4591,-4.4922,-4.5476,-4.5586,-4.5175,-4.3943,-4.3674,-4.3121,-4.1952,-4.162,-4.1762,-4.2315,-4.2126,-4.162,-3.9135,-3.7637,-3.8067,-3.7621,-3.6492,-3.66,-3.66,-3.6492,-3.6492,-3.6429,-3.6367,-3.6052,-3.5973,-3.6037,-3.5767,-3.5653,-3.5638,-3.5554,-3.5489,-3.5489,-3.5489,-3.5489,-3.5474,-3.4936,-3.4607,-3.4457,-3.4068,-3.341,-3.2527,-3.2647,-3.2302,-3.1482,-3.1467,-3.1467,-3.1467,0.0,0.0,0.0,-3.2198,-3.2258,-3.1764,-3.2243,-3.2198,-3.1482,-3.0979,0.0,-3.0328,-3.0051,-3.0075,-3.0323,-2.9984,0.0,0.0,0.0,0.0,0.0,0.0,0.0,0.0,0.0,0.0,0.0,-3.3514,-3.3591,-3.3684,-3.5281,-3.6872,-3.8206,-3.9224,-4.0229,-4.132,-4.1715,-4.2144,-4.2895,-4.2955,-4.312,-4.3494,-4.3404,-4.3419,-4.3524,-4.3419,-4.3235,-4.322,-4.3155,-4.2867,-4.2139,-4.1907,-4.1527,-4.0915,-4.115,-4.1265,-4.1302,-4.1816,-4.2683,-4.4069,-4.387,-4.3406,-4.33,-4.3453,-4.3516,-4.3279,-4.4038,-4.4685,-4.4938,-4.4922,-4.467,-4.3848,-4.3263,-4.2568,-4.1731,-4.1146,-4.0988,-4.1636,-4.1683,-4.1588,-3.9751,0.0,-3.8294,-3.7796,0.0,-3.66,-3.6492,-3.6492,-3.6492,-3.6414,-3.6352,-3.61,-3.5958,-3.5943,-3.5752,-3.5638,-3.5604,-3.5554,-3.5489,-3.5474,-3.5145,-3.4996,-3.4981,-3.4292,-3.3814,-3.3514,-3.3514,-3.2976,-3.2093,-3.2347,-3.2183,-3.1467,-3.1467,-3.1467,-3.1467,-3.1467,-3.1467,-3.1467,-3.2183,-3.2362,-3.2063,-3.2647,-3.2527,-3.1569,0.0,0.0,0.0,0.0,0.0,0.0,0.0,0.0,0.0,0.0,0.0,-3.1004,-3.08,-3.1012,-3.1855,-3.2587,-3.354,-3.4868,-3.5955,-3.6369,-3.6005,-3.7748,-3.9284,-4.0,-4.1062,-4.1927,-4.2505,-4.2737,-4.301,-4.325,-4.3344,-4.3344,-4.3344,-4.3344,-4.3344,-4.3299,-4.306,-4.2851,-4.2851,-4.2473,-4.2049,-4.1629,-4.1322,-4.1048,-4.069,-4.0867,-4.114,-4.1308,-4.1592,-4.2052,-4.2764,-4.2841,-4.2584,-4.2414,-4.2489,-4.2663,-4.2695,-4.3248,-4.3895,-4.4448,-4.418,-4.3579,-4.3232,-4.2394,-4.143,-4.0751,-4.0293,-4.0151,-4.0498,-4.0561,-4.0561,-4.0327,-3.9155,-3.8455,-3.7796,-3.7178,-3.6723,-3.6492,-3.6492,0.0,0.0,0.0,-3.6085,-3.5958,-3.58,-3.5752,-3.5638,-3.5554,-3.5519,-3.5489,-3.5474,-3.4921,-3.4607,-3.4505,-3.3799,-3.3155,-3.2557,-3.2946,-3.2602,-3.1511,-3.2078,-3.2078,-3.1526,-3.1467,-3.1467,-3.1467,-3.1467,-3.1467,-3.1497,-3.2063,-3.2347,-3.2347,-3.2871,-3.2632,-3.1482,-3.1362,-3.1135,-3.0702,-3.0567,-3.0881,-3.1659,-3.1805,-3.1908,-3.2028,-3.2206,-3.234,-3.234,-3.2387,-3.2631,-3.3109,-3.4092,-3.5124,-3.6227,-3.7752,-3.8488,-3.8164,-3.9681,-4.086,-4.1336,-4.204,-4.2495,-4.2654,-4.2654,-4.2733,-4.2906,-4.2985,-4.297,-4.297,-4.2985,-4.2925,-4.2925,-4.2491,-4.2192,-4.2177,-4.1605,-4.1111,-4.0946,-4.0749,-4.066,-4.0662,-4.0753,-4.101,-4.1478,-4.1535,-4.1541,-4.1645,-4.1683,-4.1588,-4.1683,-4.1652,-4.181,-4.2315,-4.26,-4.3074,-4.3801,-4.3263,-4.2726,-4.2315,-4.1446,-4.0372,-3.9645,-3.9392,-3.9313,-3.9313,-3.9234,-3.925,-4.0051,-3.9284,-3.8051,-3.7178,-3.6616,-3.6554,-3.6492,-3.6492,-3.6492,-3.6492,-3.6429,-3.6289,-3.6148,-3.6133,-3.5816,-3.5688,-3.5638,-3.5554,-3.5489,0.0,-3.54,-3.504,-3.4457,-3.3799,-3.3155,-3.2497,-3.2033,-3.1719,-3.1497,-3.1571,-3.1556,-3.1482,-3.1467,-3.1467,-3.1467,-3.1467,-3.1467,-3.1467,-3.1556,-3.1616,-3.1674,-3.1764,-3.1676,-3.1467,-3.0971,-3.0911,-3.136,-3.0836,-3.1091,-3.2302,-3.2377,-3.2632,-3.3185,-3.3662,-3.385,-3.388,-3.4258,-3.4735,-3.5341,-3.5592,-3.6325,-3.7738,-3.8557,-3.9151,-3.9489,-3.9784,-4.0288,-4.1077,-4.127,-4.1439,-4.1577,-4.1483,-4.1513,-4.1698,-4.1683,-4.1669,-4.1728,-4.1728,-4.1743,-4.1758,-4.1594,-4.1519,-4.1504,-4.1384,-4.0995,-4.0592,-4.0368,-4.0381,-4.071,-4.0535,-4.0724,-4.1115,-4.1112,-4.1148,-4.1488,-4.1588,-4.1588,-4.1588,-4.1588,-4.162,-4.1794,-4.2252,-4.2489,-4.2157,-4.2331,-4.2094,-4.1193,-4.0783,-4.0135,-3.9455,-3.8965,-3.8665,-3.8634,-3.8315,-3.8267,-4.0164,-3.9682,-3.8083,-3.7238,-3.6952,-3.6662,-3.6492,-3.6492,-3.6492,-3.6492,-3.6492,-3.6414,-3.6274,-3.6085,-3.5958,-3.5767,-3.5604,-3.5489,-3.5489,-3.5444,-3.4741,-3.4262,-3.3873,-3.2916,-3.2273,-3.1973,-3.1631,-3.1467,-3.1467,-3.1467,-3.1467,-3.1467,-3.1467,-3.1467,-3.1467,-3.1467,-3.1467,-3.1467,-3.1467,-3.1467,-3.1482,-3.1884,-3.1898,-3.1482,-3.1539,-3.1734,-3.2048,-3.2108,-3.2572,-3.3544,-3.3948,-3.4277,-3.4577,-3.4797,-3.4897,-3.4912,-3.5115,-3.5347,-3.5629,-3.6312,-3.7168,-3.8191,-3.8805,-3.9223,-3.955,-3.9906,-4.0054,-3.9993,-4.0708,-4.1308,-4.1369,-4.1308,-4.1323,-4.1369,-4.1384,-4.1384,-4.1384,-4.1384,-4.1384,-4.1354,-4.1055,-4.0861,-4.0846,-4.0546,-4.0247,-3.9903,-4.0061,-4.0646,-4.1541,-4.1444,-4.1367,-4.1702,-4.1588,-4.1522,-4.1588,-4.1588,-4.1588,-4.1588,-4.1588,-4.1588,-4.1604,-4.192,-4.1904,-4.162,-4.1336,-4.0751,-4.0024,-3.936,-3.8839,-3.8539,-3.8207,-3.8014,-3.8039,-3.8067,-3.8206,-4.0531,-4.017,-3.8205,-3.7335,-3.7118,-3.6723,-3.6492,-3.6492,-3.6492,-3.6492,-3.6492,-3.6492,-3.6289,-3.5973,-3.5973,-3.5797,-3.5489,-3.5489,-3.5489,-3.5385,-3.4262,-3.3634,-3.3395,-3.2287,-3.1616,-3.1482,-3.1467,-3.1467,-3.1467,-3.1467,-3.1467,-3.1467,-3.1467,-3.1467,-3.1467,-3.1467,-3.1467,-3.1467,-3.1467,-3.1467,-3.1539,-3.2033,-3.2033,-3.1556,-3.2018,-3.2362,-3.2527,-3.3006,-3.3649,-3.4427,-3.4981,-3.534,-3.5489,-3.5489,-3.5489,-3.5489,-3.5489,-3.5504,-3.5499,-3.6567,-3.7494,-3.8068,-3.8639,-3.9101,-3.9367,-3.9888,-3.9906,-3.9387,-4.0204,-4.0891,-4.0876,-4.0891,-4.0935,-4.0935,-4.0935,-4.0876,-4.092,-4.0935,-4.095,-4.0876,-4.0487,-4.0187,-4.0098,-3.9738,-3.9541,-3.9813,-4.0285,-4.1194,-4.2253,-4.2476,-4.2429,-4.2365,-4.2302,-4.2029,-4.1739,-4.1656,-4.1672,-4.1607,-4.1623,-4.1654,-4.1638,-4.1559,-4.1371,-4.1198,-4.0167,-3.9501,-3.9213,-3.8467,-3.7848,-3.7844,-3.7886,-3.7865,-3.8024,-3.8294,-3.8391,-4.107,-4.0237,-3.8309,-3.7172,-3.6616,-3.6554,-3.6492,-3.6492,-3.6492,-3.6492,-3.6492,-3.6274,-3.6163,-3.5973,-3.5831,-3.5653,-3.5489,-3.5489,-3.5489,-3.5385,-3.4741,-3.4068,-3.344,-3.2736,-3.2093,-3.1526,-3.1467,-3.1467,-3.1467,-3.1467,-3.1467,-3.1467,-3.1467,-3.1467,-3.1467,-3.1467,-3.1467,-3.1467,-3.1467,-3.1467,-3.1467,-3.1526,-3.1526,-3.1482,-3.1526,-3.1898,-3.2452,-3.2572,-3.3185,-3.4352,-3.4532,-3.4861,-3.54,-3.5489,-3.5489,-3.5489,-3.5489,-3.5424,-3.5338,-3.6081,-3.6798,-3.7273,-3.8068,-3.8766,-3.9305,-3.9469,-3.9499,-3.9427,-3.9471,-3.9694,-3.9619,-3.9664,-3.9738,-3.9783,-3.9738,-3.9589,-3.9694,-3.9604,-3.9604,-3.9604,-3.9649,-3.9514,-3.9559,-3.9484,-3.9696,-4.0355,-4.0873,-4.1656,-4.2506,-4.3052,-4.3251,-4.2974,-4.2789,-4.2314,-4.19,-4.1853,-4.1949,-4.1709,-4.1658,-4.1722,-4.1756,-4.1294,-4.0722,-4.0491,-3.9697,-3.8858,-3.852,-3.8107,-3.7992,-3.8164,-3.8221,-3.8335,-3.8391,-3.86,-3.8655,-4.0984,-4.0857,-3.8529,-3.7107,-3.6538,-3.6492,-3.6492,-3.6492,-3.6492,-3.6492,-3.6492,-3.6274,-3.6148,-3.5973,-3.5752,-3.5653,-3.5489,-3.5489,-3.528,-3.4861,-3.4203,-3.3544,-3.2901,-3.2243,-3.1721,-3.1497,-3.1467,-3.1467,-3.1467,-3.1467,-3.1467,-3.1467,-3.1467,-3.1467,-3.1467,-3.1467,-3.1467,-3.1467,-3.1467,-3.1467,-3.1467,-3.1467,-3.1467,-3.1467,-3.1467,-3.1586,-3.1943,-3.2302,-3.2766,-3.332,-3.4053,-3.4592,-3.4876,-3.528,-3.5489,-3.5489,-3.5489,-3.5439,-3.5389,-3.6052,-3.6596,-3.6798,-3.7823,-3.8527,-3.8796,-3.9185,-3.9424,-3.9424,-3.9424,-3.9424,-3.9424,-3.9424,-3.9424,-3.9424,-3.9424,-3.9424,-3.9424,-3.9424,-3.9424,-3.9424,-3.9424,-3.9424,-3.9424,-3.9424,-3.9879,-4.0805,-4.1393,-4.1917,-4.2974,-4.3432,-4.3509,-4.3432,-4.3235,-4.2974,-4.2534,-4.2379,-4.2412,-4.2429,-4.2285,-4.2221,-4.1723,-4.1514,-4.0919,-4.0075,-3.9328,-3.8803,-3.8472,-3.8351,-3.8262,-3.8448,-3.86,-3.8655,-3.8655,-3.8876,-3.8985,-4.1087,-4.0828,-3.8528,-3.7107,-3.6507,-3.6492,-3.6492,-3.6492,-3.6492,-3.6492,-3.6492,-3.6274,-3.6085,-3.5973,-3.5816,-3.5653,-3.5489,-3.5489,-3.525,-3.4681,-3.3888,-3.3245,-3.2736,-3.1913,-3.1467,-3.1467,-3.1467,-3.1467,-3.1467,-3.1467,-3.1467,-3.1467,-3.1467,-3.1467,-3.1467,-3.1467,-3.1467,-3.1467,-3.1467,-3.1467,-3.1467,-3.1467,-3.1467,-3.1467,-3.1467,-3.1467,-3.1497,-3.1988,-3.2332,-3.2542,-3.3604,-3.4292,-3.4487,-3.513,-3.5489,-3.5489,-3.5489,-3.5489,-3.5504,-3.5953,-3.6297,-3.6537,-3.7389,-3.7943,-3.8197,-3.8751,-3.911,-3.9125,-3.9305,-3.9424,-3.9424,-3.9424,-3.9424,-3.9424,-3.9424,-3.9424,-3.9424,-3.9424,-3.9424,-3.9424,-3.9424,-3.9481,-3.9696,-3.9753,-4.0285,-4.1525,-4.1852,-4.2173,-4.3295,-4.3568,-4.3585,-4.3645,-4.3568,-4.3498,-4.3232,-4.2932,-4.287,-4.2821,-4.2599,-4.2021,-4.1517,-4.1399,-4.1005,-3.9993,-3.9495,-3.9154,-3.8835,-3.8688,-3.856,-3.8672,-3.8766,-3.8931,-3.8931,-3.9164,-3.9156,-4.1708,-4.0309,-3.8353,-3.7138,-3.6492,-3.6492,-3.6492,-3.6492,-3.6492,-3.6492,-3.6429,-3.6163,-3.6037,-3.5988,-3.5752,-3.5638,-3.5489,-3.5489,-3.5415,-3.516,-3.4068,-3.3469,-3.3365,-3.2094,-3.1467,-3.1467,-3.1467,-3.1467,-3.1467,-3.1467,-3.1467,-3.1467,-3.1467,-3.1467,-3.1467,-3.1467,-3.1467,-3.1467,-3.1467,-3.1467,-3.1467,-3.1467,-3.1467,-3.1467,-3.1467,-3.1467,-3.1482,-3.1511,-3.1854,-3.2482,-3.3155,-3.3814,-3.4427,-3.5115,-3.5489,-3.5489,-3.5489,-3.5489,-3.5504,-3.5564,-3.5818,-3.6357,-3.6611,-3.6866,-3.7434,-3.8063,-3.8452,-3.8452,-3.902,-3.9334,-3.9424,-3.9424,-3.9424,-3.9424,-3.9424,-3.9424,-3.9424,-3.9424,-3.9424,-3.9424,-3.9496,-3.9824,-4.0355,-4.0478,-4.106,-4.2045,-4.2522,-4.2772,-4.3372,-4.3645,-4.3645,-4.3645,-4.3628,-4.3552,-4.3492,-4.3147,-4.2965,-4.2806,-4.2276,-4.1655,-4.126,-4.0874,-4.0394,-3.9916,-3.9266,-3.8956,-3.9122,-3.911,-3.904,-3.904,-3.9094,-3.9218,-3.9152,-3.9255,-3.9172,-4.1215,-3.9194,-3.8469,-3.7507,-3.6522,-3.6492,-3.6492,-3.6492,-3.6492,-3.6492,-3.6429,-3.6163,-3.5988,-3.5973,-3.5733,-3.5554,-3.5489,-3.5489,-3.5055,-3.4262,-3.3709,-3.3051,-3.2228,-3.1719,-3.1467,-3.1467,-3.1467,-3.1467,-3.1467,-3.1467,-3.1467,-3.1467,-3.1467,-3.1467,-3.1467,-3.1467,-3.1467,-3.1467,-3.1467,-3.1467,-3.1467,-3.1467,-3.1467,-3.1467,-3.1467,-3.1467,-3.1467,-3.1467,-3.1601,-3.1825,-3.2497,-3.3155,-3.3873,-3.4906,-3.5489,-3.5489,-3.5489,-3.5489,-3.5489,-3.5489,-3.5594,-3.5848,-3.6267,-3.6537,-3.6881,-3.7404,-3.7928,-3.8317,-3.8571,-3.8916,-3.9334,-3.9424,-3.9424,-3.9424,-3.9424,-3.9424,-3.9424,-3.9424,-3.9424,-3.9496,-3.9753,-4.0409,-4.0925,-4.1127,-4.1525,-4.238,-4.2585,-4.2912,-4.3432,-4.3645,-4.3628,-4.3628,-4.3628,-4.3386,-4.2916,-4.2782,-4.2673,-4.2433,-4.2029,-4.1371,-4.0828,-4.0597,-4.0222,-3.9759,-3.9062,-3.8997,-3.9235,-3.9218,-3.9202,-3.9209,-3.9295,-3.9126,-3.9282,-3.9179,-3.9093,-4.0896,-3.896,-3.8558,-3.7723,-3.6553,-3.6492,-3.6492,-3.6492,-3.6492,-3.6492,-3.6429,-3.6178,-3.5988,-3.5925,-3.5619,-3.5489,-3.5489,-3.5489,-3.4891,-3.3858,-3.3604,-3.2916,-3.1973,-3.1586,-3.1467,-3.1467,-3.1467,-3.1467,-3.1467,-3.1467,-3.1467,-3.1467,-3.1467,-3.1467,-3.1467,-3.1467,-3.1467,-3.1467,-3.1467,-3.1467,-3.1467,-3.1467,-3.1467,-3.1467,-3.1467,-3.1467,-3.1467,-3.1467,-3.1467,-3.1614,-3.2153,-3.2901,-3.3799,-3.4666,-3.528,-3.5474,-3.5489,-3.5489,-3.5489,-3.5489,-3.5504,-3.5519,-3.5908,-3.6178,-3.6222,-3.6746,-3.73,-3.7719,-3.8227,-3.8631,-3.899,-3.9275,-3.9424,-3.9424,-3.9424,-3.9424,-3.9424,-3.9625,-3.9879,-4.0146,-4.0547,-4.1127,-4.1722,-4.1852,-4.219,-4.2851,-4.2896,-4.3174,-4.3492,-4.3628,-4.3479,-4.3254,-4.323,-4.2866,-4.2286,-4.1881,-4.1964,-4.1832,-4.1517,-4.0895,-4.0498,-4.0249,-3.9951,-3.9471,-3.9288,-3.9288,-3.9288,-3.9288,-3.9295,-3.9285,-3.8963,-3.8745,-3.8847,-3.8913,-3.8728,-4.0719,-3.9424,-3.8753,-3.78,-3.6676,-3.6599,-3.6522,-3.6507,-3.6492,-3.6492,-3.6429,-3.6163,-3.5988,-3.591,-3.5683,-3.5489,-3.5489,-3.5489,-3.5115,-3.4367,-3.3844,-3.3185,-3.2422,-3.1884,-3.1526,-3.1467,-3.1467,-3.1467,-3.1467,-3.1467,-3.1467,-3.1467,-3.1467,-3.1467,-3.1467,-3.1467,-3.1467,-3.1467,-3.1467,-3.1467,-3.1467,-3.1467,-3.1467,-3.1467,-3.1467,-3.1467,-3.1467,-3.1467,-3.1467,-3.1526,-3.2108,-3.3095,-3.4038,-3.4472,-3.4801,-3.531,-3.5459,-3.5489,-3.5489,-3.5489,-3.5489,-3.5504,-3.5534,-3.5609,-3.5714,-3.6133,-3.6537,-3.6821,-3.7584,-3.8332,-3.8497,-3.8975,-3.9349,-3.9424,-3.9496,-3.9553,-3.9625,-4.0076,-4.0737,-4.126,-4.1525,-4.1852,-4.238,-4.2585,-4.2834,-4.3295,-4.3492,-4.3492,-4.3568,-4.3645,-4.3313,-4.2816,-4.2667,-4.2469,-4.1657,-4.0928,-4.1044,-4.1077,-4.0696,-4.0216,-4.0067,-3.9868,-3.9669,-3.9288,-3.9288,-3.9288,-3.9288,-3.9309,-3.911,-3.8997,-3.8609,-3.8311,-3.8363,-3.8347,-3.8112,-4.1118,-3.9548,-3.9252,-3.8431,-3.7261,-3.7184,-3.6938,-3.6507,-3.6492,-3.6492,-3.6429,-3.6178,-3.5988,-3.5925,-3.5683,-3.5489,-3.5489,-3.5474,-3.5145,-3.4532,-3.4247,-3.3559,-3.2632,-3.2287,-3.1958,-3.1541,-3.1467,-3.1467,-3.1467,-3.1467,-3.1467,-3.1467,-3.1467,-3.1467,-3.1467,-3.1467,-3.1467,-3.1467,-3.1467,-3.1467,-3.1467,-3.1467,-3.1467,-3.1467,-3.1467,-3.1467,-3.1467,-3.1467,-3.1467,-3.1467,-3.1676,-3.2228,-3.308,-3.3993,-3.4547,-3.4816,-3.5265,-3.5489,-3.5489,-3.5489,-3.5474,-3.5489,-3.5489,-3.5489,-3.5504,-3.5699,-3.6043,-3.6372,-3.6896,-3.736,-3.8212,-3.8556,-3.8886,-3.9349,-3.9809,-4.0161,-4.0285,-4.0805,-4.1459,-4.211,-4.2237,-4.2569,-4.3052,-4.3235,-4.3312,-4.3509,-4.3645,-4.3628,-4.3611,-4.3545,-4.3346,-4.27,-4.2485,-4.1922,-4.0978,-4.0382,-4.0382,-4.0382,-4.0034,-3.9852,-3.9702,-3.9603,-3.9371,-3.9288,-3.9288,-3.9288,-3.9288,-3.9259,-3.9093,-3.8645,-3.8247,-3.8048,-3.7967,-3.775,-3.75,-4.1453,-3.9894,-3.9323,-3.8369,-3.7169,-3.7123,-3.6907,-3.6522,-3.6492,-3.6492,-3.6429,-3.6163,-3.5988,-3.5925,-3.5634,-3.5504,-3.5489,-3.5489,-3.5265,-3.4846,-3.4547,-3.3769,-3.2602,-3.2243,-3.1973,-3.1556,-3.1467,-3.1467,-3.1467,-3.1467,-3.1467,-3.1467,-3.1467,-3.1467,-3.1467,-3.1467,-3.1467,-3.1467,-3.1467,-3.1467,-3.1467,-3.1467,-3.1467,-3.1467,-3.1467,-3.1467,-3.1467,-3.1467,-3.1467,-3.1467,-3.1467,-3.1854,-3.2512,-3.3305,-3.3844,-3.4158,-3.4502,-3.4831,-3.507,-3.51,-3.5265,-3.5429,-3.5489,-3.5489,-3.5504,-3.5489,-3.5744,-3.6028,-3.6372,-3.6806,-3.7509,-3.7913,-3.8227,-3.8601,-3.9716,-4.0622,-4.1142,-4.1656,-4.2173,-4.2772,-4.2974,-4.3174,-4.3432,-4.3645,-4.3645,-4.3645,-4.3628,-4.3429,-4.3346,-4.3181,-4.27,-4.2137,-4.1591,-4.0928,-4.0183,-3.9868,-3.9769,-3.9636,-3.9454,-3.9454,-3.9404,-3.9404,-3.9288,-3.9288,-3.9288,-3.9288,-3.9288,-3.9325,-3.9159,-3.8546,-3.7849,-3.7451,-3.7219,-3.7103,-3.6854,-4.1552,-4.0285,-3.906,-3.7831,-3.6722,-3.6676,-3.6615,-3.6492,-3.6492,-3.6492,-3.6429,-3.6163,-3.5973,-3.591,-3.5634,-3.5489,-3.5489,-3.5489,-3.5474,-3.528,-3.4846,-3.3933,-3.2751,-3.2003,-3.1556,-3.1482,-3.1467,-3.1467,-3.1467,-3.1467,-3.1467,-3.1467,-3.1467,-3.1467,-3.1467,-3.1467,-3.1467,-3.1467,-3.1467,-3.1467,-3.1467,-3.1467,-3.1467,-3.1467,-3.1467,-3.1467,-3.1467,-3.1467,-3.1467,-3.1467,-3.1467,-3.1794,-3.2317,-3.2482,-3.2916,-3.3425,-3.3469,-3.3963,-3.4337,-3.4592,-3.4846,-3.5415,-3.5489,-3.5489,-3.5489,-3.5504,-3.5534,-3.5639,-3.6058,-3.6432,-3.6671,-3.703,-3.7443,-3.7775,-3.9237,-4.0634,-4.2141,-4.2282,-4.2337,-4.2939,-4.336,-4.3512,-4.3287,-4.3363,-4.3446,-4.333,-4.328,-4.2949,-4.2651,-4.2303,-4.1756,-4.1276,-4.0862,-4.0382,-3.9785,-3.9603,-3.952,-3.9454,-3.9288,-3.9288,-3.9288,-3.9288,-3.9288,-3.9288,-3.9288,-3.9288,-3.9272,-3.9309,-3.8841,-3.8096,-3.7433,-3.6804,-3.6522,-3.6489,-3.6406,-3.9787,-3.898,-3.8623,-3.8015,-3.7292,-3.723,-3.6938,-3.6522,-3.6492,-3.6414,-3.6289,-3.61,-3.5894,-3.5767,-3.5619,-3.5489,-3.5489,-3.5489,-3.5489,-3.5474,-3.534,-3.4487,-3.3215,-3.2063,-3.1467,-3.1467,-3.1467,-3.1467,-3.1467,-3.1467,-3.1467,-3.1467,-3.1467,-3.1467,-3.1467,-3.1467,-3.1467,-3.1467,-3.1467,-3.1467,-3.1467,-3.1467,-3.1467,-3.1467,-3.1467,-3.1467,-3.1467,-3.1467,-3.1467,-3.1467,-3.1467,-3.1526,-3.1854,-3.2228,-3.2557,-3.2766,-3.3215,-3.3754,-3.4262,-3.4442,-3.4786,-3.54,-3.5474,-3.5489,-3.5489,-3.5489,-3.5489,-3.5519,-3.5699,-3.5983,-3.6372,-3.6611,-3.7268,-3.8629,-3.8917,-3.9567,-4.0801,-4.1061,-4.1135,-4.1363,-4.2252,-4.2477,-4.2369,-4.2485,-4.2618,-4.2253,-4.2121,-4.2038,-4.1823,-4.1674,-4.1259,-4.0829,-4.0415,-3.9984,-3.9657,-3.9404,-3.9322,-3.9338,-3.9288,-3.9288,-3.9288,-3.9288,-3.9288,-3.9288,-3.9288,-3.9288,-3.9325,-3.9309,-3.851,-3.7665,-3.7201,-3.6655,-3.6274,-3.6108,-3.6092,-3.911,-3.8496,-3.8206,-3.7692,-3.7107,-3.7076,-3.6846,-3.6553,-3.6492,-3.6414,-3.6211,-3.6037,-3.5894,-3.5688,-3.5539,-3.5489,-3.5489,-3.5489,-3.5489,-3.54,-3.4876,-3.4173,-3.329,-3.2168,-3.1467,-3.1467,-3.1467,-3.1467,-3.1467,-3.1467,-3.1467,-3.1467,-3.1467,-3.1467,-3.1467,-3.1467,-3.1467,-3.1467,-3.1467,-3.1467,-3.1467,-3.1467,-3.1467,-3.1467,-3.1467,-3.1467,-3.1467,-3.1467,-3.1467,-3.1467,-3.1467,-3.1467,-3.1497,-3.1869,-3.2108,-3.2123,-3.2482,-3.2946,-3.3559,-3.3888,-3.4382,-3.4966,-3.528,-3.5474,-3.5489,-3.5489,-3.5489,-3.5504,-3.5489,-3.5699,-3.5953,-3.6073,-3.6753,-3.7636,-3.7606,-3.8273,-4.0521,-4.0978,-4.0909,-4.1107,-4.1494,-4.1939,-4.1442,-4.1806,-4.1773,-4.1591,-4.1574,-4.1342,-4.1061,-4.0978,-4.0796,-4.0299,-4.0001,-3.9707,-3.9541,-3.9338,-3.9288,-3.9288,-3.9288,-3.9288,-3.9288,-3.9288,-3.9288,-3.9288,-3.9288,-3.9206,-3.9056,-3.8742,-3.7996,-3.7301,-3.692,-3.6423,-3.5909,-3.5694,-3.5678,-3.8809,-3.8273,-3.7622,-3.7046,-3.6569,-3.6507,-3.6538,-3.6492,-3.6492,-3.6336,-3.6148,-3.6037,-3.5831,-3.5703,-3.5554,-3.5489,-3.5489,-3.5489,-3.5415,-3.5026,-3.4292,-3.3514,-3.3185,-3.2093,-3.1511,-3.1467,-3.1467,-3.1467,-3.1467,-3.1467,-3.1467,-3.1467,-3.1467,-3.1467,-3.1467,-3.1467,-3.1467,-3.1467,-3.1467,-3.1467,-3.1467,-3.1467,-3.1467,-3.1467,-3.1467,-3.1467,-3.1467,-3.1467,-3.1467,-3.1467,-3.1467,-3.1467,-3.1467,-3.1482,-3.1511,-3.1599,-3.1661,-3.193,-3.2542,-3.3275,-3.3829,-3.4502,-3.5175,-3.5489,-3.5489,-3.5489,-3.5489,-3.5489,-3.5489,-3.5534,-3.5564,-3.5549,-3.5934,-3.6572,-3.611,-3.7484,-3.9891,-4.0951,-4.0893,-4.104,-4.1007,-4.118,-4.1226,-4.1259,-4.1243,-4.0696,-4.0713,-4.0547,-4.0332,-4.0249,-4.0017,-3.9636,-3.9454,-3.9371,-3.9305,-3.9288,-3.9288,-3.9288,-3.9288,-3.9288,-3.9288,-3.9288,-3.9288,-3.9255,-3.9056,-3.8791,-3.8477,-3.7996,-3.7384,-3.6854,-3.6406,-3.5777,-3.5214,-3.523,-3.5214,-3.7064,-3.694,-3.6754,-3.6615,-3.6507,-3.6492,-3.6492,-3.6492,-3.6336,-3.6211,-3.6022,-3.5831,-3.5718,-3.5554,-3.5504,-3.5489,-3.5489,-3.5459,-3.525,-3.4592,-3.3903,-3.3185,-3.2691,-3.1854,-3.1511,-3.1467,-3.1467,-3.1467,-3.1467,-3.1467,-3.1467,-3.1467,-3.1467,-3.1467,-3.1467,-3.1467,-3.1467,-3.1467,-3.1467,-3.1467,-3.1467,-3.1467,-3.1467,-3.1467,-3.1467,-3.1467,-3.1467,-3.1467,-3.1467,-3.1467,-3.1467,-3.1467,-3.1467,-3.1467,-3.1467,-3.1467,-3.1539,-3.1824,-3.2467,-3.3095,-3.3769,-3.4367,-3.5055,-3.5489,-3.5489,-3.5489,-3.5489,-3.5489,-3.5489,-3.5489,-3.5489,-3.5489,-3.5774,-3.6107,-3.6222,-3.66,-3.7824,-3.7919,-3.8058,-3.8478,-3.9282,-3.9813,-3.9792,-4.0326,-4.0244,-3.9885,-3.9769,-3.9686,-3.9653,-3.962,-3.9471,-3.9288,-3.9288,-3.9288,-3.9288,-3.9288,-3.9288,-3.9288,-3.9288,-3.9288,-3.9288,-3.9106,-3.904,-3.8907,-3.8742,-3.8394,-3.7914,-3.7516,-3.6936,-3.6423,-3.5909,-3.5495,-3.5114,-3.4982,-3.4899,-3.6785,-3.6492,-3.6492,-3.6492,-3.6492,-3.6492,-3.6414,-3.6352,-3.6274,-3.6085,-3.5879,-3.5767,-3.5653,-3.5489,-3.5489,-3.5489,-3.5489,-3.5474,-3.4951,-3.4158,-3.3589,-3.2976,-3.2153,-3.1749,-3.1467,-3.1467,-3.1467,-3.1467,-3.1467,-3.1467,-3.1467,-3.1467,-3.1467,-3.1467,-3.1467,-3.1467,-3.1467,-3.1467,-3.1467,-3.1467,-3.1467,-3.1467,-3.1467,-3.1467,-3.1467,-3.1467,-3.1467,-3.1467,-3.1467,-3.1467,-3.1467,-3.1467,-3.1467,-3.1467,-3.1467,-3.1467,-3.1482,-3.1659,-3.2153,-3.2931,-3.3634,-3.4008,-3.4921,-3.5355,-3.5489,-3.5489,-3.5489,-3.5489,-3.5489,-3.5489,-3.5489,-3.5489,-3.5733,-3.5846,-3.5973,-3.6133,-3.643,-3.6677,-3.6966,-3.7417,-3.8073,-3.8536,-3.8877,-3.944,-3.966,-3.9483,-3.9537,-3.9471,-3.9454,-3.9421,-3.9388,-3.9288,-3.9288,-3.9288,-3.9288,-3.9288,-3.9288,-3.9288,-3.9288,-3.9288,-3.9288,-3.9007,-3.8709,-3.856,-3.8361,-3.7682,-3.7218,-3.6837,-3.639,-3.576,-3.533,-3.5197,-3.5098,-3.4965,-3.4899,-3.6952,-3.6492,-3.6492,-3.6492,-3.6492,-3.6492,-3.6336,-3.6211,-3.6148,-3.5943,-3.5752,-3.5688,-3.5589,-3.5489,-3.5489,-3.5489,-3.5459,-3.5235,-3.4622,-3.3679,-3.335,-3.2632,-3.1824,-3.1511,-3.1467,-3.1467,-3.1467,-3.1467,-3.1467,-3.1467,-3.1467,-3.1467,-3.1467,-3.1467,-3.1467,-3.1467,-3.1467,-3.1467,-3.1467,-3.1467,-3.1467,-3.1467,-3.1467,-3.1467,-3.1467,-3.1467,-3.1467,-3.1467,-3.1467,-3.1467,-3.1467,-3.1467,-3.1467,-3.1467,-3.1467,-3.1467,-3.1467,-3.1511,-3.1824,-3.2602,-3.3335,-3.3499,-3.4577,-3.5325,-3.5444,-3.5489,-3.5489,-3.5489,-3.5489,-3.5489,-3.5489,-3.5489,-3.5489,-3.5554,-3.5489,-3.5489,-3.5668,-3.6507,-3.6829,-3.7191,-3.7524,-3.7934,-3.8359,-3.8809,-3.8964,-3.9148,-3.9218,-3.9288,-3.9288,-3.9288,-3.9272,-3.9288,-3.9288,-3.9288,-3.9288,-3.9239,-3.9239,-3.9123,-3.9156,-3.9007,-3.8957,-3.8477,-3.8096,-3.8162,-3.7864,-3.7152,-3.6522,-3.6108,-3.5611,-3.5032,-3.4932,-3.4998,-3.4982,-3.4916,-3.4899,-3.66,-3.6492,-3.6492,-3.6492,-3.6492,-3.6352,-3.6274,-3.6148,-3.5943,-3.5752,-3.5688,-3.5589,-3.5554,-3.5489,-3.5489,-3.5489,-3.54,-3.5011,-3.4292,-3.3469,-3.3021,-3.2258,-3.1631,-3.1467,-3.1467,-3.1467,-3.1467,-3.1467,-3.1467,-3.1467,-3.1467,-3.1467,-3.1467,-3.1467,-3.1467,-3.1467,-3.1467,-3.1467,-3.1467,-3.1467,-3.1467,-3.1467,-3.1467,-3.1467,-3.1467,-3.1467,-3.1467,-3.1467,-3.1467,-3.1467,-3.1467,-3.1467,-3.1467,-3.1467,-3.1467,-3.1467,-3.1467,-3.1467,-3.1616,-3.2243,-3.2931,-3.3499,-3.4262,-3.4981,-3.534,-3.5489,-3.5489,-3.5489,-3.5489,-3.5489,-3.5489,-3.5489,-3.5489,-3.5489,-3.5489,-3.5489,-3.5554,-3.5782,-3.6196,-3.6538,-3.7011,-3.7488,-3.7764,-3.8165,-3.8535,-3.8788,-3.9023,-3.9148,-3.9288,-3.9272,-3.9272,-3.9272,-3.9288,-3.9288,-3.9288,-3.9222,-3.9156,-3.8907,-3.8775,-3.8361,-3.8162,-3.7682,-3.745,-3.7466,-3.7135,-3.6456,-3.5893,-3.5462,-3.523,-3.4932,-3.4899,-3.4899,-3.4899,-3.4899,-3.4899,-3.6769,-3.6492,-3.6492,-3.6492,-3.6492,-3.6274,-3.6148,-3.6085,-3.5831,-3.5638,-3.5589,-3.5554,-3.5489,-3.5489,-3.5489,-3.5489,-3.531,-3.4801,-3.4128,-3.3469,-3.2826,-3.2168,-3.1541,-3.1467,-3.1467,-3.1467,-3.1467,-3.1467,-3.1467,-3.1467,-3.1467,-3.1467,-3.1467,-3.1467,-3.1467,-3.1467,-3.1467,-3.1467,-3.1467,-3.1467,-3.1467,-3.1467,-3.1467,-3.1467,-3.1467,-3.1467,-3.1467,-3.1467,-3.1467,-3.1467,-3.1467,-3.1467,-3.1467,-3.1467,-3.1467,-3.1467,-3.1467,-3.1467,-3.1629,-3.2153,-3.2811,-3.3455,-3.4098,-3.4771,-3.528,-3.5489,-3.5504,-3.5504,-3.5489,-3.5489,-3.5489,-3.5489,-3.5489,-3.5489,-3.5489,-3.5489,-3.5489,-3.5489,-3.5733,-3.5958,-3.6196,-3.66,-3.7055,-3.7472,-3.8067,-3.8423,-3.8717,-3.8969,-3.9148,-3.9094,-3.8969,-3.8952,-3.8898,-3.9023,-3.8995,-3.8974,-3.8924,-3.8725,-3.8195,-3.7798,-3.7417,-3.6953,-3.6771,-3.6738,-3.6257,-3.5827,-3.5462,-3.5114,-3.4982,-3.4899,-3.4899,-3.4899,-3.4899,-3.4899,-3.4899,-3.6872,-3.6492,-3.6492,-3.6492,-3.6414,-3.6211,-3.6085,-3.591,-3.5718,-3.5604,-3.5489,-3.5489,-3.5489,-3.5489,-3.5474,-3.5429,-3.5265,-3.4562,-3.3873,-3.3215,-3.2572,-3.1973,-3.1616,-3.1467,-3.1467,-3.1467,-3.1219,-3.1394,-3.1467,-3.1467,-3.1467,-3.1467,-3.1467,-3.1467,-3.1467,-3.1467,-3.1467,-3.1336,-3.1467,-3.1467,-3.1467,-3.1467,-3.1467,-3.1467,-3.1467,-3.1467,-3.1467,-3.1467,-3.1467,-3.1467,-3.1467,-3.1467,-3.1467,-3.1467,-3.1467,-3.1467,-3.1467,-3.1467,-3.1659,-3.1928,-3.2497,-3.314,-3.3873,-3.4547,-3.5115,-3.534,-3.5504,-3.5569,-3.5504,-3.5554,-3.5554,-3.5554,-3.5554,-3.5504,-3.5569,-3.5554,-3.5569,-3.5554,-3.5619,-3.5668,-3.5554,-3.5785,-3.6353,-3.7115,-3.7722,-3.7838,-3.8124,-3.8238,-3.8439,-3.8551,-3.8479,-3.8463,-3.8463,-3.859,-3.8575,-3.852,-3.8507,-3.8444,-3.7649,-3.6936,-3.6605,-3.6257,-3.6125,-3.5976,-3.5827,-3.5429,-3.5081,-3.4899,-3.4899,-3.4899,-3.4899,-3.4899,-3.4899,-3.4899,-3.4899,-3.6451,-3.6492,-3.6492,-3.6414,-3.6211,-3.61,-3.5894,-3.5752,-3.5604,-3.5489,-3.5489,-3.5489,-3.5489,-3.5489,-3.5489,-3.516,-3.4592,-3.3993,-3.338,-3.2751,-3.2078,-3.1646,-3.1497,-3.1467,-3.1467,-3.1467,-3.097,-3.1029,-3.1219,-3.1351,-3.1409,-3.1409,-3.1409,-3.1467,-3.1482,-3.1467,-3.1204,-3.0851,-3.1219,-3.1467,-3.1467,-3.1467,-3.1467,-3.1467,-3.1467,-3.1467,-3.1467,-3.1467,-3.1467,-3.1467,-3.1467,-3.1467,-3.1467,-3.1467,-3.1467,-3.1467,-3.1467,-3.1467,-3.1497,-3.1689,-3.2048,-3.2706,-3.3275,-3.3903,-3.4607,-3.522,-3.5554,-3.5623,-3.5539,-3.5554,-3.5589,-3.5638,-3.5589,-3.5604,-3.5683,-3.5619,-3.5619,-3.5569,-3.5683,-3.5683,-3.5634,-3.5537,-3.5797,-3.6628,-3.737,-3.7488,-3.7546,-3.7589,-3.7838,-3.8124,-3.8084,-3.8067,-3.7842,-3.7939,-3.7665,-3.7693,-3.7702,-3.7791,-3.6916,-3.6059,-3.5926,-3.5661,-3.5298,-3.5149,-3.51,-3.4971,-3.4628,-3.4578,-3.4804,-3.4851,-3.4804,-3.4851,-3.4899,-3.4899,-3.4899,-3.6222,-3.6336,-3.6336,-3.6211,-3.6085,-3.5894,-3.5767,-3.5688,-3.5554,-3.5489,-3.5489,-3.5489,-3.5489,-3.5489,-3.5489,-3.513,-3.4442,-3.3754,-3.314,-3.2482,-3.1825,-3.1467,-3.1467,-3.1467,-3.1467,-3.1336,-3.1219,-3.097,-3.097,-3.0584,-3.051,-3.0911,-3.097,-3.1146,-3.1292,-3.1467,-3.1351,-3.1219,-3.1336,-3.1467,-3.1467,-3.1467,-3.1467,-3.1467,-3.1467,-3.1467,-3.1467,-3.1467,-3.1467,-3.1467,-3.1467,-3.1467,-3.1467,-3.1467,-3.1467,-3.1467,-3.1467,-3.1467,-3.1467,-3.1467,-3.1884,-3.2332,-3.2856,-3.338,-3.4277,-3.507,-3.5504,-3.5539,-3.5554,-3.5554,-3.5619,-3.5604,-3.5554,-3.5554,-3.5668,-3.5619,-3.5554,-3.5634,-3.5634,-3.5634,-3.5683,-3.5631,-3.5558,-3.5995,-3.66,-3.6784,-3.6935,-3.7144,-3.7632,-3.8181,-3.801,-3.7722,-3.7435,-3.7148,-3.6724,-3.651,-3.649,-3.6388,-3.5705,-3.5103,-3.5298,-3.5098,-3.4724,-3.448,-3.448,-3.4365,-3.4168,-3.4366,-3.4691,-3.4756,-3.4707,-3.4756,-3.4787,-3.4883,-3.4899,-3.6151,-3.6133,-3.6148,-3.6085,-3.591,-3.5752,-3.5703,-3.5653,-3.5554,-3.5489,-3.5489,-3.5489,-3.5489,-3.5429,-3.5265,-3.4801,-3.4173,-3.3544,-3.2901,-3.2273,-3.1765,-3.138,-3.1204,-3.1204,-3.1087,-3.1014,-3.0478,-3.0283,-2.9842,-2.9456,-2.9393,-3.0208,-3.0269,-3.045,-3.0837,-3.0911,-3.0777,-3.0763,-3.0598,-3.0658,-3.0837,-3.0911,-3.1043,-3.1087,-3.1146,-3.1146,-3.1409,-3.1278,-3.1219,-3.1467,-3.1467,-3.1467,-3.1467,-3.1467,-3.1467,-3.1467,-3.1467,-3.1467,-3.1467,-3.1569,-3.1824,-3.2183,-3.2766,-3.338,-3.4322,-3.5085,-3.5554,-3.5554,-3.5504,-3.5489,-3.5554,-3.5554,-3.5569,-3.5554,-3.5619,-3.5554,-3.5524,-3.5499,-3.5593,-3.5668,-3.5668,-3.5604,-3.5593,-3.5509,-3.5782,-3.607,-3.6337,-3.6599,-3.6939,-3.7412,-3.7017,-3.6483,-3.6321,-3.6159,-3.6413,-3.592,-3.5696,-3.509,-3.4381,-3.418,-3.4398,-3.4415,-3.4134,-3.4018,-3.4034,-3.4084,-3.4068,-3.4333,-3.4594,-3.4546,-3.4497,-3.4594,-3.4691,-3.4787,-3.4835,-3.6321,-3.6037,-3.6037,-3.5894,-3.5752,-3.5688,-3.5653,-3.5554,-3.5489,-3.5489,-3.5489,-3.5489,-3.5489,-3.5325,-3.4831,-3.4262,-3.3529,-3.2886,-3.2199,-3.1737,-3.1439,-3.1029,-3.0703,-3.051,-3.0254,-2.9766,-2.9594,-2.9156,-2.8661,-2.8468,-2.8712,-2.938,-2.9504,-2.9566,-2.9766,-3.0025,-2.9964,-2.9827,-2.9594,-2.947,-2.9704,-2.9889,-3.0086,-3.0329,-3.0133,-3.0208,-3.1336,-3.0896,-3.0837,-3.1278,-3.1336,-3.1467,-3.1467,-3.1467,-3.1467,-3.1467,-3.1467,-3.1467,-3.1467,-3.1467,-3.1497,-3.1943,-3.2587,-3.3425,-3.4145,-3.4981,-3.5434,-3.5458,-3.5194,-3.5269,-3.5409,-3.5657,-3.5274,-3.5149,-3.5093,-3.5108,-3.5123,-3.5341,-3.5465,-3.5612,-3.5533,-3.5274,-3.5319,-3.5194,-3.513,-3.5404,-3.546,-3.5707,-3.5338,-3.5512,-3.5186,-3.4809,-3.4759,-3.5138,-3.6126,-3.5625,-3.4313,-3.3903,-3.3551,-3.345,-3.3594,-3.3511,-3.385,-3.3799,-3.3917,-3.3917,-3.3968,-3.4018,-3.4068,-3.4234,-3.4349,-3.4546,-3.4643,-3.4756,-3.4804,-3.6211,-3.6085,-3.5894,-3.5718,-3.5604,-3.5638,-3.5638,-3.5489,-3.5489,-3.5489,-3.5489,-3.5489,-3.5265,-3.4876,-3.4607,-3.3873,-3.2915,-3.221,-3.1514,-3.0893,-3.0464,-3.0147,-2.9889,-2.9813,-2.969,-2.9442,-2.9142,-2.8839,-2.8546,-2.8105,-2.796,-2.839,-2.8698,-2.9205,-2.9331,-2.9393,-2.9393,-2.938,-2.9205,-2.9254,-2.9393,-2.9518,-2.9642,-2.9766,-2.9752,-2.969,-3.0133,-3.0011,-3.0329,-3.0718,-3.0896,-3.1161,-3.1482,-3.1467,-3.1467,-3.1467,-3.1467,-3.1467,-3.1467,-3.1467,-3.1467,-3.1689,-3.2362,-3.3066,-3.3576,-3.404,-3.4448,-3.4508,-3.4553,-3.4505,-3.434,-3.4358,-3.4235,-3.431,-3.4385,-3.4508,-3.4568,-3.4783,-3.4904,-3.4946,-3.4778,-3.4535,-3.464,-3.476,-3.4711,-3.4775,-3.4787,-3.4729,-3.4364,-3.406,-3.389,-3.3735,-3.3701,-3.3673,-3.4618,-3.3764,-3.2665,-3.2678,-3.2703,-3.2873,-3.3093,-3.3748,-3.3968,-3.3866,-3.3646,-3.3559,-3.3507,-3.3491,-3.3594,-3.3832,-3.4234,-3.4643,-3.4707,-3.4707,-3.4756,-3.6211,-3.6148,-3.5943,-3.5703,-3.5604,-3.5589,-3.5589,-3.5489,-3.5489,-3.5355,-3.522,-3.5175,-3.4816,-3.4307,-3.3888,-3.3484,-3.2452,-3.163,-3.1037,-3.0473,-2.9964,-2.9456,-2.9268,-2.9142,-2.9016,-2.9002,-2.8889,-2.8532,-2.8157,-2.8157,-2.796,-2.7842,-2.7973,-2.8468,-2.8712,-2.8889,-2.8889,-2.8876,-2.8876,-2.8876,-2.8889,-2.8826,-2.9016,-2.9079,-2.8953,-2.9205,-2.9456,-2.9642,-2.9936,-3.045,-3.0763,-3.1102,-3.1351,-3.1467,-3.1467,-3.1467,-3.1467,-3.1467,-3.1467,-3.1467,-3.1467,-3.1629,-3.2153,-3.2542,-3.2811,-3.3201,-3.3815,-3.3937,-3.3726,-3.3484,-3.3455,-3.3649,-3.377,-3.3844,-3.3814,-3.392,-3.389,-3.3997,-3.407,-3.4175,-3.3993,-3.398,-3.3844,-3.3948,-3.3948,-3.3888,-3.3742,-3.3668,-3.3517,-3.3304,-3.3264,-3.3038,-3.2874,-3.2907,-3.2851,-3.244,-3.2118,-3.2072,-3.212,-3.2398,-3.2749,-3.3351,-3.3455,-3.2911,-3.2765,-3.298,-3.3193,-3.3351,-3.3403,-3.3471,-3.3984,-3.4497,-3.4546,-3.4562,-3.4691,-3.6258,-3.6022,-3.6117,-3.5897,-3.5582,-3.5524,-3.5489,-3.5489,-3.5415,-3.51,-3.4637,-3.4547,-3.4128,-3.3514,-3.3051,-3.2602,-3.2035,-3.1039,-3.0387,-3.0101,-2.9393,-2.9016,-2.8712,-2.8468,-2.8338,-2.7723,-2.7776,-2.7842,-2.7577,-2.7723,-2.7523,-2.7536,-2.7656,-2.7709,-2.7577,-2.759,-2.759,-2.7577,-2.7643,-2.7776,-2.7776,-2.7842,-2.8157,-2.8287,-2.8157,-2.839,-2.8903,-2.9079,-2.9393,-3.0025,-3.0539,-3.0911,-3.1278,-3.1351,-3.1409,-3.1482,-3.1467,-3.1467,-3.1467,-3.1467,-3.1467,-3.1511,-3.2048,-3.2302,-3.2572,-3.2976,-3.323,-3.3171,-3.32,-3.329,-3.338,-3.338,-3.3275,-3.32,-3.314,-3.311,-3.3066,-3.3051,-3.314,-3.332,-3.344,-3.344,-3.3245,-3.314,-3.3125,-3.3021,-3.2796,-3.2676,-3.266,-3.2626,-3.25,-3.244,-3.2234,-3.2191,-3.212,-3.1837,-3.1597,-3.1509,-3.1667,-3.2007,-3.212,-3.2398,-3.2287,-3.191,-3.2327,-3.2911,-3.3087,-3.3245,-3.3033,-3.2873,-3.3729,-3.4201,-3.43,-3.4234,-3.4218,-3.5278,-3.4805,-3.5108,-3.4923,-3.4572,-3.5307,-3.5604,-3.5429,-3.504,-3.4681,-3.4412,-3.4053,-3.3455,-3.2901,-3.2467,-3.1946,-3.1099,-3.0362,-2.9704,-2.9156,-2.8583,-2.8157,-2.7908,-2.7908,-2.7723,-2.759,-2.7469,-2.7469,-2.7523,-2.7469,-2.7469,-2.7469,-2.7469,-2.7469,-2.7523,-2.7469,-2.7523,-2.7523,-2.7536,-2.7536,-2.7469,-2.7536,-2.759,-2.7842,-2.759,-2.7776,-2.8287,-2.8403,-2.8776,-2.9282,-2.9794,-3.0222,-3.0718,-3.0911,-3.1102,-3.1351,-3.1467,-3.1467,-3.1467,-3.1467,-3.1467,-3.1571,-3.1691,-3.1928,-3.1943,-3.2033,-3.2168,-3.2273,-3.2377,-3.2347,-3.2153,-3.2168,-3.2108,-3.2093,-3.2063,-3.2063,-3.2048,-3.2078,-3.2153,-3.2437,-3.2602,-3.2437,-3.2258,-3.2497,-3.2557,-3.2377,-3.2168,-3.2063,-3.2002,-3.1927,-3.182,-3.1805,-3.1702,-3.1599,-3.1467,-3.1467,-3.1467,-3.1524,-3.1625,-3.1853,-3.1853,-3.1868,-3.212,-3.2272,-3.2586,-3.2895,-3.2857,-3.2711,-3.2231,-3.2231,-3.3193,-3.3507,-3.3351,-3.3335,-3.3355,-3.4546,-3.409,-3.4318,-3.415,-3.3893,-3.4841,-3.5244,-3.5011,-3.4442,-3.4023,-3.3647,-3.3106,-3.2404,-3.187,-3.1483,-3.12,-3.0086,-2.9456,-2.9093,-2.8417,-2.7855,-2.7656,-2.7536,-2.7469,-2.7523,-2.7469,-2.7469,-2.7469,-2.7469,-2.7469,-2.7469,-2.7469,-2.7469,-2.7469,-2.7469,-2.7469,-2.7469,-2.7469,-2.7469,-2.7469,-2.7469,-2.7536,-2.7536,-2.7536,-2.7469,-2.7523,-2.759,-2.7723,-2.8039,-2.8468,-2.8967,-2.9456,-3.0269,-3.0777,-3.1029,-3.1409,-3.1467,-3.1467,-3.1467,-3.1467,-3.1467,-3.1482,-3.1467,-3.1467,-3.1467,-3.1601,-3.1571,-3.1629,-3.1467,-3.1554,-3.1569,-3.1467,-3.1482,-3.1497,-3.1497,-3.1599,-3.1614,-3.1616,-3.1646,-3.1928,-3.1958,-3.1689,-3.1482,-3.1764,-3.2033,-3.1794,-3.1511,-3.1467,-3.1467,-3.1467,-3.1467,-3.1467,-3.1467,-3.1467,-3.1467,-3.1467,-3.1467,-3.1467,-3.1582,-3.1739,-3.1754,-3.1754,-3.2216,-3.2516,-3.2312,-3.2272,-3.2327,-3.2176,-3.2023,-3.2176,-3.2695,-3.2765,-3.2453,-3.2586,-3.2826,-3.3999,-3.3759,-3.3728,-3.3638,-3.3514,-3.3978,-3.4322,-3.4367,-3.3754,-3.3125,-3.2452,-3.1863,-3.1224,-3.0534,-2.9931,-2.9623,-2.947,-2.8853,-2.8532,-2.8287,-2.7709,-2.759,-2.7469,-2.7469,-2.7469,-2.7469,-2.7469,-2.7469,-2.7469,-2.7469,-2.7469,-2.7469,-2.7469,-2.7469,-2.7469,-2.7469,-2.7469,-2.7469,-2.7469,-2.7469,-2.7469,-2.7469,-2.7469,-2.7469,-2.7469,-2.7469,-2.7656,-2.7908,-2.817,-2.8725,-2.9407,-2.995,-3.0524,-3.1029,-3.1278,-3.1467,-3.1409,-3.1467,-3.1467,-3.1467,-3.1467,-3.1467,-3.1467,-3.1467,-3.1467,-3.1467,-3.1467,-3.1467,-3.1467,-3.1467,-3.1467,-3.1467,-3.1467,-3.1467,-3.1467,-3.1482,-3.1482,-3.1497,-3.1497,-3.1556,-3.1571,-3.1467,-3.1467,-3.1601,-3.1764,-3.1601,-3.1467,-3.1467,-3.1467,-3.1467,-3.1467,-3.1467,-3.1467,-3.1467,-3.1467,-3.1467,-3.1467,-3.1467,-3.1467,-3.1582,-3.1582,-3.164,-3.1838,-3.1951,-3.1682,-3.164,-3.191,-3.2135,-3.2176,-3.2382,-3.2382,-3.2327,-3.2079,-3.2382,-3.268,-3.294,-3.2417,-3.2839,-3.2646,-3.2153,-3.2317,-3.2886,-3.3619,-3.3095,-3.2391,-3.176,-3.1125,-3.0409,-2.9752,-2.9566,-2.9205,-2.8839,-2.8532,-2.8157,-2.7829,-2.7656,-2.7523,-2.7469,-2.7469,-2.7469,-2.7469,-2.7469,-2.7469,-2.7469,-2.7469,-2.7469,-2.7469,-2.7469,-2.7469,-2.7469,-2.7469,-2.7469,-2.7469,-2.7469,-2.7469,-2.7469,-2.7469,-2.7469,-2.7469,-2.7469,-2.7469,-2.759,-2.7723,-2.7842,-2.8039,-2.8222,-2.8519,-2.9093,-2.9282,-2.9594,-3.0777,-3.1146,-3.1467,-3.1467,-3.1467,-3.1467,-3.1467,-3.1467,-3.1467,-3.1467,-3.1467,-3.1467,-3.1467,-3.1467,-3.1467,-3.1467,-3.1467,-3.1467,-3.1467,-3.1467,-3.1467,-3.1467,-3.1467,-3.1467,-3.1467,-3.1467,-3.1467,-3.1467,-3.1482,-3.1571,-3.1497,-3.1467,-3.1467,-3.1467,-3.1467,-3.1467,-3.1467,-3.1467,-3.1467,-3.1467,-3.1467,-3.1467,-3.1467,-3.1467,-3.1467,-3.1524,-3.1524,-3.1524,-3.1467,-3.1467,-3.1524,-3.1655,-3.1811,-3.1966,-3.1796,-3.1796,-3.1739,-3.1796,-3.2104,-3.2312,-3.1475,-3.1091,-3.1407,-3.1411,-3.1267,-3.142,-3.1901,-3.2242,-3.2154,-3.1738,-3.1047,-3.038,-2.9766,-2.9093,-2.8776,-2.8454,-2.817,-2.8039,-2.7842,-2.7656,-2.7469,-2.7469,-2.7469,-2.7469,-2.7469,-2.7469,-2.7469,-2.7469,-2.7469,-2.7469,-2.7469,-2.7469,-2.7469,-2.7469,-2.7469,-2.7469,-2.7469,-2.7469,-2.7469,-2.7469,-2.7469,-2.7469,-2.7469,-2.7469,-2.7469,-2.7469,-2.7469,-2.7469,-2.7469,-2.759,-2.7656,-2.8039,-2.8597,-2.8776,-2.9093,-3.0147,-3.0329,-3.0777,-3.097,-3.1029,-3.1234,-3.1424,-3.1467,-3.1467,-3.1467,-3.1467,-3.1467,-3.1467,-3.1467,-3.1467,-3.1467,-3.1467,-3.1467,-3.1467,-3.1467,-3.1467,-3.1467,-3.1467,-3.1467,-3.1467,-3.1467,-3.1467,-3.1467,-3.1467,-3.1467,-3.1467,-3.1467,-3.1467,-3.1467,-3.1467,-3.1467,-3.1467,-3.1467,-3.1467,-3.1467,-3.1467,-3.1467,-3.1467,-3.1467,-3.1467,-3.1467,-3.1467,-3.1467,-3.1467,-3.1467,-3.1524,-3.1597,-3.1524,-3.1582,-3.1467,-3.1467,-3.1582,-3.164,-3.1682,-3.1838,-2.9863,-2.987,-2.981,-3.0193,-3.0674,-3.1046,-3.0983,-3.0511,-3.1087,-3.094,-3.0283,-2.9718,-2.9016,-2.8417,-2.8026,-2.7776,-2.7656,-2.7656,-2.7656,-2.7469,-2.7469,-2.7469,-2.7469,-2.7469,-2.7469,-2.7469,-2.7469,-2.7469,-2.7469,-2.7469,-2.7469,-2.7469,-2.7469,-2.7469,-2.7469,-2.7469,-2.7469,-2.7469,-2.7469,-2.7469,-2.7469,-2.7469,-2.7469,-2.7469,-2.7469,-2.7469,-2.7469,-2.7469,-2.7536,-2.7723,-2.7973,-2.8287,-2.8468,-2.8903,-2.9268,-2.958,-2.9827,-3.0072,-3.0524,-3.0718,-3.0911,-3.1161,-3.1424,-3.1351,-3.1336,-3.1467,-3.1467,-3.1467,-3.1467,-3.1467,-3.1467,-3.1467,-3.1467,-3.1467,-3.1467,-3.1467,-3.1467,-3.1467,-3.1467,-3.1467,-3.1467,-3.1467,-3.1467,-3.1467,-3.1467,-3.1467,-3.1467,-3.1467,-3.1467,-3.1467,-3.1467,-3.1467,-3.1467,-3.1467,-3.1467,-3.1467,-3.1467,-3.1467,-3.1467,-3.1467,-3.1467,-3.1467,-3.1467,-3.1467,-3.1467,-3.1467,-3.1524,-3.1467,-3.1467,-3.1467,-3.1467,-3.1467,-3.1467,-3.1452,-3.1582,-2.9993,-2.9825,-2.9687,-2.9793,-2.9997,-3.0038,-2.995,-2.9725,-2.9915,-2.9625,-2.9038,-2.8789,-2.8403,-2.7855,-2.7656,-2.7469,-2.7469,-2.7469,-2.7469,-2.7469,-2.7469,-2.7469,-2.7469,-2.7469,-2.7469,-2.7469,-2.7469,-2.7469,-2.7469,-2.7469,-2.7469,-2.7469,-2.7469,-2.7469,-2.7469,-2.7469,-2.7469,-2.7469,-2.7469,-2.7469,-2.7469,-2.7469,-2.7469,-2.7469,-2.7469,-2.7469,-2.7469,-2.7469,-2.7469,-2.759,-2.7656,-2.7723,-2.7776,-2.8403,-2.8661,-2.8903,-2.947,-2.9718,-2.9964,-3.0283,-3.0584,-3.0524,-3.0703,-3.0911,-3.1102,-3.1336,-3.1467,-3.1467,-3.1467,-3.1467,-3.1467,-3.1467,-3.1467,-3.1467,-3.1467,-3.1467,-3.1467,-3.1467,-3.1467,-3.1467,-3.1467,-3.1467,-3.1467,-3.1467,-3.1467,-3.1467,-3.1467,-3.1467,-3.1467,-3.1467,-3.1467,-3.1467,-3.1467,-3.1467,-3.1467,-3.1467,-3.1467,-3.1467,-3.1467,-3.1467,-3.1467,-3.1467,-3.1467,-3.1467,-3.1467,-3.1467,-3.1467,-3.1452,-3.1452,-3.1405,-3.136,-3.13,-3.1362,-3.1392,-3.1495,-2.9113,-2.9018,-2.9185,-2.9305,-2.9357,-2.9495,-2.9376,-2.9097,-2.9082,-2.8663,-2.8195,-2.8287,-2.817,-2.759,-2.7536,-2.7469,-2.7469,-2.7469,-2.7469,-2.7469,-2.7469,-2.7469,-2.7469,-2.7469,-2.7469,-2.7469,-2.7469,-2.7469,-2.7469,-2.7469,-2.7469,-2.7469,-2.7469,-2.7469,-2.7469,-2.7469,-2.7469,-2.7469,-2.7469,-2.7469,-2.7469,-2.7469,-2.7469,-2.7469,-2.7469,-2.7469,-2.7469,-2.7469,-2.7469,-2.7469,-2.7536,-2.7536,-2.759,-2.7842,-2.8039,-2.8222,-2.8583,-2.9156,-2.9345,-2.9656,-3.0086,-2.995,-3.0329,-3.0658,-3.0837,-3.1087,-3.1467,-3.1467,-3.1467,-3.1467,-3.1467,-3.1467,-3.1467,-3.1467,-3.1467,-3.1467,-3.1467,-3.1467,-3.1467,-3.1467,-3.1467,-3.1467,-3.1467,-3.1467,-3.1467,-3.1467,-3.1467,-3.1467,-3.1467,-3.1467,-3.1467,-3.1467,-3.1467,-3.1467,-3.1467,-3.1467,-3.1467,-3.1467,-3.1467,-3.1467,-3.1467,-3.1467,-3.1467,-3.1467,-3.1467,-3.1467,-3.1452,-3.13,-3.1106,-3.0941,-3.0956,-3.1016,-3.1195,-3.1347,-3.148,-2.8065,-2.8061,-2.8478,-2.8681,-2.8727,-2.9097,-2.8938,-2.8432,-2.8356,-2.8063,-2.7643,-2.8105,-2.796,-2.7643,-2.7469,-2.7469,-2.7469,-2.7469,-2.7469,-2.7469,-2.7469,-2.7469,-2.7469,-2.7469,-2.7469,-2.7469,-2.7469,-2.7469,-2.7469,-2.7469,-2.7469,-2.7469,-2.7469,-2.7469,-2.7469,-2.7469,-2.7469,-2.7469,-2.7469,-2.7469,-2.7469,-2.7469,-2.7469,-2.7469,-2.7469,-2.7469,-2.7469,-2.7469,-2.7469,-2.7469,-2.7469,-2.7469,-2.7469,-2.759,-2.759,-2.7776,-2.8039,-2.8274,-2.8403,-2.8839,-2.9016,-2.9254,-2.9964,-3.0329,-3.045,-3.0703,-3.1087,-3.1336,-3.1336,-3.1467,-3.1467,-3.1467,-3.1467,-3.1467,-3.1467,-3.1467,-3.1467,-3.1467,-3.1467,-3.1467,-3.1467,-3.1467,-3.1467,-3.1467,-3.1467,-3.1467,-3.1467,-3.1467,-3.1467,-3.1467,-3.1467,-3.1467,-3.1467,-3.1467,-3.1467,-3.1467,-3.1467,-3.1467,-3.1467,-3.1467,-3.1467,-3.1467,-3.1467,-3.1452,-3.1452,-3.13,-3.1031,-3.0761,-3.0597,-3.0507,-3.0672,-3.0836,-3.1165,-3.1302,-3.1422,-2.8103,-2.8016,-2.7912,-2.7896,-2.8027,-2.7997,-2.7871,-2.781,-2.7786,-2.7637,-2.7577,-2.759,-2.759,-2.7469,-2.7469,-2.7469,-2.7469,-2.7469,-2.7469,-2.7469,-2.7469,-2.7469,-2.7469,-2.7469,-2.7469,-2.7469,-2.7469,-2.7469,-2.7469,-2.7469,-2.7469,-2.7469,-2.7469,-2.7469,-2.7469,-2.7469,-2.7469,-2.7469,-2.7469,-2.7469,-2.7469,-2.7469,-2.7469,-2.7469,-2.7469,-2.7469,-2.7469,-2.7469,-2.7469,-2.7469,-2.7469,-2.7469,-2.7469,-2.7469,-2.7469,-2.759,-2.7789,-2.7842,-2.8091,-2.8532,-2.8762,-2.8274,-2.8903,-2.9456,-2.958,-2.9704,-3.0147,-3.0718,-3.0896,-3.1336,-3.1409,-3.1467,-3.1467,-3.1467,-3.1467,-3.1467,-3.1467,-3.1467,-3.1467,-3.1467,-3.1467,-3.1467,-3.1467,-3.1467,-3.1467,-3.1467,-3.1467,-3.1467,-3.1467,-3.1467,-3.1467,-3.1467,-3.1467,-3.1467,-3.1467,-3.1467,-3.1467,-3.1467,-3.1467,-3.1467,-3.1467,-3.1467,-3.1437,-3.1315,-3.1031,-3.0746,-3.0492,-3.0193,-3.0238,-3.0208,-3.0432,-3.0672,-3.1031,-3.1345,-3.1407]},{"header":{"parameterUnit":"m.s-1","parameterCategory":1,"la1":31.0,"la2":29.5877,"lo1":-88.7671,"lo2":-86.6584,"dy":0.0162,"dx":0.0185,"nx":115,"ny":88,"refTime":"2024-07-31T12:00:00:Z","depth":0,"parameterNumber":3,"parameterNumberName":"V-component_of_WINDS"},"data":[0.0,0.0,0.0,0.0,0.0,0.0,0.0,0.0,0.0,0.0,0.0,0.0,0.0,0.0,0.0,0.0,0.0,0.0,0.0,0.0,0.0,0.0,0.0,0.0,0.0,0.0,0.0,0.0,0.0,0.0,0.0,0.0,0.0,0.0,0.0,0.0,0.0,0.0,0.0,0.0,0.0,0.0,0.0,0.0,0.0,0.0,0.0,0.0,0.0,0.0,0.0,0.0,0.0,0.0,0.0,0.0,0.0,0.0,0.0,0.0,0.0,0.0,0.0,0.0,0.0,0.0,0.0,0.0,0.0,0.0,0.0,0.0,0.0,0.0,0.0,0.0,0.0,0.0,0.0,0.0,0.0,0.0,0.0,0.0,0.0,0.0,0.0,0.0,0.0,0.0,0.0,0.0,0.0,0.0,0.0,0.0,0.0,0.0,0.0,0.0,0.0,0.0,0.0,0.0,0.0,0.0,0.0,0.0,0.0,0.0,0.0,0.0,0.0,0.0,0.0,0.0,0.0,0.0,0.0,0.0,0.0,0.0,0.0,0.0,0.0,0.0,0.0,0.0,0.0,0.0,0.0,0.0,0.0,0.0,0.0,0.0,0.0,0.0,0.0,0.0,0.0,0.0,0.0,0.0,0.0,0.0,0.0,0.0,0.0,0.0,0.0,0.0,0.0,0.0,0.0,0.0,0.0,0.0,0.0,0.0,0.0,0.0,0.0,0.0,0.0,0.0,0.0,0.0,0.0,0.0,0.0,0.0,0.0,0.0,0.0,0.0,0.0,0.0,0.0,0.0,0.0,0.0,0.0,0.0,0.0,0.0,0.0,0.0,0.0,0.0,0.0,0.0,0.0,0.0,0.0,0.0,0.0,0.0,0.0,0.0,0.0,0.0,0.0,0.0,0.0,0.0,0.0,0.0,0.0,0.0,0.0,0.0,0.0,0.0,0.0,0.0,0.0,0.0,0.0,0.0,0.0,0.0,0.0,0.0,0.0,0.0,0.0,0.0,0.0,0.0,0.0,0.0,0.0,0.0,0.0,0.0,0.0,0.0,0.0,0.0,0.0,0.0,0.0,0.0,0.0,0.0,0.0,0.0,0.0,0.0,0.0,0.0,0.0,0.0,0.0,0.0,0.0,0.0,0.0,0.0,0.0,0.0,0.0,0.0,0.0,0.0,0.0,0.0,0.0,0.0,0.0,0.0,0.0,0.0,0.0,0.0,0.0,0.0,0.0,0.0,0.0,0.0,0.0,0.0,0.0,0.0,0.0,0.0,0.0,0.0,0.0,0.0,0.0,0.0,0.0,0.0,0.0,0.0,0.0,0.0,0.0,0.0,0.0,0.0,0.0,0.0,0.0,0.0,0.0,0.0,0.0,0.0,0.0,0.0,0.0,0.0,0.0,0.0,0.0,0.0,0.0,0.0,0.0,0.0,0.0,0.0,0.0,0.0,0.0,0.0,0.0,0.0,0.0,0.0,0.0,0.0,0.0,0.0,0.0,0.0,0.0,0.0,0.0,0.0,0.0,0.0,0.0,0.0,0.0,0.0,0.0,0.0,0.0,0.0,0.0,0.0,0.0,0.0,0.0,0.0,0.0,0.0,0.0,0.0,0.0,0.0,0.0,0.0,0.0,0.0,0.0,0.0,0.0,0.0,0.0,0.0,0.0,0.0,0.0,0.0,0.0,0.0,0.0,0.0,0.0,0.0,0.0,0.0,0.0,0.0,0.0,0.0,0.0,0.0,0.0,0.0,0.0,0.0,0.0,0.0,0.0,0.0,0.0,0.0,0.0,0.0,0.0,0.0,0.0,0.0,0.0,0.0,0.0,0.0,0.0,0.0,0.0,0.0,0.0,0.0,0.0,0.0,0.0,0.0,0.0,0.0,0.0,0.0,0.0,0.0,0.0,0.0,0.0,0.0,0.0,0.0,0.0,0.0,0.0,0.0,0.0,0.0,0.0,0.0,0.0,0.0,0.0,0.0,0.0,0.0,0.0,0.0,0.0,0.0,0.0,0.0,0.0,0.0,0.0,0.0,0.0,0.0,0.0,0.0,0.0,0.0,0.0,0.0,0.0,0.0,0.0,0.0,0.0,0.0,0.0,0.0,0.0,0.0,0.0,0.0,0.0,0.0,0.0,0.0,0.0,0.0,0.0,0.0,0.0,0.0,0.0,0.0,0.0,0.0,0.0,0.0,0.0,0.0,0.0,0.0,0.0,0.0,0.0,0.0,0.0,0.0,0.0,0.0,0.0,0.0,0.0,0.0,0.0,0.0,0.0,0.0,0.0,0.0,0.0,0.0,0.0,0.0,0.0,0.0,0.0,0.0,0.0,0.0,0.0,0.0,0.0,0.0,0.0,0.0,0.0,0.0,0.0,0.0,0.0,0.0,0.0,0.0,0.0,0.0,0.0,0.0,0.0,0.0,0.0,0.0,0.0,0.0,0.0,0.0,0.0,0.0,0.0,0.0,0.0,0.0,0.0,0.0,0.0,0.0,0.0,0.0,0.0,0.0,0.0,0.0,0.0,0.0,0.0,0.0,0.0,0.0,0.0,0.0,0.0,0.0,0.0,0.0,0.0,0.0,0.0,0.0,0.0,0.0,0.0,0.0,0.0,0.0,0.0,0.0,0.0,0.0,0.0,0.0,0.0,0.0,0.0,0.0,0.0,0.0,0.0,0.0,0.0,0.0,0.0,0.0,0.0,0.0,0.0,0.0,0.0,0.0,0.0,0.0,0.0,0.0,0.0,0.0,0.0,0.0,0.0,0.0,0.0,0.0,0.0,0.0,0.0,0.0,0.0,0.0,0.0,0.0,0.0,0.0,0.0,0.0,0.0,0.0,0.0,0.0,0.0,0.0,0.0,0.0,0.0,0.0,0.0,0.0,0.0,0.0,0.0,0.0,0.0,0.0,0.0,0.0,0.0,0.0,0.0,0.0,0.0,0.0,0.0,0.0,0.0,0.0,0.0,0.0,0.0,0.0,0.0,0.0,0.0,0.0,0.0,0.0,0.0,0.0,0.0,0.0,0.0,0.0,0.0,0.0,0.0,0.0,0.0,0.0,0.0,0.0,0.0,0.0,0.0,0.0,0.0,0.0,0.0,0.0,0.0,0.0,0.0,0.0,0.0,0.0,0.0,0.0,0.0,0.0,0.0,0.0,0.0,0.0,0.0,0.0,0.0,0.0,0.0,0.0,0.0,0.0,0.0,0.0,0.0,0.0,0.0,0.0,0.0,0.0,0.0,0.0,0.0,0.0,0.0,0.0,0.0,0.0,0.0,0.0,0.0,0.0,0.0,0.0,0.0,0.0,0.0,0.0,0.0,0.0,0.0,0.0,0.0,0.0,0.0,0.0,0.0,0.0,0.0,0.0,0.0,0.0,0.0,0.0,0.0,0.0,0.0,0.0,0.0,0.0,0.0,0.0,0.0,0.0,0.0,0.0,0.0,0.0,0.0,0.0,0.0,0.0,0.0,0.0,0.0,0.0,0.0,0.0,0.0,0.0,0.0,0.0,0.0,0.0,0.0,0.0,0.0,0.0,0.0,0.0,0.0,0.0,0.0,0.0,0.0,0.0,0.0,0.0,0.0,0.0,0.0,0.0,0.0,0.0,0.0,0.0,0.0,0.0,0.0,0.0,0.0,0.0,0.0,0.0,0.0,0.0,0.0,0.0,0.0,0.0,0.0,0.0,0.0,0.0,0.0,0.0,0.0,0.0,0.0,0.0,0.0,0.0,0.0,0.0,0.0,0.0,0.0,0.0,0.0,0.0,0.0,0.0,0.0,0.0,0.0,0.0,0.0,0.0,0.0,0.0,0.0,0.0,0.0,0.0,0.0,0.0,0.0,0.0,0.0,0.0,0.0,0.0,0.0,0.0,0.0,0.0,0.0,0.0,0.0,0.0,0.0,0.0,0.0,0.0,0.0,0.0,0.0,0.0,0.0,0.0,0.0,0.0,0.0,0.0,0.0,0.0,0.0,0.0,0.0,0.0,0.0,0.0,0.0,0.0,0.0,0.0,0.0,0.0,0.0,0.0,0.0,0.0,0.0,0.0,0.0,0.0,0.0,0.0,0.0,0.0,0.0,0.0,0.0,0.0,0.0,0.0,0.0,0.0,0.0,0.0,0.0,0.0,0.0,0.0,0.0,0.0,0.0,0.0,0.0,0.0,0.0,0.0,0.0,0.0,0.0,0.0,0.0,0.0,0.0,0.0,0.0,0.0,0.0,0.0,0.0,0.0,0.0,0.0,0.0,0.0,0.0,0.0,0.0,0.0,-1.308,0.0,0.0,0.0,0.0,0.0,0.0,0.0,0.0,0.0,0.0,0.0,0.0,0.0,0.0,0.0,0.0,0.0,0.0,0.0,0.0,0.0,0.0,0.0,0.0,0.0,0.0,0.0,0.0,0.0,0.0,0.0,0.0,0.0,0.0,0.0,0.0,0.0,0.0,0.0,0.0,0.0,0.0,0.0,0.0,0.0,0.0,0.0,0.0,0.0,0.0,0.0,0.0,0.0,0.0,0.0,0.0,0.0,0.0,0.0,0.0,0.0,0.0,0.0,0.0,0.0,0.0,0.0,0.0,0.0,0.0,0.0,0.0,0.0,0.0,0.0,0.0,0.0,0.0,0.0,0.0,0.0,0.0,0.0,0.0,0.0,0.0,0.0,0.0,0.0,0.0,0.0,0.0,0.0,0.0,0.0,0.0,0.0,0.0,0.0,0.0,0.0,0.0,0.0,0.0,0.0,0.0,0.0,0.0,0.0,0.0,-1.5194,-1.5022,-1.4516,-1.4044,-1.3551,0.0,0.0,0.0,0.0,0.0,0.0,0.0,0.0,0.0,0.0,0.0,0.0,0.0,0.0,0.0,0.0,0.0,0.0,0.0,0.0,0.0,0.0,0.0,0.0,0.0,0.0,0.0,0.0,0.0,0.0,0.0,0.0,0.0,0.0,0.0,0.0,0.0,0.0,0.0,0.0,0.0,0.0,0.0,0.0,0.0,0.0,0.0,0.0,0.0,0.0,0.0,0.0,0.0,0.0,0.0,0.0,0.0,0.0,0.0,0.0,0.0,0.0,0.0,0.0,0.0,0.0,0.0,0.0,0.0,0.0,0.0,0.0,0.0,0.0,0.0,0.0,0.0,0.0,0.0,0.0,0.0,0.0,0.0,0.0,0.0,0.0,0.0,0.0,0.0,0.0,0.0,0.0,0.0,0.0,0.0,0.0,0.0,0.0,0.0,0.0,0.0,0.0,0.0,0.0,0.0,0.0,0.0,0.0,0.0,0.0,0.0,0.0,-1.4566,-1.4144,-1.3745,0.0,0.0,0.0,0.0,0.0,0.0,0.0,0.0,0.0,0.0,0.0,0.0,0.0,0.0,0.0,0.0,0.0,0.0,0.0,0.0,0.0,0.0,0.0,0.0,0.0,0.0,0.0,0.0,0.0,0.0,0.0,0.0,0.0,0.0,0.0,0.0,0.0,0.0,0.0,0.0,0.0,0.0,0.0,0.0,0.0,0.0,0.0,0.0,0.0,0.0,0.0,0.0,0.0,0.0,0.0,0.0,0.0,0.0,0.0,0.0,0.0,0.0,0.0,0.0,0.0,0.0,0.0,0.0,0.0,0.0,0.0,0.0,0.0,0.0,0.0,0.0,0.0,0.0,0.0,0.0,0.0,0.0,0.0,0.0,0.0,0.0,0.0,0.0,0.0,0.0,0.0,0.0,0.0,0.0,0.0,0.0,0.0,0.0,0.0,0.0,0.0,0.0,0.0,0.0,0.0,0.0,0.0,0.0,0.0,0.0,-1.5293,-1.5293,-1.5124,0.0,-1.3415,0.0,0.0,0.0,0.0,0.0,0.0,0.0,0.0,0.0,0.0,0.0,0.0,0.0,0.0,0.0,0.0,0.0,0.0,0.0,0.0,0.0,0.0,0.0,0.0,0.0,0.0,0.0,0.0,0.0,0.0,0.0,0.0,0.0,0.0,0.0,0.0,0.0,0.0,0.0,0.0,0.0,0.0,0.0,0.0,0.0,0.0,0.0,0.0,0.0,0.0,0.0,0.0,0.0,0.0,0.0,0.0,0.0,0.0,0.0,0.0,0.0,0.0,0.0,0.0,0.0,0.0,0.0,0.0,0.0,0.0,0.0,0.0,0.0,0.0,0.0,0.0,0.0,0.0,0.0,0.0,0.0,0.0,0.0,0.0,0.0,0.0,0.0,0.0,0.0,0.0,0.0,0.0,0.0,0.0,0.0,0.0,0.0,0.0,0.0,0.0,0.0,0.0,0.0,0.0,0.0,0.0,0.0,0.0,0.0,0.0,-1.5287,-1.5164,-1.5102,-1.4533,0.0,0.0,0.0,0.0,0.0,0.0,0.0,0.0,0.0,0.0,0.0,0.0,0.0,0.0,0.0,0.0,0.0,0.0,0.0,0.0,0.0,0.0,0.0,0.0,0.0,0.0,0.0,0.0,0.0,0.0,0.0,0.0,0.0,0.0,0.0,0.0,0.0,0.0,0.0,0.0,0.0,0.0,0.0,0.0,0.0,0.0,0.0,0.0,0.0,0.0,0.0,0.0,0.0,0.0,0.0,0.0,0.0,0.0,0.0,0.0,0.0,0.0,0.0,0.0,0.0,0.0,0.0,0.0,0.0,0.0,0.0,0.0,0.0,0.0,0.0,0.0,0.0,0.0,0.0,0.0,0.0,0.0,0.0,0.0,0.0,0.0,0.0,0.0,0.0,0.0,0.0,0.0,0.0,0.0,0.0,0.0,0.0,0.0,0.0,0.0,0.0,0.0,0.0,0.0,0.0,0.0,0.0,0.0,0.0,0.0,-1.5176,-1.5383,-1.5267,-1.5267,-1.4653,-1.3341,0.0,0.0,0.0,0.0,0.0,0.0,0.0,0.0,0.0,0.0,0.0,0.0,0.0,0.0,0.0,0.0,0.0,0.0,0.0,0.0,0.0,0.0,0.0,0.0,0.0,0.0,0.0,0.0,0.0,0.0,0.0,0.0,0.0,0.0,0.0,0.0,0.0,0.0,0.0,0.0,0.0,0.0,0.0,0.0,0.0,0.0,0.0,0.0,0.0,0.0,0.0,0.0,0.0,0.0,0.0,0.0,0.0,0.0,0.0,0.0,0.0,0.0,0.0,0.0,0.0,0.0,0.0,0.0,0.0,0.0,0.0,0.0,0.0,0.0,0.0,0.0,0.0,0.0,0.0,0.0,0.0,0.0,0.0,0.0,0.0,0.0,0.0,0.0,0.0,0.0,0.0,0.0,0.0,0.0,0.0,0.0,0.0,0.0,0.0,0.0,0.0,0.0,0.0,0.0,0.0,0.0,0.0,0.0,0.0,-1.532,-1.5661,-1.5661,-1.5661,-1.4919,0.0,0.0,0.0,0.0,0.0,0.0,0.0,0.0,0.0,0.0,0.0,0.0,0.0,0.0,0.0,0.0,0.0,0.0,0.0,0.0,0.0,0.0,0.0,0.0,0.0,0.0,0.0,0.0,0.0,0.0,0.0,0.0,0.0,0.0,0.0,0.0,0.0,0.0,0.0,0.0,0.0,0.0,0.0,0.0,0.0,0.0,0.0,0.0,0.0,0.0,0.0,0.0,0.0,0.0,0.0,0.0,0.0,0.0,0.0,0.0,0.0,0.0,0.0,0.0,0.0,0.0,0.0,0.0,0.0,0.0,0.0,0.0,0.0,0.0,0.0,0.0,0.0,0.0,0.0,0.0,0.0,0.0,0.0,0.0,0.0,0.0,0.0,0.0,0.0,0.0,0.0,0.0,0.0,0.0,0.0,0.0,0.0,0.0,0.0,0.0,0.0,0.0,0.0,0.0,0.0,0.0,0.0,0.0,0.0,-1.4906,-1.567,-1.6092,-1.6083,-1.5835,-1.5047,0.0,0.0,0.0,0.0,0.0,0.0,0.0,0.0,0.0,0.0,0.0,0.0,0.0,0.0,0.0,0.0,0.0,0.0,0.0,0.0,0.0,0.0,0.0,0.0,0.0,0.0,0.0,0.0,0.0,0.0,0.0,0.0,0.0,0.0,0.0,0.0,0.0,0.0,0.0,0.0,0.0,0.0,0.0,0.0,0.0,0.0,0.0,0.0,0.0,0.0,0.0,0.0,0.0,0.0,0.0,0.0,0.0,0.0,0.0,0.0,0.0,0.0,0.0,0.0,0.0,0.0,0.0,0.0,0.0,0.0,0.0,0.0,0.0,0.0,0.0,0.0,0.0,0.0,0.0,0.0,0.0,0.0,0.0,0.0,0.0,0.0,0.0,0.0,0.0,0.0,0.0,0.0,0.0,0.0,0.0,0.0,0.0,0.0,0.0,0.0,0.0,0.0,0.0,0.0,0.0,0.0,0.0,0.0,0.0,-1.5132,0.0,-1.6102,0.0,-1.5713,-1.4996,0.0,0.0,0.0,0.0,0.0,0.0,0.0,0.0,0.0,0.0,0.0,0.0,0.0,0.0,0.0,0.0,0.0,0.0,0.0,0.0,0.0,0.0,0.0,0.0,0.0,0.0,0.0,0.0,0.0,0.0,0.0,0.0,0.0,0.0,0.0,0.0,0.0,0.0,0.0,0.0,0.0,0.0,0.0,0.0,0.0,0.0,0.0,0.0,0.0,0.0,0.0,0.0,0.0,0.0,0.0,0.0,0.0,0.0,0.0,0.0,0.0,0.0,0.0,0.0,0.0,0.0,0.0,0.0,0.0,0.0,0.0,0.0,0.0,0.0,0.0,0.0,0.0,0.0,0.0,0.0,0.0,0.0,0.0,0.0,0.0,0.0,0.0,0.0,0.0,0.0,0.0,0.0,0.0,0.0,0.0,0.0,0.0,0.0,0.0,0.0,0.0,0.0,0.0,0.0,0.0,0.0,0.0,0.0,-1.3763,-1.5136,-1.5579,-1.5801,-1.568,-1.5411,-1.472,0.0,0.0,0.0,0.0,0.0,0.0,0.0,0.0,0.0,0.0,0.0,0.0,0.0,0.0,0.0,0.0,0.0,0.0,0.0,0.0,0.0,0.0,0.0,0.0,0.0,0.0,0.0,0.0,0.0,0.0,0.0,0.0,0.0,0.0,0.0,0.0,0.0,0.0,0.0,0.0,0.0,0.0,0.0,0.0,0.0,0.0,0.0,0.0,0.0,0.0,0.0,0.0,0.0,0.0,0.0,0.0,0.0,0.0,0.0,0.0,0.0,0.0,0.0,0.0,0.0,0.0,0.0,0.0,0.0,0.0,0.0,0.0,0.0,0.0,0.0,0.0,0.0,0.0,0.0,0.0,0.0,0.0,0.0,0.0,0.0,0.0,0.0,0.0,0.0,0.0,0.0,0.0,0.0,0.0,0.0,0.0,0.0,0.0,0.0,0.0,0.0,0.0,0.0,0.0,0.0,0.0,0.0,0.0,0.0,-1.5961,-1.6351,-1.6546,-1.6528,-1.5907,-1.5145,0.0,0.0,0.0,0.0,0.0,0.0,0.0,0.0,0.0,0.0,0.0,0.0,0.0,0.0,0.0,0.0,0.0,0.0,0.0,0.0,0.0,0.0,0.0,0.0,0.0,0.0,0.0,0.0,0.0,0.0,0.0,0.0,0.0,0.0,0.0,0.0,0.0,0.0,0.0,0.0,0.0,0.0,0.0,0.0,0.0,0.0,0.0,0.0,0.0,0.0,0.0,0.0,0.0,0.0,0.0,0.0,0.0,0.0,0.0,0.0,0.0,0.0,0.0,0.0,0.0,0.0,0.0,0.0,0.0,0.0,0.0,0.0,0.0,0.0,0.0,0.0,0.0,0.0,0.0,0.0,0.0,0.0,0.0,0.0,0.0,0.0,0.0,0.0,0.0,0.0,0.0,0.0,0.0,0.0,0.0,0.0,0.0,0.0,0.0,0.0,0.0,0.0,0.0,0.0,0.0,0.0,0.0,0.0,0.0,-1.6949,-1.6994,-1.7037,-1.697,-1.6297,-1.5489,-1.4742,0.0,0.0,0.0,0.0,0.0,0.0,0.0,0.0,0.0,0.0,0.0,0.0,0.0,0.0,0.0,0.0,0.0,0.0,0.0,0.0,0.0,0.0,0.0,0.0,0.0,0.0,0.0,0.0,0.0,0.0,0.0,0.0,0.0,0.0,0.0,0.0,0.0,0.0,0.0,0.0,0.0,0.0,0.0,0.0,0.0,0.0,0.0,0.0,0.0,0.0,0.0,0.0,0.0,0.0,0.0,0.0,0.0,0.0,0.0,0.0,0.0,0.0,0.0,0.0,0.0,0.0,0.0,0.0,0.0,0.0,0.0,0.0,0.0,0.0,0.0,0.0,0.0,0.0,0.0,0.0,0.0,0.0,0.0,0.0,0.0,0.0,0.0,0.0,0.0,0.0,0.0,0.0,0.0,0.0,0.0,0.0,0.0,0.0,0.0,0.0,0.0,0.0,0.0,0.0,0.0,0.0,0.0,0.0,-1.8045,-1.7556,-1.7318,-1.7269,-1.6575,-1.5732,0.0,0.0,0.0,0.0,0.0,0.0,0.0,0.0,0.0,0.0,0.0,0.0,0.0,0.0,0.0,0.0,0.0,0.0,0.0,0.0,0.0,0.0,0.0,0.0,0.0,0.0,0.0,0.0,0.0,0.0,0.0,0.0,0.0,0.0,0.0,0.0,0.0,0.0,0.0,0.0,0.0,0.0,0.0,0.0,0.0,0.0,0.0,0.0,0.0,0.0,0.0,0.0,0.0,0.0,0.0,0.0,0.0,0.0,0.0,0.0,0.0,0.0,0.0,0.0,0.0,0.0,0.0,0.0,0.0,0.0,0.0,0.0,0.0,0.0,0.0,0.0,0.0,0.0,0.0,0.0,0.0,0.0,0.0,0.0,0.0,0.0,0.0,0.0,0.0,0.0,0.0,0.0,0.0,0.0,0.0,0.0,0.0,0.0,0.0,0.0,0.0,0.0,0.0,0.0,0.0,0.0,0.0,0.0,0.0,-1.8496,-1.8501,-1.8434,-1.819,-1.7179,-1.6193,0.0,0.0,0.0,0.0,0.0,0.0,0.0,0.0,0.0,0.0,0.0,0.0,0.0,0.0,0.0,0.0,0.0,0.0,0.0,0.0,0.0,0.0,0.0,0.0,0.0,0.0,0.0,0.0,0.0,0.0,0.0,0.0,0.0,0.0,0.0,0.0,0.0,0.0,0.0,0.0,0.0,0.0,0.0,0.0,0.0,0.0,0.0,0.0,0.0,0.0,0.0,0.0,0.0,0.0,0.0,0.0,0.0,0.0,0.0,0.0,0.0,0.0,0.0,0.0,0.0,0.0,0.0,0.0,0.0,0.0,0.0,0.0,0.0,0.0,0.0,0.0,0.0,0.0,0.0,0.0,0.0,0.0,0.0,0.0,0.0,0.0,0.0,0.0,0.0,0.0,0.0,0.0,0.0,0.0,0.0,0.0,0.0,0.0,0.0,0.0,0.0,0.0,0.0,0.0,0.0,0.0,0.0,0.0,-1.833,-1.9028,-1.9105,-1.9092,-1.9049,-1.7911,-1.6944,0.0,0.0,0.0,0.0,0.0,0.0,0.0,0.0,0.0,0.0,0.0,0.0,0.0,0.0,0.0,0.0,0.0,0.0,0.0,0.0,0.0,0.0,0.0,0.0,0.0,0.0,0.0,0.0,0.0,0.0,0.0,0.0,0.0,0.0,0.0,0.0,0.0,0.0,0.0,0.0,0.0,0.0,0.0,0.0,0.0,0.0,0.0,0.0,0.0,0.0,0.0,0.0,0.0,0.0,0.0,0.0,0.0,0.0,0.0,0.0,0.0,0.0,0.0,0.0,0.0,0.0,0.0,0.0,0.0,0.0,0.0,0.0,0.0,0.0,0.0,0.0,0.0,0.0,0.0,0.0,0.0,0.0,0.0,0.0,0.0,0.0,0.0,0.0,0.0,0.0,0.0,0.0,0.0,0.0,0.0,0.0,0.0,0.0,0.0,0.0,0.0,0.0,0.0,0.0,0.0,0.0,0.0,0.0,-1.8852,-1.9812,-1.9422,-1.9515,-2.0053,-1.8812,-1.777,0.0,0.0,0.0,0.0,0.0,0.0,0.0,0.0,0.0,0.0,0.0,0.0,0.0,0.0,0.0,0.0,0.0,0.0,0.0,0.0,0.0,0.0,0.0,0.0,0.0,0.0,0.0,0.0,0.0,0.0,0.0,0.0,0.0,0.0,0.0,0.0,0.0,0.0,0.0,0.0,0.0,0.0,0.0,0.0,0.0,0.0,0.0,0.0,0.0,0.0,0.0,0.0,0.0,0.0,0.0,0.0,0.0,0.0,0.0,0.0,0.0,0.0,0.0,0.0,0.0,0.0,0.0,0.0,0.0,0.0,0.0,0.0,0.0,0.0,0.0,0.0,0.0,0.0,0.0,0.0,0.0,0.0,0.0,0.0,0.0,0.0,0.0,0.0,0.0,0.0,0.0,0.0,0.0,0.0,0.0,0.0,0.0,0.0,0.0,0.0,0.0,0.0,0.0,0.0,0.0,0.0,0.0,0.0,-1.978,-2.1772,-2.0163,-2.0117,-2.1893,-1.9601,-1.8073,0.0,0.0,0.0,0.0,0.0,0.0,0.0,0.0,0.0,0.0,0.0,0.0,0.0,0.0,0.0,0.0,0.0,0.0,0.0,0.0,0.0,0.0,0.0,0.0,0.0,0.0,0.0,0.0,0.0,0.0,0.0,0.0,0.0,0.0,0.0,0.0,0.0,0.0,0.0,0.0,0.0,0.0,0.0,0.0,0.0,0.0,0.0,0.0,-1.9124,0.0,0.0,0.0,0.0,0.0,0.0,0.0,0.0,0.0,0.0,0.0,0.0,0.0,0.0,0.0,0.0,0.0,0.0,0.0,0.0,0.0,0.0,0.0,0.0,0.0,0.0,0.0,0.0,0.0,0.0,0.0,0.0,0.0,0.0,0.0,0.0,0.0,0.0,0.0,0.0,0.0,0.0,0.0,0.0,0.0,0.0,0.0,0.0,0.0,0.0,0.0,0.0,0.0,0.0,0.0,0.0,0.0,0.0,0.0,-2.0926,-2.2483,-2.1412,-2.1387,-2.2432,-2.0925,-1.9707,0.0,0.0,0.0,0.0,0.0,0.0,0.0,0.0,0.0,0.0,0.0,0.0,0.0,0.0,0.0,0.0,0.0,0.0,0.0,0.0,0.0,0.0,0.0,0.0,0.0,0.0,0.0,0.0,0.0,0.0,0.0,0.0,0.0,0.0,0.0,0.0,0.0,0.0,0.0,0.0,0.0,0.0,0.0,0.0,0.0,0.0,0.0,0.0,0.0,0.0,0.0,0.0,0.0,0.0,0.0,0.0,0.0,0.0,0.0,0.0,0.0,0.0,0.0,0.0,0.0,0.0,0.0,0.0,0.0,0.0,0.0,0.0,0.0,0.0,0.0,0.0,0.0,0.0,0.0,0.0,0.0,0.0,0.0,0.0,0.0,0.0,0.0,0.0,0.0,0.0,0.0,0.0,0.0,0.0,0.0,0.0,0.0,0.0,0.0,0.0,0.0,0.0,0.0,0.0,0.0,0.0,0.0,-2.1395,-2.2078,-2.3222,-2.2751,-2.2667,-2.2889,-2.233,-2.1409,-2.018,0.0,0.0,0.0,0.0,0.0,0.0,0.0,0.0,0.0,0.0,0.0,0.0,0.0,0.0,0.0,0.0,0.0,0.0,0.0,0.0,0.0,0.0,0.0,0.0,0.0,0.0,0.0,0.0,0.0,0.0,0.0,0.0,0.0,0.0,0.0,0.0,0.0,0.0,-1.616,-1.7295,0.0,0.0,0.0,0.0,0.0,0.0,0.0,0.0,-2.039,0.0,0.0,0.0,0.0,0.0,0.0,0.0,0.0,0.0,0.0,0.0,0.0,0.0,0.0,0.0,0.0,0.0,0.0,0.0,0.0,0.0,0.0,0.0,0.0,0.0,0.0,0.0,0.0,0.0,0.0,0.0,0.0,0.0,0.0,0.0,0.0,0.0,0.0,0.0,0.0,0.0,0.0,0.0,0.0,0.0,0.0,0.0,0.0,0.0,0.0,0.0,0.0,0.0,0.0,0.0,0.0,-2.2299,-2.1777,-2.2796,-2.542,-2.352,-2.3233,-2.4565,-2.3112,-2.1839,-2.0869,0.0,0.0,0.0,0.0,0.0,0.0,0.0,0.0,0.0,0.0,0.0,0.0,0.0,0.0,0.0,0.0,0.0,0.0,0.0,0.0,0.0,0.0,0.0,0.0,0.0,0.0,0.0,0.0,0.0,0.0,0.0,0.0,0.0,0.0,0.0,0.0,0.0,0.0,0.0,-1.9792,-2.0159,0.0,0.0,0.0,0.0,0.0,0.0,0.0,0.0,-2.1639,0.0,0.0,0.0,0.0,0.0,0.0,0.0,0.0,0.0,0.0,0.0,0.0,0.0,0.0,0.0,0.0,0.0,0.0,0.0,0.0,0.0,0.0,0.0,0.0,0.0,0.0,0.0,0.0,0.0,0.0,0.0,0.0,0.0,0.0,0.0,0.0,0.0,0.0,0.0,0.0,0.0,0.0,0.0,0.0,0.0,0.0,0.0,0.0,0.0,0.0,0.0,0.0,0.0,0.0,0.0,-2.2496,-2.2978,-2.4029,-2.5461,-2.4554,-2.4373,-2.4923,-2.3393,-2.2126,0.0,0.0,0.0,0.0,0.0,0.0,0.0,0.0,0.0,0.0,0.0,0.0,0.0,0.0,0.0,0.0,0.0,0.0,0.0,0.0,0.0,0.0,0.0,0.0,0.0,0.0,0.0,0.0,0.0,0.0,0.0,0.0,0.0,0.0,0.0,0.0,0.0,0.0,0.0,0.0,-2.1724,-2.2538,-2.4507,0.0,0.0,0.0,0.0,0.0,0.0,-2.3134,-2.253,0.0,0.0,0.0,0.0,0.0,0.0,0.0,0.0,0.0,0.0,0.0,0.0,0.0,0.0,0.0,0.0,0.0,0.0,0.0,0.0,0.0,0.0,0.0,0.0,0.0,0.0,0.0,0.0,0.0,0.0,0.0,0.0,0.0,0.0,0.0,0.0,0.0,0.0,0.0,0.0,0.0,0.0,0.0,0.0,0.0,0.0,0.0,0.0,0.0,0.0,0.0,0.0,0.0,0.0,0.0,-2.2616,-2.4029,-2.4804,-2.5148,-2.5325,-2.5212,-2.4754,-2.3401,-2.22,0.0,0.0,0.0,0.0,0.0,0.0,0.0,0.0,0.0,0.0,0.0,0.0,0.0,0.0,0.0,0.0,0.0,0.0,0.0,0.0,0.0,0.0,0.0,0.0,0.0,0.0,0.0,0.0,0.0,0.0,0.0,0.0,0.0,0.0,0.0,0.0,0.0,0.0,0.0,0.0,0.0,-2.4729,-2.6618,-2.6225,0.0,0.0,0.0,0.0,-2.5198,-2.4143,0.0,0.0,0.0,0.0,0.0,0.0,0.0,0.0,0.0,0.0,0.0,0.0,0.0,0.0,0.0,0.0,0.0,0.0,0.0,0.0,0.0,0.0,0.0,0.0,0.0,0.0,0.0,0.0,0.0,0.0,0.0,0.0,0.0,0.0,0.0,0.0,0.0,0.0,0.0,0.0,0.0,0.0,0.0,0.0,0.0,0.0,0.0,0.0,0.0,0.0,0.0,0.0,0.0,0.0,0.0,0.0,-2.2896,-2.3804,-2.4598,-2.5401,-2.5219,-2.4937,-2.4575,-2.3174,-2.186,0.0,0.0,0.0,0.0,0.0,0.0,0.0,0.0,0.0,0.0,0.0,0.0,0.0,0.0,0.0,0.0,0.0,0.0,0.0,0.0,0.0,0.0,0.0,0.0,0.0,0.0,0.0,0.0,0.0,0.0,0.0,0.0,0.0,0.0,0.0,0.0,0.0,0.0,0.0,0.0,0.0,-2.5639,-2.8345,-2.7415,-2.6576,0.0,0.0,-2.6034,-2.6119,-2.6277,0.0,0.0,0.0,0.0,0.0,0.0,0.0,0.0,0.0,0.0,0.0,0.0,0.0,0.0,0.0,0.0,0.0,0.0,0.0,0.0,0.0,0.0,0.0,0.0,0.0,0.0,0.0,0.0,0.0,0.0,0.0,0.0,0.0,0.0,0.0,0.0,0.0,0.0,0.0,0.0,0.0,0.0,0.0,0.0,0.0,0.0,0.0,0.0,0.0,0.0,0.0,0.0,0.0,0.0,0.0,-2.1288,-2.2569,-2.4054,-2.482,-2.4964,-2.4944,-2.4763,-2.4328,-2.2818,-2.158,0.0,0.0,0.0,0.0,0.0,0.0,0.0,0.0,0.0,0.0,0.0,0.0,0.0,0.0,0.0,0.0,0.0,0.0,0.0,0.0,0.0,0.0,0.0,0.0,0.0,0.0,0.0,0.0,0.0,0.0,0.0,0.0,0.0,0.0,0.0,0.0,0.0,0.0,0.0,0.0,0.0,0.0,-2.9201,-2.9432,0.0,0.0,0.0,-2.7659,-2.6515,0.0,0.0,0.0,0.0,0.0,0.0,0.0,0.0,0.0,0.0,0.0,0.0,0.0,0.0,0.0,0.0,0.0,0.0,0.0,0.0,0.0,0.0,0.0,0.0,0.0,0.0,0.0,0.0,0.0,0.0,0.0,0.0,0.0,0.0,0.0,0.0,0.0,0.0,0.0,0.0,0.0,0.0,0.0,0.0,0.0,0.0,0.0,0.0,0.0,0.0,0.0,0.0,0.0,0.0,0.0,0.0,0.0,-2.2283,-2.4127,-2.4892,-2.4475,-2.4707,-2.4641,-2.4262,-2.267,0.0,0.0,0.0,0.0,0.0,0.0,0.0,0.0,0.0,0.0,0.0,0.0,0.0,0.0,0.0,0.0,0.0,0.0,0.0,0.0,0.0,0.0,0.0,0.0,0.0,0.0,0.0,-1.4093,0.0,0.0,0.0,0.0,0.0,0.0,0.0,0.0,0.0,0.0,0.0,0.0,0.0,0.0,-2.9594,-3.0206,-3.1205,-3.1595,0.0,0.0,-2.8649,-2.7393,-2.7263,-2.6901,0.0,0.0,0.0,0.0,0.0,0.0,0.0,0.0,0.0,0.0,0.0,0.0,0.0,0.0,0.0,0.0,0.0,0.0,0.0,0.0,0.0,0.0,0.0,0.0,0.0,0.0,0.0,0.0,0.0,0.0,0.0,0.0,0.0,0.0,0.0,0.0,0.0,0.0,0.0,0.0,0.0,0.0,0.0,0.0,0.0,0.0,0.0,0.0,0.0,0.0,0.0,0.0,0.0,0.0,0.0,-2.2294,-2.3815,-2.4571,-2.455,-2.4485,-2.4485,-2.4423,-2.2929,-2.167,0.0,0.0,0.0,0.0,0.0,0.0,0.0,0.0,0.0,0.0,0.0,0.0,0.0,0.0,0.0,0.0,0.0,0.0,0.0,0.0,0.0,0.0,0.0,0.0,0.0,0.0,0.0,0.0,0.0,0.0,0.0,0.0,0.0,0.0,0.0,0.0,0.0,0.0,0.0,0.0,0.0,-3.065,-3.1369,-3.2268,-3.2775,0.0,0.0,-2.8724,-2.8892,-2.87,-2.7869,-2.6024,0.0,0.0,0.0,0.0,0.0,0.0,0.0,0.0,0.0,0.0,0.0,0.0,0.0,0.0,0.0,0.0,0.0,0.0,0.0,0.0,0.0,0.0,0.0,0.0,0.0,0.0,0.0,0.0,0.0,0.0,0.0,0.0,0.0,0.0,0.0,0.0,0.0,0.0,0.0,0.0,0.0,0.0,0.0,0.0,0.0,0.0,0.0,0.0,0.0,0.0,0.0,0.0,0.0,-2.1466,-2.2273,-2.3783,-2.455,-2.455,-2.455,-2.455,-2.455,-2.2929,-2.1881,0.0,0.0,0.0,0.0,0.0,0.0,0.0,0.0,0.0,0.0,0.0,0.0,0.0,0.0,0.0,0.0,0.0,0.0,0.0,0.0,0.0,0.0,0.0,0.0,0.0,0.0,0.0,0.0,-1.7184,-1.7344,-1.7294,0.0,0.0,0.0,0.0,0.0,0.0,0.0,0.0,0.0,0.0,-3.1124,-3.2412,-3.301,0.0,0.0,-3.0928,-3.0161,-2.8451,-2.8502,-2.8036,-2.5914,-2.4698,0.0,0.0,0.0,0.0,0.0,0.0,0.0,0.0,0.0,0.0,0.0,0.0,0.0,0.0,0.0,0.0,0.0,0.0,0.0,0.0,0.0,0.0,0.0,0.0,0.0,0.0,0.0,0.0,0.0,0.0,0.0,0.0,0.0,0.0,0.0,0.0,0.0,0.0,0.0,0.0,0.0,0.0,0.0,0.0,0.0,0.0,0.0,0.0,0.0,0.0,0.0,0.0,-2.1272,-2.2338,-2.3502,-2.426,-2.4529,-2.455,-2.455,-2.4498,-2.2929,-2.1964,0.0,0.0,0.0,0.0,0.0,0.0,0.0,0.0,0.0,0.0,0.0,0.0,0.0,0.0,0.0,0.0,0.0,0.0,0.0,0.0,0.0,0.0,0.0,0.0,0.0,0.0,0.0,0.0,-1.7781,-1.798,-1.7893,0.0,0.0,0.0,0.0,0.0,0.0,0.0,0.0,0.0,0.0,-3.1969,-3.2772,-3.3195,-3.2793,-3.111,-3.0901,-3.0159,-2.8162,-2.8102,-2.7648,-2.5937,0.0,0.0,0.0,0.0,0.0,0.0,0.0,0.0,0.0,0.0,0.0,0.0,0.0,0.0,0.0,0.0,0.0,0.0,0.0,0.0,0.0,0.0,0.0,0.0,0.0,0.0,0.0,0.0,0.0,0.0,-1.6616,0.0,0.0,0.0,0.0,0.0,0.0,0.0,0.0,0.0,0.0,0.0,0.0,0.0,0.0,0.0,0.0,0.0,0.0,0.0,0.0,0.0,0.0,-2.079,-2.2531,-2.3066,-2.365,-2.4509,-2.4454,-2.4519,-2.4467,-2.2749,-2.1863,-2.1952,0.0,0.0,0.0,0.0,0.0,0.0,0.0,0.0,0.0,0.0,0.0,0.0,0.0,0.0,0.0,0.0,0.0,0.0,0.0,0.0,0.0,0.0,0.0,0.0,0.0,0.0,-1.742,-1.7679,-1.7962,0.0,0.0,0.0,0.0,0.0,0.0,0.0,0.0,0.0,0.0,-3.1178,-3.3158,-3.2331,-3.2586,-3.2616,-3.1663,-2.9797,-2.8445,-2.8423,-2.7624,-2.6732,0.0,0.0,0.0,0.0,0.0,0.0,0.0,0.0,0.0,0.0,0.0,0.0,0.0,0.0,0.0,0.0,0.0,0.0,0.0,0.0,0.0,0.0,0.0,0.0,0.0,0.0,0.0,-1.8171,-1.8446,0.0,0.0,0.0,0.0,0.0,0.0,0.0,0.0,0.0,0.0,0.0,-2.3069,-2.3252,0.0,0.0,0.0,0.0,0.0,0.0,0.0,0.0,0.0,0.0,0.0,0.0,-2.1718,-2.2713,-2.3229,-2.3854,-2.4478,-2.395,-2.3639,-2.3629,-2.2449,-2.1312,-2.0237,0.0,0.0,0.0,0.0,0.0,0.0,0.0,0.0,0.0,0.0,0.0,0.0,0.0,0.0,0.0,0.0,0.0,0.0,0.0,0.0,0.0,0.0,0.0,0.0,0.0,-1.8757,0.0,0.0,0.0,0.0,0.0,0.0,0.0,0.0,0.0,0.0,0.0,-2.8276,-3.0503,-3.1267,-3.1755,-3.2164,-3.2201,-3.2093,0.0,0.0,0.0,0.0,0.0,0.0,0.0,0.0,0.0,0.0,0.0,0.0,0.0,0.0,-2.5461,-2.4039,-2.4404,-2.4859,-2.4692,0.0,0.0,0.0,0.0,0.0,0.0,0.0,0.0,0.0,0.0,0.0,0.0,0.0,0.0,-2.0318,0.0,-1.9721,0.0,0.0,0.0,0.0,0.0,0.0,0.0,0.0,-2.4496,-2.5369,-2.5611,-2.5623,-2.5611,0.0,-2.5172,-2.3413,0.0,0.0,0.0,0.0,0.0,0.0,0.0,0.0,-2.2296,-2.305,-2.356,-2.4216,-2.478,-2.4508,-2.3961,-2.3403,-2.2189,-2.0928,-1.95,-1.8858,-1.8436,0.0,0.0,0.0,0.0,0.0,0.0,0.0,0.0,0.0,0.0,0.0,0.0,0.0,0.0,0.0,0.0,0.0,0.0,0.0,0.0,0.0,0.0,0.0,-1.9356,0.0,0.0,0.0,0.0,0.0,0.0,0.0,0.0,0.0,-2.6734,-2.8424,-3.0261,-3.2001,-3.1951,-3.1738,-3.1662,0.0,0.0,0.0,0.0,0.0,0.0,0.0,-2.7701,-2.694,-2.738,-2.791,-2.8085,-2.8354,-2.8656,-2.8644,0.0,0.0,-2.6378,-2.6629,-2.7245,-2.7318,-2.7391,-2.7391,-2.7391,-2.7725,-2.8106,0.0,0.0,0.0,0.0,0.0,0.0,0.0,0.0,-2.2971,-2.3215,0.0,-2.1968,0.0,0.0,0.0,0.0,0.0,0.0,0.0,0.0,-2.8225,-2.9101,-2.7964,-2.7927,-2.7939,-2.7877,-2.6726,-2.5852,-2.5246,-2.4245,0.0,0.0,0.0,0.0,0.0,0.0,-2.2374,-2.363,-2.3962,-2.459,-2.5481,-2.5915,-2.5363,-2.3646,-2.1998,-2.0741,-1.9869,-1.9458,-1.9086,-1.8605,-1.7605,0.0,0.0,0.0,0.0,0.0,0.0,0.0,0.0,0.0,0.0,0.0,0.0,0.0,0.0,0.0,0.0,0.0,0.0,0.0,0.0,-1.8469,0.0,0.0,0.0,0.0,0.0,0.0,0.0,0.0,0.0,0.0,-2.8874,-3.1066,-3.2646,-3.2315,0.0,0.0,0.0,0.0,-3.0679,-2.9316,-2.9213,-2.914,-2.8398,-2.9032,-2.9415,-2.9273,0.0,0.0,-3.1422,-3.0484,-2.9734,-2.9723,-3.0654,-3.0782,-2.8688,-2.8418,-2.844,-2.8692,-2.8661,-2.8471,-2.8635,-2.9015,-2.9095,-2.2088,0.0,0.0,0.0,0.0,-2.2577,-2.3383,-2.4658,-2.4665,-2.4816,-2.5095,-2.4427,0.0,0.0,0.0,0.0,0.0,0.0,-2.6115,-2.7073,-2.8088,-2.8837,-2.9238,-2.9238,-2.9238,-2.9226,-2.8913,-2.8388,-2.7838,-2.7526,-2.5672,-2.2283,0.0,0.0,0.0,0.0,-2.3627,-2.4484,-2.4495,-2.4776,-2.547,-2.4997,-2.4095,-2.2758,-2.1941,-2.0913,-1.9848,-1.9702,-1.9489,-1.9086,-1.8196,0.0,0.0,0.0,0.0,0.0,0.0,0.0,0.0,0.0,0.0,0.0,0.0,0.0,0.0,0.0,0.0,0.0,0.0,0.0,-2.0025,-2.0647,-2.1384,0.0,0.0,0.0,0.0,0.0,0.0,0.0,0.0,0.0,-3.2269,-3.2198,-3.2364,0.0,0.0,-3.2383,-3.1733,-3.1978,-3.2331,-3.2895,0.0,0.0,0.0,-3.1644,-3.0638,-3.0537,-3.1049,-3.1462,-3.1814,-3.2059,-3.2225,-3.2202,-3.254,-3.2517,-3.2048,-3.1972,-3.2034,-3.1972,-3.2164,-3.2355,-3.245,-3.2629,-3.2594,-2.3028,-2.2592,-2.2097,-2.2703,-2.3916,-2.3916,-2.4906,-2.6426,-2.6382,-2.6541,-2.6809,-2.6214,-2.6057,-2.63,-2.5745,0.0,0.0,0.0,-2.731,-2.8562,-2.8712,-2.9139,-2.9767,-2.9779,-2.9779,-2.9779,-2.9779,-2.949,-2.8925,-2.8699,-2.7135,-2.4275,0.0,0.0,-2.3763,-2.4265,-2.4703,-2.509,-2.5237,-2.5511,-2.5834,-2.4825,-2.4072,-2.3541,-2.2321,-2.1494,-2.1246,-2.046,-2.0312,-2.0869,-1.935,-1.8424,0.0,0.0,0.0,0.0,0.0,0.0,0.0,0.0,0.0,0.0,0.0,-1.7721,-1.7606,0.0,0.0,0.0,-2.0017,-2.0756,-2.2093,-2.2451,0.0,0.0,0.0,0.0,0.0,0.0,0.0,-2.9727,-3.1167,-3.2591,-3.3893,-3.3369,-3.3229,-3.4073,-3.389,-3.3385,-3.272,0.0,-3.3543,-3.4114,-3.3458,-3.3206,-3.3769,-3.2723,-3.1796,-3.1948,-3.209,-3.2248,-3.2544,-3.2986,-3.3281,-3.3281,-3.3281,-3.3212,-3.3017,-3.3169,-3.3435,-3.3423,-3.3395,-3.3464,-3.3562,-3.357,-3.3419,-2.3637,-2.4501,-2.3185,-2.364,-2.5228,-2.5306,-2.647,-2.8462,-2.7981,-2.8198,-2.8682,-2.7483,-2.7262,-2.7903,-2.7122,0.0,0.0,-2.8308,-2.8775,-2.9792,-2.9792,-2.9779,-2.9779,-2.9779,-2.9779,-2.9779,-2.9779,-2.949,-2.8925,-2.8423,-2.7632,-2.6684,-2.6609,-2.6145,-2.5448,-2.5532,-2.5569,-2.5485,-2.6133,-2.6452,-2.6452,-2.5362,-2.4981,-2.5274,-2.3085,-2.2372,-2.3247,-2.1648,-2.1485,-2.3143,-2.0882,-1.976,-2.0239,0.0,0.0,0.0,0.0,0.0,0.0,0.0,0.0,0.0,0.0,0.0,0.0,0.0,0.0,0.0,-2.2149,0.0,-2.4283,-2.4378,0.0,0.0,0.0,-2.9022,-3.0572,-3.1091,-3.1735,-3.2756,0.0,0.0,-3.4247,0.0,-3.4908,-3.5479,-3.5793,-3.5353,-3.3827,-3.4328,-3.4507,-3.4037,-3.357,-3.3281,-3.3314,-3.309,-3.2955,-3.3051,-3.3258,-3.3212,-3.3178,-3.3258,-3.3269,-3.3281,-3.3247,-3.3074,-3.2581,-3.2672,-3.2959,-3.3412,-3.2949,-3.2529,-3.2797,-3.2494,-3.2276,-2.4069,-2.5389,-2.4429,-2.5078,-2.6656,-2.6656,-2.737,-2.8498,-2.8512,-2.8603,-2.8767,-2.8635,-2.8691,-2.9033,-2.9025,-2.905,-2.911,-2.9301,-2.9439,-2.9509,-2.9702,-2.9779,-2.9779,-2.9779,-2.9779,-2.9779,-2.9779,-2.949,-2.895,-2.8787,-2.8386,-2.772,-2.7293,-2.659,-2.5569,-2.5598,-2.5824,-2.6264,-2.6389,-2.6521,-2.6465,-2.6602,-2.6042,-2.4848,-2.4564,-2.3968,-2.2971,-2.2844,-2.2797,-2.2925,-2.1866,-2.1045,-2.0445,-1.9211,0.0,0.0,0.0,0.0,0.0,0.0,0.0,0.0,0.0,-2.0076,-2.0736,0.0,-2.3248,0.0,-2.5782,-2.7347,-2.7949,-2.8694,0.0,0.0,-3.0458,-3.1008,-3.1583,-3.281,-3.3658,-3.3683,-3.4248,-3.4813,-3.5196,-3.565,-3.6054,-3.6387,-3.6225,-3.5885,-3.5496,-3.6025,-3.6363,-3.6171,-3.5889,-3.5775,-3.5458,-3.4762,-3.3685,-3.284,-3.3005,-3.3155,-3.2753,-3.3017,-3.3281,-3.3258,-3.2937,-3.265,-3.25,-3.2298,-3.2091,-3.2195,-3.2199,-3.219,-3.2285,-3.2181,-3.2077,-2.4145,-2.5735,-2.5242,-2.608,-2.7753,-2.7348,-2.7684,-2.8498,-2.8578,-2.8724,-2.8961,-2.9287,-2.9456,-2.9611,-2.9702,-2.9714,-2.9611,-2.9702,-2.9702,-2.9611,-2.9702,-2.9779,-2.9779,-2.9779,-2.9654,-2.9428,-2.9666,-2.9239,-2.826,-2.8448,-2.816,-2.7381,-2.7067,-2.6603,-2.6013,-2.5975,-2.6138,-2.6521,-2.6773,-2.6816,-2.6898,-2.713,-2.6726,-2.5468,-2.5135,-2.4566,-2.3682,-2.3245,-2.3257,-2.3658,-2.2476,-2.1743,-2.1713,-2.0372,-1.9321,0.0,0.0,0.0,0.0,0.0,0.0,0.0,0.0,0.0,0.0,0.0,-2.6218,0.0,-2.8928,0.0,-3.0425,-3.1041,-3.1642,-3.2352,-3.281,-3.3345,-3.4259,-3.4844,-3.5256,-3.5361,-3.5717,-3.5906,-3.5974,-3.6438,-3.6828,-3.7015,-3.6936,-3.6804,-3.674,-3.7104,-3.7403,-3.7416,-3.6501,-3.5474,-3.4715,-3.3859,-3.2978,-3.2402,-3.2408,-3.2558,-3.25,-3.2718,-3.2994,-3.3201,-3.304,-3.2673,-3.2259,-3.1961,-3.1651,-3.1192,-3.1159,-3.1332,-3.1552,-3.1402,-3.1229,-2.4231,-2.5997,-2.5819,-2.6823,-2.8431,-2.7684,-2.7765,-2.851,-2.851,-2.8657,-2.9052,-2.9546,-2.9702,-2.9702,-2.9714,-2.9779,-2.9792,-2.9779,-2.9779,-2.9779,-2.9779,-2.9779,-2.9779,-2.9716,-2.9415,-2.8963,-2.9365,-2.8775,-2.7331,-2.777,-2.7482,-2.6559,-2.6521,-2.6521,-2.6521,-2.6521,-2.6521,-2.6533,-2.7005,-2.7256,-2.7193,-2.7243,-2.7017,-2.6477,-2.5289,-2.4719,-2.4881,-2.3537,-2.3471,-2.4766,-2.309,-2.2437,-2.3264,-2.1835,-2.0871,0.0,-2.0772,0.0,0.0,0.0,0.0,0.0,0.0,0.0,0.0,-2.8062,-2.9541,-3.1064,-3.157,-3.2013,-3.2469,-3.2789,-3.3406,-3.4532,-3.4823,-3.5504,-3.686,-3.6646,-3.6596,-3.7089,-3.6722,-3.6439,-3.6577,-3.6896,-3.7108,-3.7178,-3.7403,-3.7365,-3.7338,-3.7443,-3.7704,-3.7782,-3.6046,-3.4165,-3.2581,-3.1965,-3.18,-3.172,-3.18,-3.1892,-3.219,-3.2397,-3.2638,-3.304,-3.312,-3.2822,-3.1926,-3.1731,-3.1329,-3.048,-3.0239,-3.0342,-3.0744,-3.0606,-3.0239,-2.4573,-2.6846,-2.6163,-2.6835,-2.851,-2.8339,-2.8339,-2.851,-2.851,-2.859,-2.8669,-2.9064,-2.9131,-2.9052,-2.9353,-2.9521,-2.9509,-2.9702,-2.9779,-2.9779,-2.9779,-2.9779,-2.9767,-2.9315,-2.9038,-2.8913,-2.8586,-2.8034,-2.7293,-2.7394,-2.7105,-2.6533,-2.6521,-2.6521,-2.6521,0.0,0.0,0.0,-2.7017,-2.7067,-2.6653,-2.7055,-2.7017,-2.6533,-2.5765,0.0,-2.5448,-2.4772,-2.4682,-2.5331,-2.4607,0.0,0.0,0.0,0.0,0.0,0.0,0.0,0.0,0.0,0.0,0.0,-2.8122,-2.8061,-2.8768,-3.0266,-3.1771,-3.3066,-3.4097,-3.4817,-3.5135,-3.5785,-3.6154,-3.5994,-3.6044,-3.6182,-3.6496,-3.642,-3.6433,-3.6521,-3.6433,-3.6439,-3.6427,-3.6534,-3.6451,-3.631,-3.6429,-3.6418,-3.6198,-3.6727,-3.7155,-3.7026,-3.5244,-3.3498,-3.2018,-3.1727,-3.1536,-3.1315,-3.157,-3.1616,-3.1444,-3.1995,-3.2466,-3.265,-3.2638,-3.2454,-3.1857,-3.1433,-3.0928,-3.0319,-2.9894,-2.978,-3.025,-3.0285,-3.0216,-2.4359,0.0,-2.583,-2.6588,0.0,-2.8339,-2.851,-2.851,-2.851,-2.8578,-2.8657,-2.8973,-2.9118,-2.9106,-2.9341,-2.9509,-2.9611,-2.9702,-2.9779,-2.9767,-2.949,-2.9365,-2.9352,-2.8775,-2.8373,-2.8122,-2.8122,-2.767,-2.6929,-2.7143,-2.7005,-2.6521,-2.6521,-2.6521,-2.6521,-2.6521,-2.6521,-2.6521,-2.7005,-2.7155,-2.6904,-2.7394,-2.7293,-2.649,0.0,0.0,0.0,0.0,0.0,0.0,0.0,0.0,0.0,0.0,0.0,-2.4995,-2.5277,-2.5907,-2.6848,-2.7344,-2.8394,-3.0177,-3.0981,-3.1337,-3.1161,-3.2669,-3.3999,-3.5079,-3.5852,-3.6286,-3.6303,-3.6663,-3.6734,-3.6452,-3.637,-3.637,-3.637,-3.637,-3.637,-3.6332,-3.6132,-3.5956,-3.5956,-3.5798,-3.5755,-3.5555,-3.5762,-3.584,-3.5684,-3.5839,-3.5763,-3.4816,-3.3831,-3.256,-3.1356,-3.0983,-3.0939,-3.0674,-3.087,-3.0996,-3.1019,-3.1421,-3.1892,-3.2294,-3.2099,-3.1662,-3.141,-3.0801,-3.0101,-2.9607,-2.9274,-2.9171,-2.9424,-2.947,-2.947,-2.4351,-2.4944,-2.5695,-2.6588,-2.751,-2.8179,-2.851,-2.851,0.0,0.0,0.0,-2.8961,-2.9118,-2.925,-2.9341,-2.9509,-2.9702,-2.9804,-2.9779,-2.9767,-2.9302,-2.9038,-2.8825,-2.836,-2.7821,-2.7318,-2.7645,-2.7356,-2.6559,-2.6917,-2.6917,-2.6571,-2.6521,-2.6521,-2.6521,-2.6521,-2.6521,-2.6546,-2.6904,-2.7143,-2.7143,-2.7582,-2.7381,-2.6533,-2.6433,-2.6126,-2.5762,-2.5649,-2.5912,-2.6565,-2.6452,-2.642,-2.6519,-2.6549,-2.654,-2.654,-2.6698,-2.7139,-2.7905,-2.8861,-2.9999,-3.1353,-3.2962,-3.3753,-3.3322,-3.4494,-3.5519,-3.6251,-3.6544,-3.6616,-3.643,-3.643,-3.6337,-3.6163,-3.6069,-3.6056,-3.6056,-3.6069,-3.6019,-3.6019,-3.5655,-3.5403,-3.5391,-3.5221,-3.4958,-3.4971,-3.5111,-3.5035,-3.4882,-3.4806,-3.4259,-3.2406,-3.2015,-3.1589,-3.0536,-3.0285,-3.0216,-3.0285,-3.0262,-3.0376,-3.0744,-3.095,-3.1295,-3.1823,-3.1433,-3.1042,-3.0744,-3.0112,-2.9332,-2.8804,-2.862,-2.8563,-2.8563,-2.8505,-2.8517,-2.5392,-2.6248,-2.6768,-2.751,-2.8351,-2.8431,-2.851,-2.851,-2.851,-2.851,-2.859,-2.8736,-2.8882,-2.887,-2.9263,-2.9419,-2.9509,-2.9702,-2.9779,0.0,-2.9704,-2.9402,-2.8913,-2.836,-2.7821,-2.7268,-2.6879,-2.6615,-2.6546,-2.6609,-2.6596,-2.6533,-2.6521,-2.6521,-2.6521,-2.6521,-2.6521,-2.6521,-2.6596,-2.6647,-2.6578,-2.6653,-2.6697,-2.6521,-2.5988,-2.5937,-2.6314,-2.5875,-2.6088,-2.7105,-2.7168,-2.7381,-2.7846,-2.8371,-2.8783,-2.8809,-2.9389,-3.0062,-3.0586,-3.0803,-3.1299,-3.2231,-3.3077,-3.3734,-3.4328,-3.4584,-3.4868,-3.5238,-3.5404,-3.5236,-3.5042,-3.5274,-3.5299,-3.4989,-3.4977,-3.4964,-3.5014,-3.5014,-3.5027,-3.5039,-3.4901,-3.4839,-3.4826,-3.4726,-3.4551,-3.4212,-3.4174,-3.3734,-3.2528,-3.3118,-3.2978,-3.1407,-3.1121,-3.1008,-3.042,-3.0216,-3.0216,-3.0216,-3.0216,-3.0239,-3.0365,-3.0698,-3.087,-3.0629,-3.0755,-3.0583,-2.9929,-2.963,-2.916,-2.8666,-2.831,-2.8092,-2.8069,-2.771,-2.7676,-2.6083,-2.5893,-2.679,-2.7429,-2.7846,-2.8259,-2.851,-2.851,-2.851,-2.851,-2.851,-2.8578,-2.8724,-2.8961,-2.9118,-2.9353,-2.9611,-2.9779,-2.9779,-2.9741,-2.9151,-2.875,-2.8423,-2.762,-2.708,-2.6829,-2.6659,-2.6521,-2.6521,-2.6521,-2.6521,-2.6521,-2.6521,-2.6521,-2.6521,-2.6521,-2.6521,-2.6521,-2.6521,-2.6521,-2.6533,-2.6753,-2.6766,-2.6533,-2.6465,-2.6628,-2.6892,-2.6942,-2.7331,-2.8147,-2.8486,-2.8762,-2.9013,-2.9328,-2.9542,-2.9555,-2.9859,-3.0189,-3.043,-3.1014,-3.1605,-3.2331,-3.2997,-3.35,-3.3779,-3.4083,-3.4361,-3.4612,-3.4768,-3.4816,-3.4713,-3.4816,-3.4828,-3.4713,-3.4726,-3.4726,-3.4726,-3.4726,-3.4726,-3.47,-3.4449,-3.4286,-3.4274,-3.4022,-3.3771,-3.3483,-3.3171,-3.2043,-3.0181,-3.0807,-3.1172,-3.0159,-3.0216,-3.0306,-3.0216,-3.0216,-3.0216,-3.0216,-3.0216,-3.0216,-3.0227,-3.0457,-3.0445,-3.0239,-3.0032,-2.9607,-2.9079,-2.8597,-2.8218,-2.8,-2.7759,-2.7492,-2.7258,-2.6779,-2.6752,-2.67,-2.5714,-2.7126,-2.7627,-2.7592,-2.8179,-2.851,-2.851,-2.851,-2.851,-2.851,-2.851,-2.8736,-2.9131,-2.9131,-2.9378,-2.9779,-2.9779,-2.9779,-2.9691,-2.875,-2.8222,-2.8021,-2.7092,-2.6647,-2.6533,-2.6521,-2.6521,-2.6521,-2.6521,-2.6521,-2.6521,-2.6521,-2.6521,-2.6521,-2.6521,-2.6521,-2.6521,-2.6521,-2.6521,-2.6465,-2.6879,-2.6879,-2.6596,-2.6866,-2.7155,-2.7293,-2.7695,-2.8235,-2.8888,-2.9352,-2.9654,-2.9779,-2.9779,-2.9779,-2.9779,-2.9779,-2.9792,-2.9919,-3.0683,-3.1461,-3.2084,-3.271,-3.3101,-3.3179,-3.347,-3.3783,-3.3938,-3.4186,-3.4311,-3.4299,-3.4311,-3.4349,-3.4349,-3.4349,-3.4299,-3.4336,-3.4349,-3.4361,-3.4299,-3.3972,-3.3721,-3.3646,-3.3345,-3.3032,-3.2674,-3.1901,-3.0621,-2.9176,-2.8921,-2.9024,-2.9117,-2.9209,-2.9429,-2.9772,-2.9988,-3.0,-3.0091,-3.0102,-3.0125,-3.0114,-3.0056,-2.9783,-2.9522,-2.9049,-2.8436,-2.81,-2.7565,-2.7122,-2.6994,-2.69,-2.6761,-2.6501,-2.6074,-2.5895,-2.7442,-2.714,-2.8477,-2.8781,-2.8351,-2.8431,-2.851,-2.851,-2.851,-2.851,-2.851,-2.8724,-2.8895,-2.9131,-2.9275,-2.9521,-2.9779,-2.9779,-2.9779,-2.9691,-2.9151,-2.8586,-2.8059,-2.7469,-2.6929,-2.6571,-2.6521,-2.6521,-2.6521,-2.6521,-2.6521,-2.6521,-2.6521,-2.6521,-2.6521,-2.6521,-2.6521,-2.6521,-2.6521,-2.6521,-2.6521,-2.6571,-2.6571,-2.6533,-2.6571,-2.6766,-2.7231,-2.7331,-2.7846,-2.8825,-2.8976,-2.9252,-2.9704,-2.9779,-2.9779,-2.9779,-2.9779,-2.9856,-3.0049,-3.041,-3.1014,-3.1693,-3.2084,-3.2528,-3.298,-3.3119,-3.3144,-3.323,-3.3268,-3.3307,-3.3244,-3.3282,-3.3345,-3.3382,-3.3345,-3.3219,-3.3307,-3.3232,-3.3232,-3.3232,-3.3269,-3.3156,-3.3194,-3.3131,-3.2723,-3.1813,-3.108,-2.9988,-2.8806,-2.8092,-2.782,-2.8175,-2.8456,-2.8811,-2.8932,-2.9306,-2.951,-2.9613,-2.9852,-2.9897,-2.9647,-2.9455,-2.9181,-2.8221,-2.7925,-2.7589,-2.6847,-2.6313,-2.6479,-2.6229,-2.6146,-2.5979,-2.5895,-2.5549,-2.5464,-2.8299,-2.7688,-2.8771,-2.8991,-2.8546,-2.851,-2.851,-2.851,-2.851,-2.851,-2.851,-2.8724,-2.8882,-2.9131,-2.9341,-2.9521,-2.9779,-2.9779,-2.9603,-2.9252,-2.8699,-2.8147,-2.7607,-2.7055,-2.6735,-2.6546,-2.6521,-2.6521,-2.6521,-2.6521,-2.6521,-2.6521,-2.6521,-2.6521,-2.6521,-2.6521,-2.6521,-2.6521,-2.6521,-2.6521,-2.6521,-2.6521,-2.6521,-2.6521,-2.6521,-2.6622,-2.6804,-2.7105,-2.7494,-2.7959,-2.8574,-2.9026,-2.9264,-2.9603,-2.9779,-2.9779,-2.9779,-2.9869,-2.9959,-3.0385,-3.0708,-3.1014,-3.1738,-3.2328,-3.2554,-3.288,-3.3081,-3.3081,-3.3081,-3.3081,-3.3081,-3.3081,-3.3081,-3.3081,-3.3081,-3.3081,-3.3081,-3.3081,-3.3081,-3.3081,-3.3081,-3.3081,-3.3081,-3.3081,-3.2438,-3.1169,-3.0351,-2.9624,-2.8175,-2.7536,-2.7452,-2.7536,-2.7809,-2.8175,-2.8555,-2.8855,-2.9013,-2.9024,-2.9198,-2.9154,-2.881,-2.8665,-2.8255,-2.7031,-2.7156,-2.6919,-2.6195,-2.599,-2.6052,-2.5812,-2.5549,-2.5464,-2.5464,-2.5126,-2.4956,-2.8903,-2.8455,-2.9033,-2.8991,-2.8522,-2.851,-2.851,-2.851,-2.851,-2.851,-2.851,-2.8724,-2.8961,-2.9131,-2.9263,-2.9521,-2.9779,-2.9779,-2.9578,-2.9101,-2.8436,-2.7896,-2.7469,-2.6779,-2.6521,-2.6521,-2.6521,-2.6521,-2.6521,-2.6521,-2.6521,-2.6521,-2.6521,-2.6521,-2.6521,-2.6521,-2.6521,-2.6521,-2.6521,-2.6521,-2.6521,-2.6521,-2.6521,-2.6521,-2.6521,-2.6521,-2.6546,-2.6841,-2.713,-2.7306,-2.8197,-2.8775,-2.8938,-2.9478,-2.9779,-2.9779,-2.9779,-2.9779,-2.9792,-3.0168,-3.0457,-3.0658,-3.1373,-3.1838,-3.2051,-3.2516,-3.2817,-3.283,-3.298,-3.3081,-3.3081,-3.3081,-3.3081,-3.3081,-3.3081,-3.3081,-3.3081,-3.3081,-3.3081,-3.3081,-3.3081,-3.2982,-3.2723,-3.2624,-3.1901,-3.017,-2.9715,-2.9257,-2.7715,-2.7357,-2.7367,-2.7272,-2.7357,-2.7578,-2.8209,-2.8416,-2.851,-2.8477,-2.8598,-2.8477,-2.8003,-2.7793,-2.7399,-2.6345,-2.639,-2.6162,-2.5583,-2.5486,-2.5644,-2.5475,-2.5295,-2.5041,-2.5041,-2.4711,-2.4467,-2.8934,-2.9286,-2.9296,-2.9015,-2.851,-2.851,-2.851,-2.851,-2.851,-2.851,-2.859,-2.8895,-2.9052,-2.9143,-2.9341,-2.9509,-2.9779,-2.9779,-2.9716,-2.9503,-2.8586,-2.8084,-2.7996,-2.705,-2.6521,-2.6521,-2.6521,-2.6521,-2.6521,-2.6521,-2.6521,-2.6521,-2.6521,-2.6521,-2.6521,-2.6521,-2.6521,-2.6521,-2.6521,-2.6521,-2.6521,-2.6521,-2.6521,-2.6521,-2.6521,-2.6521,-2.6533,-2.6559,-2.6728,-2.7256,-2.7821,-2.8373,-2.8888,-2.9465,-2.9779,-2.9779,-2.9779,-2.9779,-2.9792,-2.9842,-3.0055,-3.0507,-3.0721,-3.0934,-3.1411,-3.1938,-3.2265,-3.2265,-3.2742,-3.3006,-3.3081,-3.3081,-3.3081,-3.3081,-3.3081,-3.3081,-3.3081,-3.3081,-3.3081,-3.3081,-3.2995,-3.2537,-3.1813,-3.1625,-3.08,-2.9441,-2.8817,-2.8445,-2.7631,-2.7272,-2.7272,-2.7272,-2.7262,-2.7347,-2.7441,-2.762,-2.7902,-2.7932,-2.785,-2.7833,-2.7439,-2.6926,-2.6232,-2.5675,-2.5744,-2.5541,-2.4924,-2.4796,-2.4871,-2.4871,-2.4786,-2.4625,-2.4584,-2.4529,-2.4478,-2.9128,-2.9804,-2.9786,-2.9304,-2.8534,-2.851,-2.851,-2.851,-2.851,-2.851,-2.859,-2.8895,-2.9143,-2.9131,-2.9456,-2.9702,-2.9779,-2.9779,-2.9415,-2.875,-2.8285,-2.7733,-2.7042,-2.6615,-2.6521,-2.6521,-2.6521,-2.6521,-2.6521,-2.6521,-2.6521,-2.6521,-2.6521,-2.6521,-2.6521,-2.6521,-2.6521,-2.6521,-2.6521,-2.6521,-2.6521,-2.6521,-2.6521,-2.6521,-2.6521,-2.6521,-2.6521,-2.6521,-2.6634,-2.6823,-2.7268,-2.7821,-2.8423,-2.9289,-2.9779,-2.9779,-2.9779,-2.9779,-2.9779,-2.9779,-2.9867,-3.008,-3.0432,-3.0658,-3.0947,-3.1386,-3.1825,-3.2152,-3.2365,-3.2654,-3.3006,-3.3081,-3.3081,-3.3081,-3.3081,-3.3081,-3.3081,-3.3081,-3.3081,-3.2995,-3.2624,-3.1713,-3.0979,-3.0711,-3.017,-2.8991,-2.8724,-2.8269,-2.7536,-2.7272,-2.7262,-2.7262,-2.7262,-2.7243,-2.6817,-2.6993,-2.7055,-2.7033,-2.6904,-2.6483,-2.6136,-2.5988,-2.5378,-2.5086,-2.5126,-2.5083,-2.4636,-2.4625,-2.4615,-2.4382,-2.4317,-2.433,-2.419,-2.4245,-2.431,-2.9306,-2.9626,-2.999,-2.9472,-2.8558,-2.851,-2.851,-2.851,-2.851,-2.851,-2.859,-2.8907,-2.9143,-2.9221,-2.9624,-2.9779,-2.9779,-2.9779,-2.9277,-2.8411,-2.8197,-2.762,-2.6829,-2.6622,-2.6521,-2.6521,-2.6521,-2.6521,-2.6521,-2.6521,-2.6521,-2.6521,-2.6521,-2.6521,-2.6521,-2.6521,-2.6521,-2.6521,-2.6521,-2.6521,-2.6521,-2.6521,-2.6521,-2.6521,-2.6521,-2.6521,-2.6521,-2.6521,-2.6521,-2.6527,-2.6979,-2.7607,-2.836,-2.9089,-2.9603,-2.9767,-2.9779,-2.9779,-2.9779,-2.9779,-2.9792,-2.9804,-3.0131,-3.0357,-3.0394,-3.0834,-3.1298,-3.165,-3.2077,-3.2416,-3.2717,-3.2955,-3.3081,-3.3081,-3.3081,-3.3081,-3.3081,-3.281,-3.2438,-3.2077,-3.1536,-3.0711,-2.9897,-2.9715,-2.9268,-2.8362,-2.8258,-2.7904,-2.7441,-2.7262,-2.7169,-2.716,-2.7013,-2.6786,-2.6423,-2.6298,-2.6349,-2.6266,-2.6069,-2.5554,-2.5306,-2.515,-2.4964,-2.4664,-2.455,-2.455,-2.455,-2.455,-2.4317,-2.4074,-2.4111,-2.4093,-2.4039,-2.408,-2.4083,-2.9584,-2.9039,-2.9737,-2.9532,-2.8655,-2.8595,-2.8534,-2.8522,-2.851,-2.851,-2.859,-2.8895,-2.9143,-2.9209,-2.9546,-2.9779,-2.9779,-2.9779,-2.9465,-2.8837,-2.8398,-2.7846,-2.7205,-2.6753,-2.6571,-2.6521,-2.6521,-2.6521,-2.6521,-2.6521,-2.6521,-2.6521,-2.6521,-2.6521,-2.6521,-2.6521,-2.6521,-2.6521,-2.6521,-2.6521,-2.6521,-2.6521,-2.6521,-2.6521,-2.6521,-2.6521,-2.6521,-2.6521,-2.6521,-2.6571,-2.6942,-2.777,-2.8561,-2.8925,-2.9202,-2.9628,-2.9754,-2.9779,-2.9779,-2.9779,-2.9779,-2.9792,-2.9817,-2.988,-2.9967,-3.0319,-3.0658,-3.0896,-3.1537,-3.2164,-3.2303,-3.2704,-3.3018,-3.3081,-3.2995,-3.2896,-3.281,-3.2164,-3.1258,-3.0531,-3.017,-2.9715,-2.8991,-2.8724,-2.8351,-2.7715,-2.7441,-2.7441,-2.7357,-2.7272,-2.7065,-2.6755,-2.6662,-2.6537,-2.603,-2.5575,-2.5647,-2.5668,-2.543,-2.513,-2.5037,-2.4912,-2.4788,-2.455,-2.455,-2.455,-2.455,-2.4444,-2.432,-2.4132,-2.4126,-2.3939,-2.3856,-2.3846,-2.3815,-2.96,-3.0209,-3.0529,-3.0025,-2.9112,-2.9051,-2.8859,-2.8522,-2.851,-2.851,-2.859,-2.8907,-2.9143,-2.9221,-2.9546,-2.9779,-2.9779,-2.9767,-2.949,-2.8976,-2.8737,-2.816,-2.7381,-2.7092,-2.6816,-2.6584,-2.6521,-2.6521,-2.6521,-2.6521,-2.6521,-2.6521,-2.6521,-2.6521,-2.6521,-2.6521,-2.6521,-2.6521,-2.6521,-2.6521,-2.6521,-2.6521,-2.6521,-2.6521,-2.6521,-2.6521,-2.6521,-2.6521,-2.6521,-2.6521,-2.6697,-2.7042,-2.7758,-2.8524,-2.8988,-2.9214,-2.9591,-2.9779,-2.9779,-2.9779,-2.9767,-2.9779,-2.9779,-2.9779,-2.9792,-2.9955,-3.0244,-3.052,-3.0959,-3.1348,-3.2064,-3.2353,-3.2629,-3.3018,-3.2525,-3.2089,-3.1901,-3.1169,-3.026,-2.9349,-2.9165,-2.8713,-2.8092,-2.7809,-2.7726,-2.7452,-2.7272,-2.7262,-2.7251,-2.721,-2.7086,-2.6682,-2.6548,-2.6196,-2.5606,-2.5233,-2.5233,-2.5233,-2.5016,-2.4902,-2.4809,-2.4747,-2.4602,-2.455,-2.455,-2.455,-2.455,-2.4413,-2.431,-2.4031,-2.3784,-2.366,-2.3495,-2.3474,-2.3432,-2.9026,-2.952,-3.031,-2.9977,-2.9039,-2.9003,-2.8835,-2.8534,-2.851,-2.851,-2.859,-2.8895,-2.9143,-2.9221,-2.9636,-2.9792,-2.9779,-2.9779,-2.9591,-2.9239,-2.8988,-2.8335,-2.7356,-2.7055,-2.6829,-2.6596,-2.6521,-2.6521,-2.6521,-2.6521,-2.6521,-2.6521,-2.6521,-2.6521,-2.6521,-2.6521,-2.6521,-2.6521,-2.6521,-2.6521,-2.6521,-2.6521,-2.6521,-2.6521,-2.6521,-2.6521,-2.6521,-2.6521,-2.6521,-2.6521,-2.6521,-2.6728,-2.7281,-2.7946,-2.8398,-2.8662,-2.895,-2.9227,-2.9428,-2.9453,-2.9591,-2.9729,-2.9779,-2.9779,-2.9792,-2.9779,-2.9993,-3.0231,-3.052,-3.0884,-3.1474,-3.1813,-3.2077,-3.239,-3.2019,-3.1311,-3.0722,-2.9988,-2.9257,-2.8445,-2.8175,-2.7904,-2.7536,-2.7272,-2.7272,-2.7272,-2.7262,-2.7138,-2.7086,-2.6982,-2.6682,-2.633,-2.5989,-2.5575,-2.5109,-2.4912,-2.485,-2.4767,-2.4654,-2.4654,-2.4623,-2.4623,-2.455,-2.455,-2.455,-2.455,-2.455,-2.4454,-2.4351,-2.3969,-2.3536,-2.3289,-2.3144,-2.3072,-2.3029,-2.816,-2.7558,-2.93,-2.9556,-2.8691,-2.8655,-2.8607,-2.851,-2.851,-2.851,-2.859,-2.8895,-2.9131,-2.9209,-2.9636,-2.9779,-2.9779,-2.9779,-2.9767,-2.9603,-2.9239,-2.8473,-2.7482,-2.6854,-2.6596,-2.6533,-2.6521,-2.6521,-2.6521,-2.6521,-2.6521,-2.6521,-2.6521,-2.6521,-2.6521,-2.6521,-2.6521,-2.6521,-2.6521,-2.6521,-2.6521,-2.6521,-2.6521,-2.6521,-2.6521,-2.6521,-2.6521,-2.6521,-2.6521,-2.6521,-2.6521,-2.6678,-2.7118,-2.7256,-2.762,-2.8047,-2.8084,-2.8499,-2.8812,-2.9026,-2.9239,-2.9716,-2.9779,-2.9779,-2.9779,-2.9792,-2.9817,-2.9905,-3.0256,-3.057,-3.0771,-3.1072,-3.1279,-3.1278,-3.1211,-3.062,-2.9098,-2.8789,-2.8288,-2.7619,-2.7358,-2.7189,-2.718,-2.7096,-2.7148,-2.7076,-2.7044,-2.6837,-2.6651,-2.6434,-2.6092,-2.5792,-2.5533,-2.5233,-2.4861,-2.4747,-2.4695,-2.4654,-2.455,-2.455,-2.455,-2.455,-2.455,-2.455,-2.455,-2.455,-2.454,-2.4444,-2.4271,-2.3805,-2.3391,-2.2998,-2.2822,-2.2801,-2.2749,-2.8907,-2.9374,-2.9905,-2.9701,-2.9136,-2.9088,-2.8859,-2.8534,-2.851,-2.8578,-2.8736,-2.8973,-2.9197,-2.9353,-2.9624,-2.9779,-2.9779,-2.9779,-2.9779,-2.9767,-2.9654,-2.8938,-2.7871,-2.6904,-2.6521,-2.6521,-2.6521,-2.6521,-2.6521,-2.6521,-2.6521,-2.6521,-2.6521,-2.6521,-2.6521,-2.6521,-2.6521,-2.6521,-2.6521,-2.6521,-2.6521,-2.6521,-2.6521,-2.6521,-2.6521,-2.6521,-2.6521,-2.6521,-2.6521,-2.6521,-2.6521,-2.6571,-2.6728,-2.7042,-2.7318,-2.7494,-2.7871,-2.8323,-2.875,-2.89,-2.9189,-2.9704,-2.9767,-2.9779,-2.9779,-2.9779,-2.9779,-2.9804,-2.9955,-3.0193,-3.052,-3.0721,-3.0449,-2.9641,-3.0132,-3.0087,-2.9103,-2.8221,-2.7485,-2.7248,-2.6917,-2.6671,-2.6475,-2.6548,-2.663,-2.6403,-2.632,-2.6268,-2.6134,-2.6041,-2.5782,-2.5513,-2.5254,-2.4985,-2.466,-2.4623,-2.4571,-2.4581,-2.455,-2.455,-2.455,-2.455,-2.455,-2.455,-2.455,-2.455,-2.4454,-2.4444,-2.4064,-2.3536,-2.3246,-2.2904,-2.2666,-2.2563,-2.2553,-2.8808,-2.914,-2.9582,-2.9448,-2.8991,-2.8967,-2.8787,-2.8558,-2.851,-2.8578,-2.8803,-2.9052,-2.9197,-2.9419,-2.9689,-2.9779,-2.9779,-2.9779,-2.9779,-2.9704,-2.9264,-2.8674,-2.7934,-2.6992,-2.6521,-2.6521,-2.6521,-2.6521,-2.6521,-2.6521,-2.6521,-2.6521,-2.6521,-2.6521,-2.6521,-2.6521,-2.6521,-2.6521,-2.6521,-2.6521,-2.6521,-2.6521,-2.6521,-2.6521,-2.6521,-2.6521,-2.6521,-2.6521,-2.6521,-2.6521,-2.6521,-2.6521,-2.6546,-2.6741,-2.6942,-2.6954,-2.7256,-2.7645,-2.816,-2.8436,-2.885,-2.934,-2.9603,-2.9767,-2.9779,-2.9779,-2.9779,-2.9792,-2.9779,-2.9955,-3.0168,-3.0269,-3.0029,-2.9803,-2.9779,-2.9368,-2.811,-2.7122,-2.6694,-2.6568,-2.6435,-2.6206,-2.5896,-2.6123,-2.6103,-2.5989,-2.5978,-2.5834,-2.5658,-2.5606,-2.5492,-2.5181,-2.4995,-2.4691,-2.4588,-2.4581,-2.455,-2.455,-2.455,-2.455,-2.455,-2.455,-2.455,-2.455,-2.455,-2.4498,-2.4405,-2.4209,-2.3743,-2.3308,-2.307,-2.276,-2.2439,-2.2304,-2.2294,-2.8326,-2.7934,-2.8869,-2.8943,-2.857,-2.8522,-2.8546,-2.851,-2.851,-2.8645,-2.8882,-2.9052,-2.9275,-2.9431,-2.9702,-2.9779,-2.9779,-2.9779,-2.9716,-2.939,-2.8775,-2.8122,-2.7846,-2.6929,-2.6559,-2.6521,-2.6521,-2.6521,-2.6521,-2.6521,-2.6521,-2.6521,-2.6521,-2.6521,-2.6521,-2.6521,-2.6521,-2.6521,-2.6521,-2.6521,-2.6521,-2.6521,-2.6521,-2.6521,-2.6521,-2.6521,-2.6521,-2.6521,-2.6521,-2.6521,-2.6521,-2.6521,-2.6521,-2.6533,-2.6559,-2.6515,-2.6684,-2.6911,-2.7306,-2.7921,-2.8386,-2.895,-2.9515,-2.9779,-2.9779,-2.9779,-2.9779,-2.9779,-2.9779,-2.9817,-2.9842,-2.9829,-2.9886,-2.988,-2.9766,-2.8503,-2.678,-2.6088,-2.6178,-2.602,-2.5999,-2.5982,-2.5761,-2.5782,-2.5771,-2.543,-2.544,-2.5337,-2.5202,-2.515,-2.5006,-2.4767,-2.4654,-2.4602,-2.456,-2.455,-2.455,-2.455,-2.455,-2.455,-2.455,-2.455,-2.455,-2.4529,-2.4405,-2.424,-2.4043,-2.3743,-2.336,-2.3029,-2.2749,-2.2356,-2.2004,-2.2014,-2.2004,-2.8441,-2.8345,-2.8587,-2.8607,-2.8522,-2.851,-2.851,-2.851,-2.8645,-2.8803,-2.904,-2.9275,-2.9443,-2.9702,-2.9792,-2.9779,-2.9779,-2.9754,-2.9578,-2.9026,-2.8448,-2.7846,-2.7431,-2.6728,-2.6559,-2.6521,-2.6521,-2.6521,-2.6521,-2.6521,-2.6521,-2.6521,-2.6521,-2.6521,-2.6521,-2.6521,-2.6521,-2.6521,-2.6521,-2.6521,-2.6521,-2.6521,-2.6521,-2.6521,-2.6521,-2.6521,-2.6521,-2.6521,-2.6521,-2.6521,-2.6521,-2.6521,-2.6521,-2.6521,-2.6521,-2.6521,-2.6465,-2.6703,-2.7243,-2.777,-2.8335,-2.8837,-2.9415,-2.9779,-2.9779,-2.9779,-2.9779,-2.9779,-2.9779,-2.9779,-2.9779,-2.9779,-2.9621,-2.9369,-2.9071,-2.8467,-2.7355,-2.7424,-2.7398,-2.6942,-2.6496,-2.5978,-2.5107,-2.5321,-2.5269,-2.4923,-2.485,-2.4799,-2.4778,-2.4757,-2.4664,-2.455,-2.455,-2.455,-2.455,-2.455,-2.455,-2.455,-2.455,-2.455,-2.455,-2.4436,-2.4395,-2.4312,-2.4209,-2.3991,-2.3691,-2.3443,-2.308,-2.276,-2.2439,-2.218,-2.1942,-2.1859,-2.1807,-2.8099,-2.851,-2.851,-2.851,-2.851,-2.851,-2.8578,-2.8657,-2.8724,-2.8961,-2.9184,-2.9353,-2.9521,-2.9779,-2.9779,-2.9779,-2.9779,-2.9767,-2.9327,-2.8662,-2.8185,-2.767,-2.6979,-2.664,-2.6521,-2.6521,-2.6521,-2.6521,-2.6521,-2.6521,-2.6521,-2.6521,-2.6521,-2.6521,-2.6521,-2.6521,-2.6521,-2.6521,-2.6521,-2.6521,-2.6521,-2.6521,-2.6521,-2.6521,-2.6521,-2.6521,-2.6521,-2.6521,-2.6521,-2.6521,-2.6521,-2.6521,-2.6521,-2.6521,-2.6521,-2.6521,-2.6533,-2.6565,-2.6979,-2.7632,-2.8222,-2.8536,-2.9302,-2.9666,-2.9779,-2.9779,-2.9779,-2.9779,-2.9779,-2.9779,-2.9779,-2.9779,-2.9456,-2.9287,-2.9131,-2.887,-2.8462,-2.8143,-2.773,-2.7185,-2.6907,-2.6239,-2.5732,-2.5369,-2.5024,-2.4792,-2.4705,-2.4664,-2.4654,-2.4633,-2.4612,-2.455,-2.455,-2.455,-2.455,-2.455,-2.455,-2.455,-2.455,-2.455,-2.455,-2.4374,-2.4188,-2.4095,-2.3971,-2.3546,-2.3256,-2.3018,-2.2739,-2.2346,-2.2076,-2.1994,-2.1932,-2.1849,-2.1807,-2.7846,-2.851,-2.851,-2.851,-2.851,-2.851,-2.8645,-2.8803,-2.8882,-2.9106,-2.9341,-2.9419,-2.9599,-2.9779,-2.9779,-2.9779,-2.9754,-2.9566,-2.9051,-2.826,-2.7984,-2.7381,-2.6703,-2.6559,-2.6521,-2.6521,-2.6521,-2.6521,-2.6521,-2.6521,-2.6521,-2.6521,-2.6521,-2.6521,-2.6521,-2.6521,-2.6521,-2.6521,-2.6521,-2.6521,-2.6521,-2.6521,-2.6521,-2.6521,-2.6521,-2.6521,-2.6521,-2.6521,-2.6521,-2.6521,-2.6521,-2.6521,-2.6521,-2.6521,-2.6521,-2.6521,-2.6521,-2.6559,-2.6703,-2.7356,-2.7971,-2.8109,-2.9013,-2.9641,-2.9741,-2.9779,-2.9779,-2.9779,-2.9779,-2.9779,-2.9779,-2.9779,-2.9779,-2.9702,-2.9779,-2.9779,-2.9534,-2.8395,-2.7879,-2.7395,-2.7138,-2.6561,-2.5874,-2.5444,-2.5062,-2.47,-2.4625,-2.455,-2.455,-2.455,-2.454,-2.455,-2.455,-2.455,-2.455,-2.4519,-2.4519,-2.4447,-2.4467,-2.4374,-2.4343,-2.4043,-2.3805,-2.3846,-2.366,-2.3215,-2.2822,-2.2563,-2.2252,-2.189,-2.1828,-2.1869,-2.1859,-2.1818,-2.1807,-2.8339,-2.851,-2.851,-2.851,-2.851,-2.8657,-2.8724,-2.8882,-2.9106,-2.9341,-2.9419,-2.9599,-2.9702,-2.9779,-2.9779,-2.9779,-2.9704,-2.9377,-2.8775,-2.8084,-2.7708,-2.7067,-2.6659,-2.6521,-2.6521,-2.6521,-2.6521,-2.6521,-2.6521,-2.6521,-2.6521,-2.6521,-2.6521,-2.6521,-2.6521,-2.6521,-2.6521,-2.6521,-2.6521,-2.6521,-2.6521,-2.6521,-2.6521,-2.6521,-2.6521,-2.6521,-2.6521,-2.6521,-2.6521,-2.6521,-2.6521,-2.6521,-2.6521,-2.6521,-2.6521,-2.6521,-2.6521,-2.6521,-2.6647,-2.7055,-2.7632,-2.8109,-2.875,-2.9352,-2.9654,-2.9779,-2.9779,-2.9779,-2.9779,-2.9779,-2.9779,-2.9779,-2.9779,-2.9779,-2.9779,-2.9779,-2.9702,-2.9365,-2.8791,-2.8291,-2.7637,-2.6987,-2.6565,-2.5986,-2.5505,-2.5189,-2.4861,-2.47,-2.455,-2.454,-2.454,-2.454,-2.455,-2.455,-2.455,-2.4509,-2.4467,-2.4312,-2.4229,-2.3971,-2.3846,-2.3546,-2.3401,-2.3412,-2.3205,-2.278,-2.2428,-2.2159,-2.2014,-2.1828,-2.1807,-2.1807,-2.1807,-2.1807,-2.1807,-2.8087,-2.851,-2.851,-2.851,-2.851,-2.8724,-2.8882,-2.8961,-2.9275,-2.9509,-2.9599,-2.9702,-2.9779,-2.9779,-2.9779,-2.9779,-2.9628,-2.9202,-2.8637,-2.8084,-2.7544,-2.6992,-2.6584,-2.6521,-2.6521,-2.6521,-2.6521,-2.6521,-2.6521,-2.6521,-2.6521,-2.6521,-2.6521,-2.6521,-2.6521,-2.6521,-2.6521,-2.6521,-2.6521,-2.6521,-2.6521,-2.6521,-2.6521,-2.6521,-2.6521,-2.6521,-2.6521,-2.6521,-2.6521,-2.6521,-2.6521,-2.6521,-2.6521,-2.6521,-2.6521,-2.6521,-2.6521,-2.6521,-2.654,-2.6979,-2.7532,-2.8072,-2.8612,-2.9176,-2.9603,-2.9779,-2.9792,-2.9792,-2.9779,-2.9779,-2.9779,-2.9779,-2.9779,-2.9779,-2.9779,-2.9779,-2.9779,-2.9779,-2.9456,-2.9118,-2.8791,-2.8211,-2.7545,-2.6976,-2.6163,-2.5673,-2.5263,-2.4946,-2.47,-2.4786,-2.4946,-2.4935,-2.502,-2.4861,-2.4723,-2.4353,-2.4322,-2.4198,-2.3867,-2.3619,-2.3381,-2.3091,-2.2977,-2.2956,-2.2656,-2.2387,-2.2159,-2.1942,-2.1859,-2.1807,-2.1807,-2.1807,-2.1807,-2.1807,-2.1807,-2.7659,-2.851,-2.851,-2.851,-2.8578,-2.8803,-2.8961,-2.9209,-2.9443,-2.9611,-2.9779,-2.9779,-2.9779,-2.9779,-2.9767,-2.9729,-2.9591,-2.9001,-2.8423,-2.7871,-2.7331,-2.6829,-2.6647,-2.6521,-2.6521,-2.6521,-2.6782,-2.6577,-2.6521,-2.6521,-2.6521,-2.6521,-2.6521,-2.6521,-2.6521,-2.6521,-2.6521,-2.6645,-2.6521,-2.6521,-2.6521,-2.6521,-2.6521,-2.6521,-2.6521,-2.6521,-2.6521,-2.6521,-2.6521,-2.6521,-2.6521,-2.6521,-2.6521,-2.6521,-2.6521,-2.6521,-2.6521,-2.6521,-2.6565,-2.6791,-2.7268,-2.7808,-2.8423,-2.8988,-2.9465,-2.9654,-2.9792,-2.9714,-2.9792,-2.9702,-2.9702,-2.9702,-2.9702,-2.9792,-2.9714,-2.9702,-2.9714,-2.9702,-2.9624,-2.9534,-2.9702,-2.9238,-2.8275,-2.7464,-2.6659,-2.6494,-2.608,-2.5913,-2.5684,-2.5516,-2.5589,-2.5579,-2.5579,-2.5421,-2.5051,-2.4304,-2.4179,-2.4022,-2.3525,-2.308,-2.2873,-2.2656,-2.2573,-2.248,-2.2387,-2.2139,-2.1921,-2.1807,-2.1807,-2.1807,-2.1807,-2.1807,-2.1807,-2.1807,-2.1807,-2.7343,-2.851,-2.851,-2.8578,-2.8803,-2.8973,-2.9197,-2.9341,-2.9611,-2.9779,-2.9779,-2.9779,-2.9779,-2.9779,-2.9779,-2.9503,-2.9026,-2.8524,-2.8009,-2.7482,-2.6917,-2.6672,-2.6546,-2.6521,-2.6521,-2.6521,-2.704,-2.6973,-2.6782,-2.6658,-2.6589,-2.6589,-2.6589,-2.6521,-2.6533,-2.6521,-2.6769,-2.7175,-2.6782,-2.6521,-2.6521,-2.6521,-2.6521,-2.6521,-2.6521,-2.6521,-2.6521,-2.6521,-2.6521,-2.6521,-2.6521,-2.6521,-2.6521,-2.6521,-2.6521,-2.6521,-2.6521,-2.6521,-2.6546,-2.659,-2.6892,-2.7444,-2.7921,-2.8448,-2.9038,-2.9553,-2.9702,-2.9496,-2.9689,-2.9702,-2.9599,-2.9509,-2.9599,-2.9611,-2.9546,-2.9624,-2.9624,-2.9714,-2.9546,-2.9546,-2.9636,-2.9294,-2.8602,-2.7853,-2.7151,-2.6987,-2.6905,-2.6812,-2.6494,-2.608,-2.6174,-2.6163,-2.6008,-2.5832,-2.5645,-2.483,-2.4135,-2.396,-2.3405,-2.2752,-2.2449,-2.2283,-2.2164,-2.207,-2.2039,-2.2279,-2.238,-2.2241,-2.1959,-2.1883,-2.1959,-2.1883,-2.1807,-2.1807,-2.1807,-2.7419,-2.8645,-2.8645,-2.8803,-2.8961,-2.9197,-2.9353,-2.9419,-2.9702,-2.9779,-2.9779,-2.9779,-2.9779,-2.9779,-2.9779,-2.9478,-2.89,-2.8323,-2.7808,-2.7256,-2.6823,-2.6521,-2.6521,-2.6521,-2.6521,-2.6645,-2.6782,-2.704,-2.704,-2.7417,-2.7471,-2.7108,-2.704,-2.6837,-2.6726,-2.6521,-2.6658,-2.6782,-2.6645,-2.6521,-2.6521,-2.6521,-2.6521,-2.6521,-2.6521,-2.6521,-2.6521,-2.6521,-2.6521,-2.6521,-2.6521,-2.6521,-2.6521,-2.6521,-2.6521,-2.6521,-2.6521,-2.6521,-2.6521,-2.6521,-2.6753,-2.713,-2.757,-2.8009,-2.8762,-2.9428,-2.9792,-2.9689,-2.9702,-2.9702,-2.9624,-2.9611,-2.9702,-2.9702,-2.9534,-2.9624,-2.9702,-2.9636,-2.9636,-2.9636,-2.9546,-2.9241,-2.9052,-2.876,-2.8211,-2.7971,-2.7706,-2.736,-2.6719,-2.5997,-2.6246,-2.6659,-2.6456,-2.6253,-2.6074,-2.5564,-2.4382,-2.3971,-2.3409,-2.2796,-2.2164,-2.1932,-2.2122,-2.2392,-2.2606,-2.2746,-2.283,-2.2531,-2.2101,-2.2035,-2.2111,-2.2035,-2.1949,-2.1797,-2.1807,-2.7866,-2.887,-2.8882,-2.8961,-2.9209,-2.9341,-2.9431,-2.9521,-2.9702,-2.9779,-2.9779,-2.9779,-2.9779,-2.9729,-2.9591,-2.9202,-2.8674,-2.8147,-2.7607,-2.708,-2.6773,-2.6683,-2.6769,-2.6769,-2.6905,-2.696,-2.7564,-2.7749,-2.8195,-2.857,-2.8634,-2.7802,-2.7736,-2.7537,-2.7162,-2.7108,-2.7229,-2.7217,-2.743,-2.7364,-2.7162,-2.7108,-2.6985,-2.6905,-2.6837,-2.6837,-2.6589,-2.6714,-2.6782,-2.6521,-2.6521,-2.6521,-2.6521,-2.6521,-2.6521,-2.6521,-2.6521,-2.6521,-2.6521,-2.649,-2.6703,-2.7005,-2.7494,-2.8009,-2.88,-2.944,-2.9702,-2.9702,-2.9792,-2.9779,-2.9702,-2.9702,-2.9714,-2.9702,-2.9624,-2.9702,-2.9677,-2.9524,-2.9471,-2.9534,-2.9534,-2.9611,-2.9471,-2.9664,-2.9365,-2.8949,-2.8518,-2.7956,-2.7209,-2.6318,-2.6404,-2.6873,-2.6632,-2.6391,-2.5973,-2.5621,-2.4648,-2.4116,-2.363,-2.3163,-2.2767,-2.2671,-2.2916,-2.3054,-2.3065,-2.299,-2.2979,-2.2617,-2.2252,-2.2327,-2.2402,-2.2252,-2.2101,-2.1949,-2.1873,-2.8633,-2.9052,-2.9052,-2.9197,-2.9341,-2.9419,-2.9521,-2.9702,-2.9779,-2.9779,-2.9779,-2.9779,-2.9779,-2.9641,-2.9227,-2.875,-2.8134,-2.7595,-2.7258,-2.6867,-2.6615,-2.6973,-2.7284,-2.7471,-2.7723,-2.8247,-2.8454,-2.8903,-2.9421,-2.9608,-2.9345,-2.862,-2.8492,-2.8427,-2.8247,-2.7999,-2.8065,-2.8182,-2.8454,-2.8583,-2.8312,-2.8117,-2.7934,-2.767,-2.7855,-2.7802,-2.6645,-2.7095,-2.7162,-2.6714,-2.6645,-2.6521,-2.6521,-2.6521,-2.6521,-2.6521,-2.6521,-2.6521,-2.6521,-2.6521,-2.6546,-2.6804,-2.7344,-2.8047,-2.8525,-2.9352,-2.9601,-2.9359,-2.9401,-2.9464,-2.9449,-2.9394,-2.9337,-2.9363,-2.9187,-2.9199,-2.9212,-2.9133,-2.9105,-2.9356,-2.9422,-2.9337,-2.9374,-2.9401,-2.9478,-2.9056,-2.846,-2.7897,-2.7734,-2.7127,-2.6878,-2.6952,-2.6792,-2.6359,-2.5769,-2.5294,-2.5044,-2.4745,-2.4265,-2.397,-2.3632,-2.3683,-2.3265,-2.3338,-2.3202,-2.3202,-2.3128,-2.3054,-2.2979,-2.2767,-2.2628,-2.2327,-2.2176,-2.2035,-2.1959,-2.8803,-2.8961,-2.9197,-2.9443,-2.9611,-2.9509,-2.9509,-2.9779,-2.9779,-2.9779,-2.9779,-2.9779,-2.9591,-2.9264,-2.9038,-2.8423,-2.7742,-2.7876,-2.7516,-2.7452,-2.755,-2.7868,-2.8117,-2.8168,-2.8298,-2.8556,-2.8889,-2.9219,-2.956,-3.0007,-3.0115,-2.9656,-2.9331,-2.8826,-2.8698,-2.8634,-2.8634,-2.862,-2.8826,-2.8748,-2.8634,-2.8505,-2.8376,-2.8247,-2.8233,-2.8298,-2.7855,-2.7986,-2.767,-2.7297,-2.7095,-2.685,-2.6533,-2.6521,-2.6521,-2.6521,-2.6521,-2.6521,-2.6521,-2.6521,-2.6521,-2.659,-2.7155,-2.7745,-2.8049,-2.8437,-2.865,-2.87,-2.8737,-2.8825,-2.8687,-2.8575,-2.86,-2.8662,-2.8725,-2.87,-2.875,-2.8673,-2.8773,-2.8936,-2.8925,-2.885,-2.8938,-2.9038,-2.9126,-2.905,-2.8422,-2.7873,-2.7704,-2.7458,-2.7078,-2.6834,-2.6687,-2.6785,-2.6205,-2.5908,-2.5636,-2.5302,-2.4981,-2.4659,-2.4264,-2.3412,-2.3128,-2.3276,-2.3559,-2.3717,-2.379,-2.3779,-2.3632,-2.3361,-2.2767,-2.2176,-2.2111,-2.2111,-2.2035,-2.8803,-2.8882,-2.9106,-2.9431,-2.9611,-2.9599,-2.9599,-2.9779,-2.9779,-2.9666,-2.9553,-2.9515,-2.9214,-2.8787,-2.8436,-2.8097,-2.7594,-2.7739,-2.7702,-2.7802,-2.8065,-2.857,-2.8762,-2.8889,-2.9016,-2.9002,-2.9142,-2.9546,-2.9931,-2.9931,-3.0115,-3.0251,-3.0129,-2.9608,-2.9345,-2.9142,-2.9142,-2.9129,-2.9129,-2.9129,-2.9142,-2.9205,-2.9016,-2.8953,-2.9079,-2.8826,-2.857,-2.8376,-2.8038,-2.7537,-2.7217,-2.6918,-2.6658,-2.6521,-2.6521,-2.6521,-2.6521,-2.6521,-2.6521,-2.6521,-2.6521,-2.654,-2.6979,-2.7306,-2.741,-2.7736,-2.8249,-2.8225,-2.8174,-2.8097,-2.8072,-2.8235,-2.8211,-2.8398,-2.8373,-2.8337,-2.8312,-2.8275,-2.8462,-2.855,-2.8524,-2.8387,-2.8398,-2.8486,-2.8486,-2.8436,-2.8063,-2.7631,-2.7384,-2.7089,-2.6578,-2.6516,-2.6502,-2.6648,-2.684,-2.6387,-2.6009,-2.5972,-2.5664,-2.5312,-2.4791,-2.4009,-2.3863,-2.4576,-2.4802,-2.4515,-2.4227,-2.4009,-2.3936,-2.3875,-2.3139,-2.2402,-2.2327,-2.2338,-2.2101,-2.8712,-2.904,-2.8858,-2.9069,-2.9332,-2.9677,-2.9779,-2.9779,-2.9716,-2.9453,-2.9063,-2.8988,-2.8637,-2.8122,-2.7733,-2.7477,-2.7481,-2.7582,-2.7723,-2.7947,-2.8634,-2.9016,-2.9345,-2.9608,-2.9732,-3.0387,-3.0312,-3.0251,-3.0493,-3.0387,-3.0568,-3.0582,-3.0447,-3.0372,-3.0493,-3.0507,-3.0507,-3.0493,-3.0433,-3.0312,-3.0312,-3.0251,-2.9931,-2.9808,-2.9931,-2.9656,-2.9156,-2.8953,-2.8634,-2.7999,-2.7497,-2.7108,-2.6714,-2.6658,-2.6589,-2.6533,-2.6521,-2.6521,-2.6521,-2.6521,-2.6521,-2.6559,-2.6892,-2.7105,-2.7331,-2.767,-2.7883,-2.7711,-2.7858,-2.7934,-2.8009,-2.8009,-2.7921,-2.7858,-2.7808,-2.7783,-2.7745,-2.7733,-2.7808,-2.7959,-2.8059,-2.8059,-2.7896,-2.7808,-2.7795,-2.7708,-2.7519,-2.7297,-2.7042,-2.6776,-2.6436,-2.6387,-2.6454,-2.6536,-2.6714,-2.6596,-2.6396,-2.644,-2.622,-2.5804,-2.5664,-2.5312,-2.5453,-2.5955,-2.537,-2.4576,-2.4371,-2.4154,-2.4443,-2.4659,-2.3508,-2.2852,-2.2703,-2.2767,-2.2756,-2.8062,-2.7934,-2.843,-2.8533,-2.8499,-2.9235,-2.9611,-2.9729,-2.9402,-2.9101,-2.8875,-2.8574,-2.8072,-2.7607,-2.7485,-2.7405,-2.7514,-2.8067,-2.8312,-2.8903,-2.947,-2.9931,-3.019,-3.019,-3.0387,-3.0507,-3.0642,-3.0642,-3.0568,-3.0642,-3.0642,-3.0642,-3.0642,-3.0642,-3.0568,-3.0642,-3.0568,-3.0568,-3.0582,-3.0582,-3.0642,-3.0582,-3.0507,-3.0251,-3.0507,-3.0312,-2.9808,-2.967,-2.9282,-2.8776,-2.8274,-2.7815,-2.7297,-2.7108,-2.6918,-2.6658,-2.6521,-2.6521,-2.6521,-2.6521,-2.6521,-2.6609,-2.671,-2.6791,-2.6804,-2.6879,-2.6992,-2.708,-2.7168,-2.7143,-2.6979,-2.6992,-2.6942,-2.6929,-2.6904,-2.6904,-2.6892,-2.6917,-2.6979,-2.7218,-2.7356,-2.7218,-2.7067,-2.7268,-2.7318,-2.7168,-2.6992,-2.6904,-2.6734,-2.6671,-2.6464,-2.6452,-2.6483,-2.6515,-2.6521,-2.6521,-2.6521,-2.6452,-2.6302,-2.6025,-2.6025,-2.6037,-2.5664,-2.5441,-2.5004,-2.4564,-2.4647,-2.4874,-2.5523,-2.5523,-2.4227,-2.379,-2.4009,-2.3998,-2.3902,-2.7602,-2.7483,-2.8039,-2.8151,-2.8064,-2.8849,-2.9312,-2.9377,-2.89,-2.8549,-2.8359,-2.8151,-2.7921,-2.7582,-2.761,-2.7725,-2.7934,-2.857,-2.8967,-2.9685,-3.0266,-3.0447,-3.0582,-3.0642,-3.0568,-3.0642,-3.0642,-3.0642,-3.0642,-3.0642,-3.0642,-3.0642,-3.0642,-3.0642,-3.0642,-3.0642,-3.0642,-3.0642,-3.0642,-3.0642,-3.0642,-3.0582,-3.0582,-3.0582,-3.0642,-3.0568,-3.0507,-3.0387,-3.0068,-2.9608,-2.9093,-2.857,-2.7736,-2.7229,-2.6973,-2.6589,-2.6521,-2.6521,-2.6521,-2.6521,-2.6521,-2.6533,-2.6521,-2.6521,-2.6521,-2.6634,-2.6609,-2.654,-2.6521,-2.6477,-2.649,-2.6521,-2.6533,-2.6546,-2.6546,-2.6515,-2.6527,-2.6647,-2.6672,-2.6791,-2.6816,-2.659,-2.6533,-2.6653,-2.6879,-2.6678,-2.6559,-2.6521,-2.6521,-2.6521,-2.6521,-2.6521,-2.6521,-2.6521,-2.6521,-2.6521,-2.6521,-2.6521,-2.6383,-2.6164,-2.6176,-2.6176,-2.5511,-2.5063,-2.5358,-2.5441,-2.537,-2.5594,-2.5816,-2.5594,-2.4862,-2.4802,-2.5241,-2.5004,-2.4624,-2.7409,-2.7705,-2.7804,-2.7852,-2.8122,-2.8511,-2.88,-2.8837,-2.8323,-2.7795,-2.7473,-2.8066,-2.7991,-2.7735,-2.8157,-2.8481,-2.8583,-2.9233,-2.9546,-2.9808,-3.0372,-3.0507,-3.0642,-3.0642,-3.0642,-3.0642,-3.0642,-3.0642,-3.0642,-3.0642,-3.0642,-3.0642,-3.0642,-3.0642,-3.0642,-3.0642,-3.0642,-3.0642,-3.0642,-3.0642,-3.0642,-3.0642,-3.0642,-3.0642,-3.0642,-3.0642,-3.0447,-3.019,-2.9946,-2.9359,-2.8648,-2.8051,-2.7484,-2.6973,-2.6714,-2.6521,-2.6589,-2.6521,-2.6521,-2.6521,-2.6521,-2.6521,-2.6521,-2.6521,-2.6521,-2.6521,-2.6521,-2.6521,-2.6521,-2.6521,-2.6521,-2.6521,-2.6521,-2.6521,-2.6521,-2.6533,-2.6533,-2.6546,-2.6546,-2.6596,-2.6609,-2.6521,-2.6521,-2.6634,-2.6653,-2.6634,-2.6521,-2.6521,-2.6521,-2.6521,-2.6521,-2.6521,-2.6521,-2.6521,-2.6521,-2.6521,-2.6521,-2.6521,-2.6521,-2.6383,-2.6383,-2.6314,-2.6013,-2.5873,-2.6233,-2.6314,-2.5955,-2.5676,-2.5594,-2.53,-2.53,-2.537,-2.5746,-2.53,-2.485,-2.6793,-2.6723,-2.7071,-2.7151,-2.6979,-2.7118,-2.7595,-2.821,-2.777,-2.7665,-2.7976,-2.778,-2.7987,-2.8233,-2.8427,-2.8826,-2.9219,-2.9546,-2.9931,-3.0237,-3.0447,-3.0568,-3.0642,-3.0642,-3.0642,-3.0642,-3.0642,-3.0642,-3.0642,-3.0642,-3.0642,-3.0642,-3.0642,-3.0642,-3.0642,-3.0642,-3.0642,-3.0642,-3.0642,-3.0642,-3.0642,-3.0642,-3.0642,-3.0642,-3.0642,-3.0642,-3.0507,-3.0387,-3.0251,-3.0068,-2.987,-2.9532,-2.8967,-2.8776,-2.8454,-2.7229,-2.6837,-2.6521,-2.6521,-2.6521,-2.6521,-2.6521,-2.6521,-2.6521,-2.6521,-2.6521,-2.6521,-2.6521,-2.6521,-2.6521,-2.6521,-2.6521,-2.6521,-2.6521,-2.6521,-2.6521,-2.6521,-2.6521,-2.6521,-2.6521,-2.6521,-2.6521,-2.6521,-2.6533,-2.6609,-2.6546,-2.6521,-2.6521,-2.6521,-2.6521,-2.6521,-2.6521,-2.6521,-2.6521,-2.6521,-2.6521,-2.6521,-2.6521,-2.6521,-2.6521,-2.6452,-2.6452,-2.6452,-2.6521,-2.6521,-2.6452,-2.6327,-2.6107,-2.5886,-2.6094,-2.6094,-2.6164,-2.6094,-2.5652,-2.5358,-2.5716,-2.5629,-2.589,-2.6009,-2.612,-2.6364,-2.7006,-2.7659,-2.722,-2.7347,-2.7954,-2.7961,-2.8247,-2.8967,-2.9282,-2.9594,-2.9946,-3.0068,-3.0251,-3.0447,-3.0642,-3.0642,-3.0642,-3.0642,-3.0642,-3.0642,-3.0642,-3.0642,-3.0642,-3.0642,-3.0642,-3.0642,-3.0642,-3.0642,-3.0642,-3.0642,-3.0642,-3.0642,-3.0642,-3.0642,-3.0642,-3.0642,-3.0642,-3.0642,-3.0642,-3.0642,-3.0642,-3.0642,-3.0642,-3.0507,-3.0447,-3.0068,-2.9484,-2.9282,-2.8967,-2.7868,-2.767,-2.7229,-2.704,-2.6973,-2.6794,-2.6602,-2.6521,-2.6521,-2.6521,-2.6521,-2.6521,-2.6521,-2.6521,-2.6521,-2.6521,-2.6521,-2.6521,-2.6521,-2.6521,-2.6521,-2.6521,-2.6521,-2.6521,-2.6521,-2.6521,-2.6521,-2.6521,-2.6521,-2.6521,-2.6521,-2.6521,-2.6521,-2.6521,-2.6521,-2.6521,-2.6521,-2.6521,-2.6521,-2.6521,-2.6521,-2.6521,-2.6521,-2.6521,-2.6521,-2.6521,-2.6521,-2.6521,-2.6521,-2.6521,-2.6452,-2.6396,-2.6452,-2.6383,-2.6521,-2.6521,-2.6383,-2.6314,-2.6233,-2.6013,-2.4508,-2.4623,-2.4573,-2.5,-2.5398,-2.605,-2.6697,-2.7352,-2.6786,-2.7015,-2.7749,-2.8325,-2.9016,-2.9685,-3.0054,-3.0312,-3.0447,-3.0447,-3.0447,-3.0642,-3.0642,-3.0642,-3.0642,-3.0642,-3.0642,-3.0642,-3.0642,-3.0642,-3.0642,-3.0642,-3.0642,-3.0642,-3.0642,-3.0642,-3.0642,-3.0642,-3.0642,-3.0642,-3.0642,-3.0642,-3.0642,-3.0642,-3.0642,-3.0642,-3.0642,-3.0642,-3.0642,-3.0642,-3.0582,-3.0387,-3.0129,-2.9808,-2.9608,-2.9156,-2.8762,-2.8441,-2.8182,-2.792,-2.7484,-2.7297,-2.7108,-2.685,-2.6602,-2.6658,-2.6645,-2.6521,-2.6521,-2.6521,-2.6521,-2.6521,-2.6521,-2.6521,-2.6521,-2.6521,-2.6521,-2.6521,-2.6521,-2.6521,-2.6521,-2.6521,-2.6521,-2.6521,-2.6521,-2.6521,-2.6521,-2.6521,-2.6521,-2.6521,-2.6521,-2.6521,-2.6521,-2.6521,-2.6521,-2.6521,-2.6521,-2.6521,-2.6521,-2.6521,-2.6521,-2.6521,-2.6521,-2.6521,-2.6521,-2.6521,-2.6521,-2.6521,-2.6452,-2.6521,-2.6521,-2.6521,-2.6521,-2.6521,-2.6521,-2.6508,-2.6383,-2.4288,-2.4586,-2.4691,-2.4778,-2.4838,-2.5094,-2.5921,-2.6882,-2.67,-2.7626,-2.8911,-2.9296,-2.967,-3.0266,-3.0447,-3.0642,-3.0642,-3.0642,-3.0642,-3.0642,-3.0642,-3.0642,-3.0642,-3.0642,-3.0642,-3.0642,-3.0642,-3.0642,-3.0642,-3.0642,-3.0642,-3.0642,-3.0642,-3.0642,-3.0642,-3.0642,-3.0642,-3.0642,-3.0642,-3.0642,-3.0642,-3.0642,-3.0642,-3.0642,-3.0642,-3.0642,-3.0642,-3.0642,-3.0642,-3.0507,-3.0447,-3.0387,-3.0312,-2.967,-2.9421,-2.9156,-2.8583,-2.8325,-2.8065,-2.7749,-2.7417,-2.7484,-2.7284,-2.7108,-2.6918,-2.6645,-2.6521,-2.6521,-2.6521,-2.6521,-2.6521,-2.6521,-2.6521,-2.6521,-2.6521,-2.6521,-2.6521,-2.6521,-2.6521,-2.6521,-2.6521,-2.6521,-2.6521,-2.6521,-2.6521,-2.6521,-2.6521,-2.6521,-2.6521,-2.6521,-2.6521,-2.6521,-2.6521,-2.6521,-2.6521,-2.6521,-2.6521,-2.6521,-2.6521,-2.6521,-2.6521,-2.6521,-2.6521,-2.6521,-2.6521,-2.6521,-2.6521,-2.6508,-2.6508,-2.6352,-2.6314,-2.6264,-2.6433,-2.6458,-2.6427,-2.3575,-2.3814,-2.4165,-2.4265,-2.4416,-2.5191,-2.6219,-2.7133,-2.7719,-2.8789,-2.9842,-2.9808,-2.9946,-3.0507,-3.0582,-3.0642,-3.0642,-3.0642,-3.0642,-3.0642,-3.0642,-3.0642,-3.0642,-3.0642,-3.0642,-3.0642,-3.0642,-3.0642,-3.0642,-3.0642,-3.0642,-3.0642,-3.0642,-3.0642,-3.0642,-3.0642,-3.0642,-3.0642,-3.0642,-3.0642,-3.0642,-3.0642,-3.0642,-3.0642,-3.0642,-3.0642,-3.0642,-3.0642,-3.0642,-3.0642,-3.0582,-3.0582,-3.0507,-3.0251,-3.0068,-2.987,-2.947,-2.8903,-2.8712,-2.839,-2.7934,-2.8051,-2.767,-2.7364,-2.7162,-2.6905,-2.6521,-2.6521,-2.6521,-2.6521,-2.6521,-2.6521,-2.6521,-2.6521,-2.6521,-2.6521,-2.6521,-2.6521,-2.6521,-2.6521,-2.6521,-2.6521,-2.6521,-2.6521,-2.6521,-2.6521,-2.6521,-2.6521,-2.6521,-2.6521,-2.6521,-2.6521,-2.6521,-2.6521,-2.6521,-2.6521,-2.6521,-2.6521,-2.6521,-2.6521,-2.6521,-2.6521,-2.6521,-2.6521,-2.6521,-2.6521,-2.6508,-2.6264,-2.6101,-2.5963,-2.5975,-2.6025,-2.6176,-2.642,-2.6414,-2.2727,-2.2825,-2.358,-2.3854,-2.4104,-2.5856,-2.7103,-2.794,-2.8982,-2.9832,-3.0433,-3.0007,-3.0115,-3.0433,-3.0642,-3.0642,-3.0642,-3.0642,-3.0642,-3.0642,-3.0642,-3.0642,-3.0642,-3.0642,-3.0642,-3.0642,-3.0642,-3.0642,-3.0642,-3.0642,-3.0642,-3.0642,-3.0642,-3.0642,-3.0642,-3.0642,-3.0642,-3.0642,-3.0642,-3.0642,-3.0642,-3.0642,-3.0642,-3.0642,-3.0642,-3.0642,-3.0642,-3.0642,-3.0642,-3.0642,-3.0642,-3.0642,-3.0642,-3.0507,-3.0507,-3.0312,-3.0068,-2.9794,-2.967,-2.9219,-2.9016,-2.8748,-2.8065,-2.767,-2.7537,-2.7284,-2.6905,-2.6645,-2.6645,-2.6521,-2.6521,-2.6521,-2.6521,-2.6521,-2.6521,-2.6521,-2.6521,-2.6521,-2.6521,-2.6521,-2.6521,-2.6521,-2.6521,-2.6521,-2.6521,-2.6521,-2.6521,-2.6521,-2.6521,-2.6521,-2.6521,-2.6521,-2.6521,-2.6521,-2.6521,-2.6521,-2.6521,-2.6521,-2.6521,-2.6521,-2.6521,-2.6521,-2.6521,-2.6508,-2.6508,-2.6264,-2.6038,-2.5812,-2.5674,-2.5598,-2.5737,-2.5875,-2.6151,-2.6382,-2.6483,-2.2555,-2.2788,-2.4157,-2.468,-2.4796,-2.6222,-2.7509,-2.8424,-2.8774,-2.9508,-3.036,-3.0507,-3.0507,-3.0642,-3.0642,-3.0642,-3.0642,-3.0642,-3.0642,-3.0642,-3.0642,-3.0642,-3.0642,-3.0642,-3.0642,-3.0642,-3.0642,-3.0642,-3.0642,-3.0642,-3.0642,-3.0642,-3.0642,-3.0642,-3.0642,-3.0642,-3.0642,-3.0642,-3.0642,-3.0642,-3.0642,-3.0642,-3.0642,-3.0642,-3.0642,-3.0642,-3.0642,-3.0642,-3.0642,-3.0642,-3.0642,-3.0642,-3.0642,-3.0642,-3.0642,-3.0507,-3.0326,-3.0251,-2.9993,-2.9546,-2.9268,-2.9794,-2.9156,-2.857,-2.8441,-2.8312,-2.7868,-2.7297,-2.7095,-2.6645,-2.6589,-2.6521,-2.6521,-2.6521,-2.6521,-2.6521,-2.6521,-2.6521,-2.6521,-2.6521,-2.6521,-2.6521,-2.6521,-2.6521,-2.6521,-2.6521,-2.6521,-2.6521,-2.6521,-2.6521,-2.6521,-2.6521,-2.6521,-2.6521,-2.6521,-2.6521,-2.6521,-2.6521,-2.6521,-2.6521,-2.6521,-2.6521,-2.6496,-2.6276,-2.6038,-2.5799,-2.5586,-2.5335,-2.5372,-2.5347,-2.5536,-2.5737,-2.6038,-2.6302,-2.6471]}]]